     2              OBSERVATION DATA    GPS                 RINEX VERSION / TYPE
teqc 1998Mar9 19980312 00:58:27UTC                          PGM / RUN BY / DATE
                                                            COMMENT
Original Marker Name: unknown                               COMMENT
Campaign Name: Cholame 1989                                 COMMENT
4-Character Station Name: POZO                              COMMENT
6-Character Antenna Code: TI4100                            COMMENT
Vertical Measurement Point: PAE                             COMMENT
Vertical Offset to Rinex Ref. Point: 0.0000                 COMMENT
Radial Measurement Point: PAE                               COMMENT
Radial Offset to Rinex Ref. Point: 0.0842                   COMMENT
Antenna Height from Field Measurement: 1.0650 m             COMMENT
Original XYZ: -2627961.9188 -4497466.9699 3669697.3541      COMMENT
New XYZ position is based on association with SCEC monument COMMENT
E1F1A5K8+0011. Position of that monument is believed to be  COMMENT
valid to within 1 m horizontally; vertical accuracy         COMMENT
should be no worse than 3-times this value.                 COMMENT
                                                            COMMENT
Revised Rinex header created by UCSD GPS archive for        COMMENT
GSAC on 14-Apr-1999 (1999:104) 20:22:13 GMT                 COMMENT
For assistance contact dagnew@ucsd.edu or hjohnson@ucsd.edu COMMENT
                                                            COMMENT
L561 1957                                                   MARKER NAME
unknown UCLA                                                OBSERVER / AGENCY
UN02 TI 4100 1.9                                            REC # / TYPE / VERS
UN02 TI 4100                                                ANT # / TYPE
 -2627936.0000 -4497409.0000  3669666.0000                  APPROX POSITION XYZ
        1.0617        0.0000        0.0000                  ANTENNA: DELTA H/E/N
     1     1     0                                          WAVELENGTH FACT L1/2
     4    P1    P2    L1    L2                              # / TYPES OF OBSERV
     0                                                      INTERVAL
  1989    11    27     9     8   29.000000                  TIME OF FIRST OBS
  1989    11    27    16     0   59.000000                  TIME OF LAST OBS
     0                                                      # OF SATELLITES
                                                            END OF HEADER
 89 11 27  9  8 29.0800000  0  3G 2G 6G11
  22682435.931    22682440.455     1258184.950 9   -517904.125 9
  21895427.173    21895430.865      610065.452 9   -890583.343 9
  23777808.771    23777814.856      340996.182 9  -1145964.275 9
 89 11 27  9  8 59.0800000  0  3G 2G 6G11
  22697076.596    22697080.835     1335123.491 9   -457952.053 9
  21884862.868    21884866.502      554550.724 9   -933841.553 9
  23756808.570    23756815.650      230640.652 9  -1231955.584 9
 89 11 27  9  9 29.0800000  0  3G 2G 6G11
  22711733.800    22711737.454     1412148.972 9   -397932.204 9
  21874315.404    21874319.997      499126.875 9   -977028.952 9
  23735834.794    23735840.910      120423.909 9  -1317838.730 9
 89 11 27  9  9 59.0800000  0  3G 2G 6G11
  22726407.110    22726410.292     1489260.216 9   -337845.535 9
  21863786.016    21863790.207      443795.070 9  -1020144.637 9
  23714889.074    23714894.411       10349.060 9  -1403611.319 9
 89 11 27  9 10 29.0800000  0  3G 2G 6G11
  22741096.991    22741100.877     1566455.634 9   -277693.307 8
  21853275.056    21853278.648      388556.530 9  -1063187.622 9
  23693969.673    23693976.123      -99580.909 9  -1489271.021 9
 89 11 27  9 10 59.0800000  0  3G 2G 6G11
  22755802.185    22755805.533     1643734.458 9   -217476.063 9
  21842781.295    21842784.744      333412.393 9  -1106157.055 9
  23673078.234    23673084.898     -209362.633 9  -1574815.199 9
 89 11 27  9 11 29.0800000  0  3G 2G 6G11
  22770523.682    22770526.380     1721095.154 9   -157195.044 9
  21832305.792    21832309.585      278363.416 9  -1149052.374 9
  23652216.509    23652223.474     -318993.746 9  -1660242.013 9
 89 11 27  9 11 59.0800000  0  3G 2G 6G11
  22785259.810    22785262.207     1798536.713 9    -96850.975 9
  21821848.437    21821852.660      223410.947 9  -1191872.464 9
  23631383.470    23631390.627     -428471.168 9  -1745549.076 8
 89 11 27  9 12 29.0800000  0  3G 2G 6G11
  22800013.490    22800015.393     1876058.782 8    -36444.177 9
  21811409.667    21811414.017      168556.670 9  -1234616.043 9
  23610580.565    23610586.902     -537791.333 9  -1830733.617 9
 89 11 27  9 12 59.0800000  0  3G 2G 6G11
  22814778.588    22814782.508     1953659.447 9     24023.847 9
  21800989.771    21800994.038      113801.417 9  -1277282.462 8
  23589808.910    23589814.636     -646951.550 9  -1915793.527 9
 89 11 27  9 13 29.0800000  0  3G 2G 6G11
  22829562.379    22829564.447     2031337.967 9     84552.545 9
  21790590.752    21790594.717       59146.236 9  -1319870.897 9
  23569066.716    23569073.160     -755948.993 9  -2000726.589 9
 89 11 27  9 13 59.0800000  0  3G 2G 6G11
  22844359.739    22844361.619     2109093.495 9    145141.226 9
  21780209.606    21780212.395        4592.426 9  -1362380.337 8
  23548356.610    23548361.822     -864780.791 9  -2085530.578 9
 89 11 27  9 14 29.0800000  0  3G 2G 6G11
  22859167.708    22859173.272     2186923.951 9    205788.300 9
  21769847.749    21769849.965      -49858.651 9  -1404809.732 8
  23527678.282    23527684.087     -973443.773 9  -2170203.025 8
 89 11 27  9 14 59.0800000  0  3G 2G 6G11
  22873991.698    22873997.478     2264828.922 8    266493.448 9
  21759505.564    21759508.970     -104205.899 9  -1447158.214 9
  23507032.857    23507040.453    -1081935.043 9  -2254741.693 9
 89 11 27  9 15 29.0800000  0  3G 2G 6G11
  22888829.596    22888836.428     2342807.076 8    327255.605 9
  21749183.874    21749187.064     -158448.404 9  -1489425.102 9
  23486422.427    23486428.410    -1190251.881 9  -2339144.421 9
 89 11 27  9 15 59.0800000  0  3G 2G 6G11
  22903683.898    22903689.036     2420857.707 8    388074.240 9
  21738881.726    21738884.848     -212584.392 9  -1531608.990 9
  23465842.859    23465849.805    -1298390.885 9  -2423408.588 8
 89 11 27  9 16 29.0800000  0  3G 2G 6G11
  22918549.396    22918555.478     2498979.396 9    448948.256 9
  21728600.230    21728604.806     -266612.648 9  -1573708.914 9
  23445297.886    23445306.776    -1406349.147 9  -2507531.903 9
 89 11 27  9 16 59.0800000  0  3G 2G 6G11
  22933428.937    22933433.996     2577171.493 7    509877.150 9
  21718339.225    21718343.028     -320532.189 9  -1615724.117 9
  23424791.733    23424796.618    -1514123.904 9  -2591512.229 9
 89 11 27  9 17 29.0800000  0  3G 2G 6G11
  22948319.884    22948327.277     2655433.358 7    570860.405 9
  21708099.823    21708104.232     -374341.343 9  -1657653.323 9
  23404317.397    23404324.331    -1621711.504 9  -2675346.704 9
 89 11 27  9 17 59.0800000  0  3G 2G 6G11
  22963227.238    22963233.264     2733763.039 8    631896.492 9
  21697881.731    21697885.320     -428038.971 9  -1699495.619 8
  23383880.892    23383886.601    -1729109.453 9  -2759033.424 9
 89 11 27  9 18 29.0800000  0  4G 2G 6G11G 9
  22978147.028    22978151.079     2812159.877 5    692984.918 6
  21687684.993    21687687.688     -481623.844 9  -1741250.069 8
  23363480.869    23363485.963    -1836314.926 9  -2842570.130 9
                  24156306.669    -3516963.380 3
 89 11 27  9 18 59.0800000  0  4G 2G 6G11G 9
  22993077.907    22993081.888     2890622.525 9    754124.614 9
  21677508.703    21677513.817     -535094.668 9  -1782915.656 8
  23343117.015    23343122.558    -1943325.172 9  -2925954.727 9
  24439963.430    24439966.110    -3601831.272 8   4651779.997 7
 89 11 27  9 19 29.0800000  0  4G 2G 6G11G 9
  23008021.732    23008025.406     2969150.216 9    815314.996 9
  21667355.538    21667360.683     -588450.055 8  -1824491.267 8
  23322790.452    23322797.269    -2050136.530 9  -3009184.342 9
  24423804.512    24423808.982    -3686740.366 8   4585617.036 7
 89 11 27  9 19 59.0800000  0  4G 2G 6G11G 9
  23022978.669    23022981.022     3047741.842 9    876555.203 9
  21657226.074    21657229.405     -641688.903 9  -1865976.046 9
  23302503.822    23302508.494    -2156746.443 9  -3092256.992 9
  24407639.743    24407643.964    -3771690.182 9   4519422.330 8
 89 11 27  9 20 29.0800000  0  4G 2G 6G11G 9
  23037944.645    23037948.738     3126396.669 9    937844.635 9
  21647117.387    21647121.699     -694809.547 9  -1907368.744 9
  23282255.422    23282261.788    -2263152.121 9  -3175170.497 9
  24391466.258    24391472.125    -3856680.625 8   4453195.976 8
 89 11 27  9 20 59.0800000  0  4G 2G 6G11G 9
  23052923.193    23052928.532     3205113.759 9    999182.594 9
  21637031.351    21637035.612     -747810.623 9  -1948668.264 9
  23262047.607    23262052.287    -2369350.354 9  -3257922.355 9
  24375285.938    24375290.699    -3941710.765 8   4386938.741 7
 89 11 27  9 21 29.0800000  0  4G 2G 6G11G 9
  23067913.621    23067918.762     3283892.097 9   1060568.278 9
  21626968.164    21626972.180     -800690.649 8  -1989873.477 9
  23241878.436    23241883.857    -2475337.935 9  -3340510.057 9
  24359096.681    24359102.185    -4026779.939 8   4320651.076 8
 89 11 27  9 21 59.0800000  0  4G 2G 6G11G 9
  23082916.048    23082922.087     3362730.682 9   1122000.904 9
  21616930.053    21616932.855     -853448.256 9  -2030983.287 9
  23221750.203    23221755.434    -2581112.158 9  -3422931.505 8
  24342902.744    24342907.385    -4111887.416 7   4254333.563 8
 89 11 27  9 22 29.0800000  0  4G 2G 6G11G 9
  23097929.506    23097934.782     3441628.803 8   1183479.929 9
  21606913.631    21606916.049     -906082.251 9  -2071996.767 9
  23201663.617    23201668.719    -2686670.588 9  -3505184.809 9
  24326699.558    24326705.124    -4197032.990 8   4187986.359 8
 89 11 27  9 22 59.0800000  0  4G 2G 6G11G 9
  23112954.894    23112959.973     3520585.262 7   1245004.415 9
  21596920.890    21596924.360     -958591.137 9  -2112912.776 8
  23181618.080    23181622.257    -2792009.690 9  -3587267.219 9
  24310490.530    24310494.908    -4282215.633 9   4121610.288 7
 89 11 27  9 23 29.0800000  0  4G 2G 6G11G 9
  23127991.361    23127994.761     3599598.887 8   1306573.457 9
  21586953.495    21586957.468    -1010973.586 9  -2153730.260 9
  23161614.698    23161620.727    -2897126.759 9  -3669176.610 8
  24294273.636    24294277.947    -4367435.052 8   4055205.558 9
 89 11 27  9 23 59.0800000  0  4G 2G 6G11G 9
  23143038.352    23143041.248     3678669.278 8   1368186.704 9
  21577009.449    21577013.123    -1063227.807 9  -2194447.828 9
  23141654.393    23141659.702    -3002018.430 9  -3750910.358 9
  24278049.478    24278055.301    -4452690.186 9   3988772.985 9
 89 11 27  9 24 29.0800000  0  4G 2G 6G11G 9
  23158095.963    23158099.087     3757795.160 9   1429843.181 9
  21567089.985    21567094.189    -1115352.769 9  -2235064.670 9
  23121737.176    23121744.093    -3106682.013 9  -3832466.377 9
  24261820.531    24261823.737    -4537980.845 8   3922312.733 9
 89 11 27  9 24 59.0800000  0  4G 2G 6G11G 9
  23173162.689    23173165.699     3836975.902 9   1491542.426 9
  21557195.639    21557199.726    -1167346.511 9  -2275579.268 9
  23101864.873    23101869.338    -3211114.244 9  -3913842.125 9
  24245582.608    24245586.428    -4623305.804 8   3855825.754 9
 89 11 27  9 25 29.0800000  0  4G 2G 6G11G 9
  23188241.437    23188246.214     3916210.103 9   1553283.323 9
  21547326.998    21547331.245    -1219208.058 9  -2315990.845 9
  23082035.313    23082041.990    -3315312.726 9  -3995035.740 9
  24229338.321    24229344.140    -4708664.811 7   3789312.224 9
 89 11 27  9 25 59.0800000  0  4G 2G 6G11G 9
  23203328.608    23203333.099     3995497.676 9   1615065.803 9
  21537483.150    21537488.035    -1270935.893 9  -2356298.249 9
  23062252.860    23062257.929    -3419274.721 9  -4076045.063 9
  24213089.103    24213095.290    -4794057.110 8   3722772.775 9
 89 11 27  9 26 29.0800000  0  4G 2G 6G11G 9
  23218425.971    23218430.918     4074837.001 8   1676888.622 9
  21527666.837    21527669.640    -1322528.566 9  -2396500.328 8
  23042515.698    23042520.237    -3522997.030 9  -4156867.635 8
  24196834.362    24196839.151    -4879482.160 7   3656207.826 8
 89 11 27  9 26 59.0800000  0  4G 2G 6G11G 9
  23233531.837    23233538.076     4154227.650 8   1738751.431 9
  21517874.025    21517878.257    -1373984.249 9  -2436595.667 9
  23022823.307    23022830.255    -3626476.417 9  -4237500.901 9
  24180571.917    24180576.725    -4964938.918 8   3589618.164 8
 89 11 27  9 27 29.0800000  0  4G 2G 6G11G 9
  23248650.296    23248655.359     4233668.029 9   1800652.982 9
  21508109.291    21508111.805    -1425302.150 9  -2476583.624 9
  23003178.434    23003184.173    -3729710.511 9  -4317943.034 8
  24164304.288    24164309.549    -5050427.274 8   3523003.870 8
 89 11 27  9 27 59.0800000  0  4G 2G 6G11G 9
  23263776.065    23263781.533     4313157.683 9   1862592.928 9
  21498369.790    21498372.823    -1476480.593 9  -2516462.936 8
  22983580.798    22983587.610    -3832696.441 9  -4398191.780 8
  24148030.973    24148035.246    -5135946.320 8   3456365.658 8
 89 11 27  9 28 29.0800000  0  4G 2G 6G11G 9
  23278910.092    23278918.694     4392696.158 8   1924570.927 9
  21488658.399    21488661.404    -1527517.610 9  -2556232.008 9
  22964032.980    22964036.828    -3935430.828 9  -4478244.521 9
  24131752.068    24131755.478    -5221494.943 9   3389704.410 8
 89 11 27  9 28 59.0800000  0  4G 2G 6G11G 9
  23294055.452    23294062.445     4472281.380 9   1986585.332 9
  21478973.052    21478976.683    -1578412.151 9  -2595890.080 9
  22944529.769    22944536.261    -4037911.069 9  -4558099.239 8
  24115467.446    24115471.551    -5307072.798 8   3323020.368 7
 89 11 27  9 29 29.0800000  0  4G 2G 6G11G 9
  23309210.706    23309216.337     4551913.211 9   2048636.085 9
  21469315.433    21469318.979    -1629162.298 9  -2635435.650 9
  22925077.499    22925083.877    -4140134.123 8  -4637753.536 9
  24099176.028    24099179.994    -5392678.806 9   3256314.366 8
 89 11 27  9 29 59.0800000  0  4G 2G 6G11G 9
  23324372.575    23324379.641     4631591.434 9   2110722.973 9
  21459686.434    21459690.123    -1679766.579 9  -2674867.562 8
  22905674.474    22905680.894    -4242097.197 9  -4717205.265 9
  24082880.877    24082884.228    -5478312.330 8   3189586.930 8
 89 11 27  9 30 29.0800000  0  4G 2G 6G11G 9
  23339543.965    23339548.883     4711314.145 9   2172844.549 9
  21450085.006    21450089.217    -1730223.707 9  -2714184.816 9
  22886321.749    22886328.194    -4343797.595 9  -4796452.295 9
  24066579.349    24066583.824    -5563972.765 7   3122838.523 8
 89 11 27  9 30 59.0800000  0  4G 2G 6G11G 9
  23354723.074    23354727.183     4791081.382 9   2235000.807 9
  21440511.267    21440515.277    -1780531.823 9  -2753385.962 9
  22867019.832    22867025.361    -4445232.209 9  -4875492.234 9
  24050274.306    24050279.660    -5649659.128 8   3056069.928 9
 89 11 27  9 31 29.0800000  0  4G 2G 6G11G 9
  23369910.548    23369915.577     4870891.926 9   2297190.785 9
  21430966.535    21430970.222    -1830689.613 9  -2792469.936 9
  22847767.558    22847774.327    -4546398.402 9  -4954323.006 9
  24033963.778    24033968.059    -5735370.628 8   2989281.734 8
 89 11 27  9 31 59.0800000  0  4G 2G 6G11G 9
  23385105.455    23385111.888     4950745.201 9   2359414.065 9
  21421449.646    21421453.975    -1880695.431 9  -2831435.511 9
  22828568.257    22828574.301    -4647293.022 9  -5032942.170 9
  24017648.931    24017653.872    -5821106.451 7   2922474.603 9
 89 11 27  9 32 29.0800000  0  4G 2G 6G11G 9
  23400310.063    23400315.736     5030640.165 9   2421669.847 9
  21411963.792    21411967.613    -1930547.706 8  -2870281.426 8
  22809421.098    22809426.360    -4747913.424 9  -5111347.654 9
  24001329.459    24001334.646    -5906865.764 8   2855649.167 8
 89 11 27  9 32 59.0800000  0  4G 2G 6G11G 9
  23415521.564    23415526.785     5110576.194 9   2483957.638 9
  21402506.191    21402510.150    -1980244.720 9  -2909006.345 9
  22790326.464    22790331.907    -4848256.848 9  -5189537.324 9
  23985005.585    23985010.183    -5992647.900 9   2788805.947 8
 89 11 27  9 33 29.0800000  0  4G 2G 6G11G 9
  23430739.193    23430744.719     5190552.515 9   2546276.799 9
  21393079.279    21393083.166    -2029784.818 8  -2947609.005 9
  22771284.688    22771291.199    -4948320.263 9  -5267508.810 9
  23968678.282    23968682.816    -6078451.864 9   2721945.706 9
 89 11 27  9 33 59.0800000  0  4G 2G 6G11G 9
  23445965.017    23445971.171     5270568.431 8   2608626.833 9
  21383681.935    21383686.403    -2079166.608 8  -2986088.310 8
  22752297.420    22752302.883    -5048101.051 9  -5345260.057 9
  23952345.970    23952350.878    -6164276.847 9   2655069.085 9
 89 11 27  9 34 29.0800000  0  4G 2G 6G11G 9
  23461198.349    23461204.320     5350623.061 7   2671007.019 9
  21374315.376    21374318.948    -2128388.359 9  -3024442.923 8
  22733363.793    22733369.803    -5147596.242 9  -5422788.744 9
  23936010.136    23936014.488    -6250121.901 9   2588176.818 9
 89 11 27  9 34 59.0800000  0  4G 2G 6G11G 9
  23476440.677    23476444.223     5430715.062 9   2733416.360 8
  21364979.539    21364984.174    -2177448.488 9  -3062671.590 9
  22714484.961    22714491.157    -5246803.104 9  -5500092.776 9
  23919670.674    23919675.361    -6335986.391 9   2521269.437 9
 89 11 27  9 35 29.0800000  0  4G 2G 6G11G 9
  23491690.666    23491693.848     5510844.412 9   2795854.747 9
  21355675.216    21355679.535    -2226345.366 9  -3100773.039 9
  22695662.115    22695667.935    -5345718.626 9  -5577169.789 9
  23903327.405    23903331.481    -6421869.061 8   2454347.889 9
 89 11 27  9 35 59.0800000  0  4G 2G 6G11G 9
  23506946.178    23506949.800     5591010.235 9   2858321.607 8
  21346402.184    21346405.601    -2275076.999 9  -3138745.716 9
  22676894.360    22676901.291    -5444339.821 9  -5654017.461 8
  23886981.642    23886985.782    -6507769.074 9   2387412.804 8
 89 11 27  9 36 29.0800000  0  4G 2G 6G11G 9
  23522207.949    23522211.768     5671211.807 9   2920816.290 9
  21337160.435    21337164.690    -2323641.946 9  -3176588.516 9
  22658184.452    22658190.611    -5542663.965 9  -5730633.663 8
  23870632.336    23870637.509    -6593685.450 9   2320464.993 8
 89 11 27  9 36 59.0800000  0  4G 2G 6G11G 9
  23537475.542    23537480.700     5751448.364 8   2983338.234 9
  21327950.764    21327954.469    -2372038.314 9  -3214299.953 9
  22639532.134    22639538.255    -5640688.384 9  -5807016.301 9
  23854280.104    23854283.979    -6679617.210 9   2253505.196 8
 89 11 27  9 37 29.0800000  0  4G 2G 6G11G 9
  23552751.852    23552755.076     5831718.976 9   3045886.743 9
  21318773.119    21318776.804    -2420264.604 9  -3251878.867 9
  22620935.966    22620940.984    -5738410.434 9  -5883163.339 8
  23837925.064    23837929.574    -6765563.515 8   2186534.067 8
 89 11 27  9 37 59.0800000  0  4G 2G 6G11G 9
  23568033.125    23568036.772     5912023.380 9   3108461.572 9
  21309629.254    21309632.715    -2468319.284 9  -3289324.052 9
  22602397.701    22602403.851    -5835827.349 9  -5959072.606 9
  23821567.366    23821571.138    -6851523.853 8   2119551.999 7
 89 11 27  9 38 29.0800000  0  4G 2G 6G11G 9
  23583320.612    23583324.398     5992360.715 9   3171062.070 9
  21300517.377    21300521.705    -2516200.669 9  -3326634.223 9
  22583918.114    22583923.963    -5932936.291 9  -6034741.889 8
  23805206.941    23805210.151    -6937496.794 9   2052560.118 7
 89 11 27  9 38 59.0800000  0  4G 2G 6G11G 9
  23598613.904    23598618.453     6072729.934 9   3233687.383 9
  21291438.340    21291443.070    -2563906.958 9  -3363807.953 9
  22565498.025    22565503.936    -6029734.807 9  -6110169.280 8
  23788844.301    23788848.494    -7023481.519 9   1985559.041 9
 89 11 27  9 39 29.0800000  0  4G 2G 6G11G 9
  23613911.935    23613918.780     6153130.304 9   3296336.997 9
  21282395.012    21282398.367    -2611436.817 9  -3400844.190 9
  22547138.063    22547143.702    -6126220.144 9  -6185352.649 9
  23772480.392    23772483.867    -7109477.382 9   1918549.295 8
 89 11 27  9 39 59.0800000  0  4G 2G 6G11G 9
  23629218.163    23629224.178     6233561.132 9   3359010.351 9
  21273384.392    21273388.321    -2658788.540 9  -3437741.626 9
  22528837.608    22528842.755    -6222389.647 9  -6260289.920 9
  23756113.746    23756117.402    -7195483.470 9   1851531.592 8
 89 11 27  9 40 29.0800000  0  4G 2G 6G11G 9
  23644529.600    23644534.801     6314021.232 9   3421706.503 9
  21264407.263    21264411.481    -2705960.554 9  -3474499.024 9
  22510597.795    22510603.320    -6318240.769 9  -6334979.100 9
  23739745.831    23739749.231    -7281498.748 9   1784506.740 8
 89 11 27  9 40 59.0800000  0  4G 2G 6G11G 9
  23659846.915    23659851.499     6394510.709 9   3484425.551 9
  21255465.378    21255468.292    -2752950.541 9  -3511114.588 9
  22492418.577    22492424.211    -6413770.223 9  -6409417.625 9
  23723376.747    23723379.489    -7367521.887 8   1717475.732 8
 89 11 27  9 41 29.0800000  0  4G 2G 6G11G 9
  23675167.874    23675173.215     6475028.803 9   3547166.884 9
  21246558.919    21246562.164    -2799756.914 9  -3547587.072 9
  22474301.995    22474308.092    -6508975.571 9  -6483603.587 9
  23707005.192    23707007.689    -7453551.885 9   1650439.393 8
 89 11 27  9 41 59.0800000  0  4G 2G 6G11G 9
  23690495.542    23690501.193     6555575.037 8   3609930.157 9
  21237687.688    21237689.970    -2846377.847 9  -3583915.074 9
  22456246.123    22456252.849    -6603853.662 9  -6557534.543 9
  23690632.929    23690637.339    -7539587.633 8   1583398.574 8
 89 11 27  9 42 29.0800000  0  4G 2G 6G11G 9
  23705827.902    23705833.579     6636148.361 9   3672714.521 9
  21228850.862    21228854.874    -2892811.632 9  -3620097.220 9
  22438255.328    22438259.951    -6698401.917 9  -6631208.489 9
  23674259.870    23674263.633    -7625628.112 8   1516354.068 8
 89 11 27  9 42 59.0800000  0  4G 2G 6G11G 9
  23721164.973    23721170.834     6716748.271 9   3735519.619 9
  21220051.620    21220053.060    -2939056.588 9  -3656132.250 9
  22420326.407    22420332.050    -6792618.025 9  -6704623.617 9
  23657886.309    23657890.688    -7711672.207 8   1449306.729 8
 89 11 27  9 43 29.0800000  0  4G 2G 6G11G 9
  23736510.167    23736512.115     6797374.720 9   3798345.395 9
  21211286.793    21211290.479    -2985110.690 9  -3692018.593 8
  22402461.600    22402467.339    -6886498.968 9  -6777777.575 9
  23641511.910    23641516.806    -7797718.740 8   1382257.509 7
 89 11 27  9 43 59.0800000  0  4G 2G 6G11G 9
  23751856.080    23751860.733     6878026.408 9   3861190.823 9
  21202559.574    21202563.818    -3030972.403 9  -3727754.964 9
  22384661.547    22384666.589    -6980042.313 9  -6850668.474 9
  23625137.498    23625141.801    -7883766.933 8   1315206.999 8
 89 11 27  9 44 29.0800000  0  4G 2G 6G11G 9
  23767207.403    23767213.580     6958702.678 8   3924055.411 9
  21193869.199    21193873.558    -3076639.991 9  -3763340.086 9
  22366924.722    22366930.332    -7073245.325 9  -6923294.171 9
  23608762.745    23608768.307    -7969815.720 9   1248156.008 8
 89 11 27  9 44 59.0800000  0  4G 2G 6G11G 9
  23782564.110    23782570.463     7039402.927 8   3986938.691 9
  21185216.127    21185220.244    -3122111.631 9  -3798772.539 9
  22349253.489    22349259.882    -7166105.325 9  -6995652.605 8
  23592388.136    23592393.628    -8055863.733 8   1181105.618 8
 89 11 27  9 45 29.0800000  0  4G 2G 6G11G 9
  23797925.052    23797931.352     7120126.824 8   4049840.380 9
  21176600.604    21176605.077    -3167385.438 9  -3834050.819 8
  22331648.852    22331654.257    -7258619.549 9  -7067741.588 9
  23576014.008    23576018.258    -8141910.009 9   1114056.586 8
 89 11 27  9 45 59.0800000  0  4G 2G 6G11G 9
  23813291.076    23813298.010     7200873.791 9   4112760.076 9
  21168024.031    21168027.573    -3212459.525 9  -3869173.465 9
  22314110.724    22314116.883    -7350785.474 9  -7139559.174 9
  23559640.550    23559646.498    -8227953.236 9   1047009.886 8
 89 11 27  9 46 29.0800000  0  4G 2G 6G11G 9
  23828661.651    23828666.873     7281642.814 9   4175696.962 9
  21159485.960    21159488.679    -3257332.270 9  -3904139.234 9
  22296639.096    22296643.948    -7442600.466 9  -7211103.306 9
  23543267.889    23543272.869    -8313992.598 8    979966.269 9
 89 11 27  9 46 59.0800000  0  4G 2G 6G11G 9
  23844036.575    23844039.868     7362433.803 9   4238650.928 8
  21150984.211    21150987.985    -3302001.811 9  -3938946.644 9
  22279234.406    22279239.773    -7534061.887 9  -7282371.924 9
  23526896.451    23526900.715    -8400026.794 9    912926.676 8
 89 11 27  9 47 29.0800000  0  4G 2G 6G11G 9
  23859414.255    23859418.364     7443245.769 9   4301621.273 9
  21142522.712    21142526.388    -3346466.160 9  -3973594.175 8
  22261897.408    22261903.209    -7625167.192 9  -7353363.067 9
  23510525.479    23510530.654    -8486054.487 9    845892.107 8
 89 11 27  9 47 59.0800000  0  4G 2G 6G11G 9
  23874794.466    23874801.105     7524078.550 8   4364607.806 9
  21134101.506    21134105.510    -3390723.590 9  -4008080.472 8
  22244628.856    22244634.671    -7715914.007 9  -7424074.854 9
  23494156.416    23494161.253    -8572074.576 9    778863.447 9
 89 11 27  9 48 29.0800000  0  4G 2G 6G11G 9
  23890180.150    23890187.534     7604930.829 8   4427609.561 9
  21125719.608    21125722.752    -3434772.659 9  -4042404.434 9
  22227428.806    22227434.478    -7806299.701 9  -7494505.232 9
  23477788.987    23477794.112    -8658086.219 9    711841.404 8
 89 11 27  9 48 59.0800000  0  4G 2G 6G11G 9
  23905570.714    23905575.102     7685802.973 8   4490626.744 8
  21117376.904    21117379.808    -3478610.924 9  -4076564.111 9
  22210297.555    22210304.162    -7896321.237 9  -7564651.860 9
  23461423.457    23461427.573    -8744087.810 9    644827.203 9
 89 11 27  9 49 29.0800000  0  4G 2G 6G11G 9
  23920963.769    23920968.644     7766694.149 9   4553658.797 8
  21109074.755    21109078.584    -3522236.342 9  -4110557.941 8
  22193237.087    22193243.327    -7985976.311 9  -7634512.927 9
  23445060.862    23445064.554    -8830077.962 9    577821.903 9
 89 11 27  9 49 59.0800000  0  4G 2G 6G11G 9
  23936359.977    23936365.008     7847603.900 8   4616705.308 9
  21100814.039    21100818.455    -3565647.600 9  -4144384.890 8
  22176245.838    22176252.473    -8075262.607 9  -7704086.637 9
  23428698.790    23428703.311    -8916055.920 9    510826.122 9
 89 11 27  9 50 29.0800000  0  4G 2G 6G11G 9
  23951760.630    23951766.084     7928531.034 9   4679765.370 9
  21092593.650    21092598.623    -3608842.814 8  -4178043.485 9
  22159326.334    22159332.960    -8164177.468 9  -7773370.921 9
  23412340.844    23412344.263    -9002020.324 9    443840.894 9
 89 11 27  9 50 59.0800000  0  4G 2G 6G11G 9
  23967163.927    23967169.770     8009475.148 9   4742838.691 8
  21084415.405    21084420.372    -3651819.989 9  -4211532.200 9
  22142477.194    22142483.930    -8252718.151 9  -7842363.625 9
  23395985.692    23395989.968    -9087970.023 9    376867.111 9
 89 11 27  9 51 29.0800000  0  4G 2G 6G11G 9
  23982571.011    23982576.837     8090436.297 9   4805925.256 9
  21076279.233    21076284.079    -3694577.277 9  -4244849.554 8
  22125700.878    22125706.306    -8340882.602 9  -7911063.156 9
  23379632.830    23379636.460    -9173903.510 9    309905.996 9
 89 11 27  9 51 59.0800000  0  4G 2G 6G11G 9
  23997979.329    23997984.958     8171413.387 8   4869024.240 9
  21068185.648    21068189.223    -3737112.690 9  -4277994.014 9
  22108995.717    22109001.136    -8428667.807 9  -7979467.189 9
  23363282.954    23363287.967    -9259819.647 8    242958.362 9
 89 11 27  9 52 29.0800000  0  4G 2G 6G11G 9
  24013392.950    24013398.172     8252406.480 9   4932135.734 9
  21060133.797    21060137.957    -3779424.154 9  -4310963.976 8
  22092364.200    22092369.805    -8516071.311 9  -8047573.803 9
  23346936.953    23346942.240    -9345716.873 9    176025.503 8
 89 11 27  9 52 59.0800000  0  4G 2G 6G11G 9
  24028807.216    24028814.479     8333414.167 8   4995258.538 9
  21052124.696    21052129.325    -3821510.208 9  -4343758.294 9
  22075804.353    22075810.159    -8603091.053 9  -8115381.364 9
  23330595.693    23330600.616    -9431594.321 9    109108.007 9
 89 11 27  9 53 29.0800000  0  4G 2G 6G11G 9
  24044225.800    24044232.027     8414436.626 9   5058392.907 8
  21044160.468    21044162.971    -3863368.803 9  -4376375.378 9
  22059319.296    22059324.405    -8689724.426 9  -8182887.872 9
  23314256.797    23314262.476    -9517450.488 8     42207.140 9
 89 11 27  9 53 59.0800000  0  4G 2G 6G11G 9
  24059646.298    24059652.608     8495473.487 8   5121538.477 9
  21036238.008    21036242.454    -3904997.811 9  -4408813.569 9
  22042907.855    22042912.406    -8775969.118 9  -8250091.518 9
  23297922.656    23297928.048    -9603284.220 9    -24676.265 8
 89 11 27  9 54 29.0800000  0  4G 2G 6G11G 9
  24075070.915    24075074.740     8576523.942 9   5184694.631 9
  21028360.258    21028363.384    -3946395.464 9  -4441071.473 9
  22026570.249    22026575.105    -8861822.413 9  -8316990.180 9
  23281594.413    23281598.827    -9689093.660 8    -91540.752 9
 89 11 27  9 54 59.0800000  0  4G 2G 6G11G 9
  24090496.895    24090500.656     8657587.571 9   5247861.062 8
  21020525.203    21020531.130    -3987559.818 9  -4473147.588 8
  22010308.091    22010312.451    -8947282.072 9  -8383582.113 9
  23265270.682    23265273.990    -9774877.899 9   -158385.613 9
 89 11 27  9 55 29.0800000  0  4G 2G 6G11G 9
  24105926.084    24105928.044     8738664.516 9   5311037.856 8
  21012737.960    21012743.120    -4028488.723 9  -4505040.235 9
  21994120.063    21994125.010    -9032345.426 9  -8449865.225 9
  23248951.592    23248956.181    -9860635.321 9   -225209.584 8
 89 11 27  9 55 59.0800000  0  4G 2G 6G11G 9
  24121356.242    24121360.375     8819753.736 8   5374224.216 9
  21004994.996    21004999.068    -4069180.758 8  -4536748.298 9
  21978008.791    21978013.647    -9117010.480 9  -8515837.971 9
  23232638.221    23232641.751    -9946364.967 9   -292011.858 9
 89 11 27  9 56 29.0800000  0  4G 2G 6G11G 9
  24136788.542    24136792.571     8900854.627 8   5437419.684 8
  20997297.320    20997300.321    -4109633.672 9  -4568270.041 8
  21961973.968    21961978.371    -9201274.680 9  -8581498.367 8
  23216329.728    23216333.610   -10032065.229 9   -358791.274 8
 89 11 27  9 56 59.0800000  0  4G 2G 6G11G 9
  24152222.429    24152228.520     8981966.833 9   5500623.931 8
  20989645.030    20989649.046    -4149845.470 9  -4599603.900 9
  21946016.147    21946020.307    -9285135.577 9  -8646844.512 9
  23200027.749    23200031.026   -10117734.646 9   -425546.632 9
 89 11 27  9 57 29.0800000  0  4G 2G 6G11G 9
  24167660.175    24167663.920     9063089.770 8   5563836.602 8
  20982039.967    20982042.623    -4189814.391 9  -4630748.482 9
  21930134.986    21930139.756    -9368590.863 9  -8711874.602 9
  23183731.327    23183734.380   -10203372.015 9   -492277.010 9
 89 11 27  9 57 59.0800000  0  4G 2G 6G11G 9
  24183099.212    24183103.133     9144223.145 9   5627057.388 8
  20974479.875    20974483.280    -4229538.550 9  -4661702.371 9
  21914330.655    21914337.233    -9451638.387 9  -8776586.940 9
  23167441.886    23167444.802   -10288975.820 9   -558981.252 9
 89 11 27  9 58 29.0800000  0  4G 2G 6G11G 9
  24198540.531    24198545.235     9225366.642 9   5690286.032 9
  20966968.839    20966970.551    -4269015.714 8  -4692463.771 8
  21898605.644    21898611.035    -9534275.466 9  -8840979.447 9
  23151158.137    23151161.214   -10374544.628 9   -625658.232 8
 89 11 27  9 58 59.0800000  0  4G 2G 6G11G 9
  24213981.867    24213988.482     9306519.905 8   5753522.287 8
  20959502.752    20959505.668    -4308244.132 9  -4723031.386 8
  21882958.772    21882964.792    -9616500.161 9  -8905050.617 9
  23134882.065    23134886.316   -10460077.166 9   -692306.969 9
 89 11 27  9 59 29.0800000  0  4G 2G 6G11G 9
  24229429.049    24229434.237     9387682.509 9   5816765.869 8
  20952084.904    20952089.239    -4347221.629 9  -4753403.470 9
  21867390.982    21867397.345    -9698310.182 9  -8968798.661 9
  23118612.769    23118616.530   -10545571.492 9   -758925.871 9
 89 11 27  9 59 59.0800000  0  4G 2G 6G11G 9
  24244876.222    24244880.082     9468853.679 9   5880016.104 9
  20944716.445    20944720.204    -4385946.346 9  -4783578.550 8
  21851903.170    21851908.747    -9779702.942 9  -9032221.561 9
  23102351.236    23102353.591   -10631026.384 9   -825514.099 8
 89 11 27 10  0 29.0800000  0  4G 2G 6G11G 9
  24260323.342    24260328.153     9550032.993 9   5943272.647 8
  20937396.089    20937399.672    -4424416.244 9  -4813555.074 9
  21836493.592    21836499.021    -9860676.171 9  -9095317.563 9
  23086097.455    23086101.090   -10716440.597 9   -892070.596 9
 89 11 27 10  0 59.0800000  0  4G 2G 6G11G 9
  24275772.688    24275777.091     9631220.429 9   6006535.549 9
  20930124.956    20930127.997    -4462629.452 9  -4843331.590 9
  21821164.889    21821171.887    -9941227.548 9  -9158084.854 8
  23069851.571    23069856.766   -10801812.438 9   -958594.107 9
 89 11 27 10  1 29.0800000  0  4G 2G 6G11G 9
  24291223.222    24291228.962     9712415.582 9   6069804.429 8
  20922901.047    20922904.887    -4500583.983 8  -4872906.527 8
  21805917.644    21805923.416   -10021354.728 9  -9220521.597 9
  23053614.099    23053618.451   -10887140.311 9  -1025083.298 9
 89 11 27 10  1 59.0800000  0  4G 2G 6G11G 9
  24306676.810    24306681.570     9793617.948 8   6133078.967 7
  20915728.203    20915731.204    -4538277.673 9  -4902278.242 7
  21790750.873    21790756.216   -10101055.646 9  -9282626.191 9
  23037385.331    23037389.616   -10972422.640 9  -1091537.047 8
 89 11 27 10  2 29.0800000  0  4G 2G 6G11G 9
  24322130.705    24322133.436     9874827.275 8   6196358.943 9
  20908606.236    20908608.907    -4575708.617 9  -4931445.217 8
  21775665.561    21775672.172   -10180328.302 9  -9344397.059 9
  23021164.781    23021170.404   -11057658.091 8  -1157954.296 8
 89 11 27 10  2 59.0800000  0  4G 2G 6G11G 9
  24337584.632    24337589.397     9956042.607 8   6259643.547 9
  20901533.389    20901537.939    -4612874.941 9  -4960405.968 8
  21760662.697    21760668.942   -10259170.336 9  -9405832.389 9
  23004954.613    23004959.263   -11142845.319 9  -1224333.922 9
 89 11 27 10  3 29.0800000  0  4G 2G 6G11G 9
  24353039.655    24353045.115    10037263.622 8   6322932.624 8
  20894511.750    20894514.871    -4649775.032 9  -4989159.295 9
  21745741.176    21745747.536   -10337580.098 9  -9466930.878 9
  22988750.475    22988757.217   -11227982.947 9  -1290674.930 9
 89 11 27 10  3 59.0800000  0  4G 2G 6G11G 9
  24368497.148    24368502.939    10118491.138 7   6386226.751 9
  20887540.454    20887545.624    -4686406.023 9  -5017702.927 9
  21730903.288    21730909.332   -10415554.349 9  -9527690.016 9
  22972561.986    22972567.459   -11313068.736 8  -1356975.510 9
 89 11 27 10  4 29.0800000  0  4G 2G 6G11G 9
  24383954.473    24383959.476    10199723.335 8   6449524.510 9
  20880620.126    20880624.447    -4722766.383 9  -5046035.653 9
  21716149.119    21716154.433   -10493091.428 9  -9588108.500 9
  22956381.836    22956386.493   -11398101.328 8  -1423234.613 9
 89 11 27 10  4 59.0800000  0  4G 2G 6G11G 9
  24399413.274    24399419.840    10280960.386 7   6512826.036 9
  20873753.686    20873757.943    -4758854.132 9  -5074155.977 9
  21701477.341    21701484.177   -10570189.072 9  -9648184.568 9
  22940210.914    22940214.443   -11483079.285 9  -1489451.181 9
 89 11 27 10  5 29.0800000  0  4G 2G 6G11G 9
  24414872.652    24414879.329    10362202.665 8   6576131.664 9
  20866939.458    20866942.442    -4794666.818 9  -5102061.955 9
  21686890.389    21686896.595   -10646845.393 9  -9707916.757 9
  22924050.620    22924054.969   -11568000.665 9  -1555623.667 9
 89 11 27 10  5 59.0800000  0  4G 2G 6G11G 9
  24430334.089    24430339.942    10443449.027 8   6639440.463 9
  20860177.957    20860180.614    -4830202.741 9  -5129752.272 9
  21672387.918    21672393.547   -10723058.226 9  -9767303.351 9
  22907901.300    22907905.989   -11652864.110 9  -1621751.013 9
 89 11 27 10  6 29.0800000  0  4G 2G 6G11G 9
  24445795.184    24445801.099    10524699.434 8   6702752.426 9
  20853467.225    20853472.212    -4865460.051 9  -5157225.504 9
  21657970.473    21657973.970   -10798825.651 9  -9826342.871 9
  22891763.962    22891767.882   -11737668.060 9  -1687831.976 9
 89 11 27 10  6 59.0800000  0  4G 2G 6G11G 9
  24461258.613    24461263.641    10605952.905 8   6766066.775 8
  20846812.128    20846816.282    -4900436.740 9  -5184480.071 9
  21643636.611    21643642.093   -10874145.608 9  -9885033.738 9
  22875638.275    22875641.805   -11822411.053 9  -1753865.433 9
 89 11 27 10  7 29.0800000  0  4G 2G 6G11G 9
  24476721.146    24476727.160    10687210.256 9   6829384.148 9
  20840209.786    20840213.496    -4935130.446 9  -5211514.084 8
  21629388.634    21629395.651   -10949015.828 9  -9943374.137 8
  22859523.376    22859527.880   -11907091.025 9  -1819849.814 9
 89 11 27 10  7 59.0800000  0  4G 2G 6G11G 9
  24492184.739    24492190.258    10768470.223 9   6892703.515 8
  20833663.082    20833665.193    -4969539.209 8  -5238326.099 9
  21615228.029    21615234.145   -11023434.015 9 -10001362.311 9
  22843421.787    22843426.277   -11991706.489 9  -1885783.907 9
 89 11 27 10  8 29.0800000  0  4G 2G 6G11G 9
  24507647.337    24507654.477    10849733.139 8   6956025.251 9
  20827169.187    20827173.083    -5003660.918 9  -5264914.454 8
  21601153.727    21601158.550   -11097398.236 9 -10058996.740 9
  22827334.074    22827336.462   -12076255.585 9  -1951666.324 9
 89 11 27 10  8 59.0800000  0  3G 6G11G 9
  20820731.428    20820734.848    -5037494.091 9  -5291277.956 9
  21587164.460    21587170.275   -11170907.124 9 -10116276.371 9
  22811257.812    22811260.689   -12160736.984 9  -2017495.974 8
 89 11 27 10  9 29.0800000  0  3G 6G11G 9
  20814348.236    20814351.143    -5071036.566 9  -5317414.958 7
  21573263.099    21573268.619   -11243958.425 9 -10173199.433 9
  22795194.468    22795197.079   -12245149.335 9  -2083271.784 8
 89 11 27 10  9 59.0800000  0  3G 6G11G 9
  20808020.482    20808025.140    -5104285.834 9  -5343323.491 9
  21559449.883    21559455.751   -11316549.658 9 -10229764.023 9
  22779144.568    22779148.302   -12329490.170 9  -2148991.892 9
 89 11 27 10 10 29.0800000  0  3G 6G11G 9
  20801750.771    20801753.696    -5137240.027 9  -5369002.043 9
  21545724.306    21545730.732   -11388679.053 9 -10285968.715 9
  22763108.903    22763112.644   -12413758.052 9  -2214655.171 9
 89 11 27 10 10 59.0800000  0  3G 6G11G 9
  20795534.446    20795538.786    -5169897.177 9  -5394449.180 8
  21532086.644    21532091.849   -11460344.829 9 -10341812.155 9
  22747086.976    22747090.576   -12497951.130 9  -2280260.130 8
 89 11 27 10 11 29.0800000  0  3G 6G11G 9
  20789378.426    20789381.306    -5202255.370 9  -5419663.340 9
  21518538.348    21518543.372   -11531545.016 9 -10397292.803 9
  22731081.091    22731083.892   -12582068.030 9  -2345805.774 8
 89 11 27 10 11 59.0800000  0  3G 6G11G 9
  20783277.084    20783280.232    -5234312.764 9  -5444643.110 8
  21505077.845    21505083.316   -11602278.114 9 -10452409.486 9
  22715088.167    22715091.583   -12666106.949 9  -2411290.608 8
 89 11 27 10 12 29.0800000  0  3G 6G11G 9
  20777234.684    20777237.747    -5266066.993 9  -5469386.655 8
  21491707.126    21491712.316   -11672541.861 9 -10507160.441 9
  22699110.721    22699114.819   -12750065.939 9  -2476713.206 8
 89 11 27 10 12 59.0800000  0  3G 6G11G 9
  20771250.459    20771254.584    -5297515.358 9  -5493891.889 8
  21478426.221    21478431.454   -11742333.817 9 -10561543.768 8
  22683150.140    22683153.286   -12833942.512 9  -2542071.569 8
 89 11 27 10 13 29.0800000  0  3G 6G11G 9
  20765325.121    20765328.113    -5328656.897 9  -5518158.018 9
  21465235.359    21465240.578   -11811653.074 9 -10615558.763 9
  22667204.492    22667207.405   -12917736.102 9  -2607365.284 8
 89 11 27 10 13 59.0800000  0  3G 6G11G 9
  20759456.327    20759461.483    -5359490.023 9  -5542183.860 8
  21452133.701    21452138.681   -11880498.162 9 -10669204.262 9
  22651275.155    22651279.557   -13001445.068 9  -2672593.062 8
 89 11 27 10 14 29.0800000  0  3G 6G11G 9
  20753649.542    20753653.244    -5390010.754 9  -5565966.240 9
  21439124.060    21439128.711   -11948865.712 9 -10722477.652 9
  22635362.871    22635367.269   -13085065.939 9  -2737752.144 8
 89 11 27 10 14 59.0800000  0  3G 6G11G 9
  20747899.565    20747903.691    -5420218.362 9  -5589504.604 8
  21426204.806    21426210.163   -12016754.809 9 -10775378.216 8
  22619466.983    22619470.689   -13168598.027 9  -2802842.060 8
 89 11 27 10 15 29.0800000  0  3G 6G11G 9
  20742213.145    20742217.925    -5450110.917 8  -5612797.501 8
  21413378.123    21413382.083   -12084163.788 9 -10827904.673 8
  22603589.357    22603591.570   -13252039.645 9  -2867861.494 8
 89 11 27 10 15 59.0800000  0  3G 6G11G 9
  20736584.606    20736587.857    -5479686.019 9  -5635843.007 8
  21400642.656    21400646.954   -12151090.980 9 -10880055.703 9
  22587727.227    22587730.623   -13335388.661 9  -2932808.748 8
 89 11 27 10 16 29.0800000  0  3G 6G11G 9
  20731018.326    20731021.348    -5508941.395 9  -5658639.411 9
  21387998.062    21388003.768   -12217534.125 9 -10931829.567 8
  22571884.165    22571888.389   -13418643.165 9  -2997682.379 8
 89 11 27 10 16 59.0800000  0  3G 6G11G 9
  20725510.260    20725515.284    -5537874.912 9  -5681185.007 9
  21375446.392    21375451.763   -12283491.317 9 -10983224.755 9
  22556060.007    22556064.094   -13501800.764 9  -3062480.473 8
 89 11 27 10 17 29.0800000  0  3G 6G11G 9
  20720066.238    20720068.886    -5566485.054 8  -5703478.609 9
  21362987.732    21362994.300   -12348961.575 9 -11034240.528 8
  22540253.816    22540258.692   -13584860.368 9  -3127202.230 9
 89 11 27 10 17 59.0800000  0  3G 6G11G 9
  20714683.886    20714689.544    -5594770.122 9  -5725518.931 8
  21350621.938    21350627.648   -12413943.512 9 -11084875.781 9
  22524466.703    22524473.040   -13667820.356 9  -3191846.348 8
 89 11 27 10 18 29.0800000  0  3G 6G11G 9
  20709363.198    20709368.295    -5622727.381 9  -5747303.801 8
  21338350.623    21338355.937   -12478434.672 9 -11135128.607 8
  22508699.976    22508704.351   -13750678.264 9  -3256410.921 8
 89 11 27 10 18 59.0800000  0  3G 6G11G 9
  20704107.252    20704109.728    -5650354.894 9  -5768831.733 8
  21326172.432    21326177.250   -12542433.505 9 -11184997.798 9
  22492952.538    22492957.612   -13833432.279 9  -3320894.573 8
 89 11 27 10 19 29.0800000  0  3G 6G11G 9
  20698912.047    20698918.800    -5677650.708 9  -5790101.190 8
  21314086.927    21314092.227   -12605938.473 9 -11234482.167 9
  22477225.362    22477229.684   -13916080.374 9  -3385295.683 8
 89 11 27 10 19 59.0800000  0  3G 6G11G 9
  20693783.012    20693784.487    -5704612.701 8  -5811110.536 8
  21302097.207    21302101.458   -12668948.143 9 -11283580.593 9
  22461518.712    22461522.655   -13998620.572 9  -3449612.721 9
 89 11 27 10 20 29.0800000  0  4G13G 6G11G 9
                  24581961.749   -25867883.836 9
  20688714.737    20688719.452    -5731239.700 9  -5831858.837 8
  21290201.287    21290206.418   -12731461.684 9 -11332292.423 8
  22445831.430    22445837.109   -14081051.880 9  -3513844.877 9
 89 11 27 10 20 59.0800000  0  4G13G 6G11G 9
  24559472.123    24559479.431   -25986189.962 9  32842191.669 7
  20683713.536    20683714.985    -5757528.221 9  -5852343.400 9
  21278399.815    21278405.072   -12793476.328 9 -11380615.518 9
  22430167.451    22430171.357   -14163370.725 9  -3577989.367 9
 89 11 27 10 21 29.0800000  0  4G13G 6G11G 9
  24536980.219    24536986.027   -26104387.125 9  32750090.047 8
  20678775.305    20678779.176    -5783476.425 9  -5872562.821 8
  21266693.522    21266699.508   -12854990.444 9 -11428548.567 8
  22414524.515    22414528.313   -14245575.603 9  -3642045.085 8
 89 11 27 10 21 59.0800000  0  4G13G 6G11G 9
  24514509.377    24514515.003   -26222473.351 8  32658074.889 9
  20673901.780    20673906.701    -5809082.808 9  -5892515.805 9
  21255083.742    21255088.795   -12916002.762 9 -11476090.613 9
  22398904.422    22398905.451   -14327664.781 8  -3706010.664 8
 89 11 27 10 22 29.0800000  0  4G13G 6G11G 9
  24492060.199    24492064.817   -26340446.368 8  32566147.927 8
  20669093.466    20669098.096    -5834345.137 8  -5912200.750 8
  21243568.459    21243574.202   -12976511.873 9 -11523240.552 8
  22383304.735    22383307.487   -14409636.389 9  -3769884.618 8
 89 11 27 10 22 59.0800000  0  4G13G 6G11G 9
  24469633.210    24469637.632   -26458303.632 9  32474311.168 8
  20664353.607    20664358.378    -5859261.510 9  -5931616.087 9
  21232148.705    21232155.541   -13036516.395 9 -11569997.308 8
  22367729.846    22367731.938   -14491488.106 9  -3833665.165 8
 89 11 27 10 23 29.0800000  0  4G13G 6G11G 9
  24447227.116    24447233.100   -26576042.866 8  32382566.364 8
  20659676.634    20659681.048    -5883830.148 9  -5950760.483 9
  21220827.157    21220835.026   -13096015.267 9 -11616360.023 8
  22352176.212    22352179.712   -14573218.537 9  -3897351.213 8
 89 11 27 10 23 59.0800000  0  4G13G 6G11G 9
  24424845.220    24424851.013   -26693661.201 9  32290915.794 8
  20655069.991    20655074.723    -5908048.630 9  -5969632.038 8
  21209602.042    21209608.475   -13155006.438 9 -11662327.159 8
  22336646.695    22336650.009   -14654825.040 9  -3960940.702 8
 89 11 27 10 24 29.0800000  0  4G13G 6G11G 9
  24402486.429    24402491.600   -26811155.862 8  32199361.554 7
  20650528.128    20650529.523    -5931915.038 9  -5988229.203 8
  21198473.342    21198480.007   -13213488.403 9 -11707897.499 8
  22321142.394    22321145.141   -14736305.751 9  -4024432.164 8
 89 11 27 10 24 59.0800000  0  4G13G 6G11G 9
  24380151.849    24380157.794   -26928524.010 9  32107905.899 7
  20646052.885    20646059.218    -5955427.342 8  -6006550.505 8
  21187442.535    21187447.059   -13271459.842 9 -11753070.035 9
  22305661.253    22305664.125   -14817658.677 9  -4087824.046 8
 89 11 27 10 25 29.0800000  0  4G13G 6G11G 9
  24357841.587    24357847.154   -27045763.295 9  32016550.660 8
  20641648.049    20641650.413    -5978583.788 9  -6024594.431 8
  21176507.753    21176512.784   -13328919.759 9 -11797843.980 8
  22290204.563    22290208.429   -14898881.817 9  -4151114.785 8
 89 11 27 10 25 59.0800000  0  4G13G 6G11G 9
  24335557.039    24335562.051   -27162871.061 9  31925297.885 8
  20637307.172    20637312.672    -6001382.017 9  -6042359.325 8
  21165670.789    21165677.156   -13385866.631 9 -11842218.141 9
  22274772.351    22274776.887   -14979973.070 9  -4214302.779 9
 89 11 27 10 26 29.0800000  0  4G13G 6G11G 9
  24313297.899    24313303.278   -27279844.470 9  31834149.811 8
  20633041.032    20633042.381    -6023820.108 9  -6059843.546 9
  21154932.101    21154938.227   -13442299.120 9 -11886191.490 8
  22259366.281    22259371.995   -15060930.225 9  -4277386.273 9
 89 11 27 10 26 59.0800000  0  4G13G 6G11G 9
  24291065.239    24291070.571   -27396681.279 9  31743108.164 8
  20628838.066    20628842.438    -6045896.054 9  -6077045.593 9
  21144292.798    21144296.306   -13498216.018 9 -11929763.062 8
  22243986.790    22243991.060   -15141751.242 9  -4340363.645 8
 89 11 27 10 27 29.0800000  0  4G13G 6G11G 9
  24268857.831    24268863.248   -27513378.825 9  31652175.031 8
  20624706.775    20624710.745    -6067608.139 9  -6093964.097 8
  21133749.957    21133755.317   -13553616.137 9 -11972931.977 8
  22228634.661    22228639.367   -15222434.227 9  -4403233.479 8
 89 11 27 10 27 59.0800000  0  4G13G 6G11G 9
  24246678.916    24246682.647   -27629934.569 9  31561352.393 8
  20620644.510    20620647.650    -6088954.688 9  -6110597.777 9
  21123305.557    21123310.507   -13608498.178 9 -12015697.171 8
  22213307.333    22213311.942   -15302977.462 9  -4465994.436 9
 89 11 27 10 28 29.0800000  0  4G13G 6G11G 9
  24224526.388    24224530.080   -27746345.792 9  31470642.352 7
  20616652.091    20616657.195    -6109932.768 8  -6126944.335 9
  21112961.482    21112965.285   -13662860.463 9 -12058057.386 9
  22198008.319    22198012.932   -15383378.051 9  -4528644.222 9
 89 11 27 10 28 59.0800000  0  4G13G 6G11G 9
  24202401.417    24202406.936   -27862609.190 9  31380047.515 8
  20612731.589    20612734.647    -6130540.730 9  -6143002.465 9
  21102716.426    21102721.548   -13716701.526 9 -12100011.448 9
  22182735.645    22182739.154   -15463633.961 9  -4591181.279 8
 89 11 27 10 29 29.0800000  0  4G13G 6G11G 9
  24180306.451    24180311.140   -27978722.845 9  31289569.359 6
  20608878.897    20608885.076    -6150776.668 8  -6158770.722 9
  21092570.013    21092574.642   -13770020.558 9 -12141558.727 8
  22167492.026    22167494.703   -15543743.162 9  -4653604.033 8
 89 11 27 10 29 59.0800000  0  4G13G 6G11G 9
  24158238.872    24158244.093   -28094684.913 9  31199209.317 7
  20605098.998    20605103.014    -6170639.178 8  -6174248.004 8
  21082521.949    21082526.870   -13822817.027 9 -12182698.816 8
  22152274.635    22152279.144   -15623704.020 9  -4715911.182 8
 89 11 27 10 30 29.0800000  0  4G13G 6G11G 9
  24136202.226    24136207.009   -28210491.433 9  31108970.510 8
  20601392.907    20601396.393    -6190125.341 9  -6189432.026 8
  21072574.919    21072580.774   -13875088.729 9 -12223429.979 9
  22137087.587    22137091.123   -15703513.611 9  -4778100.462 8
 89 11 27 10 30 59.0800000  0  4G13G 6G11G 9
  24114194.527    24114200.151   -28326139.675 9  31018855.000 8
  20597755.655    20597758.481    -6209233.573 9  -6204321.553 8
  21062728.283    21062732.604   -13926835.170 9 -12263751.856 9
  22121929.022    22121934.108   -15783169.968 9  -4840170.336 8
 89 11 27 10 31 29.0800000  0  4G13G 6G11G 9
  24092217.400    24092223.807   -28441627.723 8  30928864.332 8
  20594192.154    20594195.239    -6227961.991 9  -6218915.114 8
  21052981.439    21052985.256   -13978055.060 9 -12303663.428 9
  22106800.795    22106805.387   -15862671.058 9  -4902119.192 9
 89 11 27 10 31 59.0800000  0  4G13G 6G11G 9
  24070271.604    24070278.335   -28556952.654 8  30839000.790 8
  20590700.523    20590703.999    -6246308.355 8  -6233211.009 9
  21043335.303    21043340.191   -14028747.283 9 -12343163.845 9
  22091702.573    22091704.819   -15942014.585 9  -4963945.295 7
 89 11 27 10 32 29.0800000  0  4G13G 6G11G 9
  24048358.245    24048363.476   -28672112.281 9  30749266.041 9
  20587282.490    20587285.993    -6264271.070 9  -6247207.929 8
  21033790.213    21033793.747   -14078910.786 9 -12382252.267 8
  22076634.065    22076638.035   -16021198.402 9  -5025646.978 9
 89 11 27 10 32 59.0800000  0  4G13G 6G11G 9
  24026476.278    24026480.760   -28787104.278 8  30659661.913 9
  20583936.891    20583941.449    -6281847.897 9  -6260904.156 9
  21024343.594    21024349.113   -14128544.490 9 -12420927.855 8
  22061596.330    22061600.921   -16100220.295 9  -5087222.463 8
 89 11 27 10 33 29.0800000  0  4G13G 6G11G 9
  24004626.690    24004630.750   -28901925.298 9  30570191.013 9
  20580666.425    20580670.656    -6299037.148 9  -6274298.357 7
  21015000.412    21015004.930   -14177647.377 9 -12459189.830 8
  22046590.730    22046595.278   -16179077.885 9  -5148669.911 8
 89 11 27 10 33 59.0800000  0  4G13G 6G11G 9
  23982809.866    23982814.907   -29016573.416 9  30480854.844 8
  20577471.347    20577473.412    -6315837.072 9  -6287389.199 9
  21005756.828    21005762.554   -14226218.885 9 -12497037.751 8
  22031615.689    22031620.308   -16257769.480 9  -5209987.995 8
 89 11 27 10 34 29.0800000  0  4G13G 6G11G 9
  23961025.868    23961030.082   -29131046.214 9  30391655.288 8
  20574347.349    20574351.292    -6332245.760 9  -6300175.198 7
  20996616.849    20996621.015   -14274257.749 9 -12534470.614 9
  22016673.511    22016677.545   -16336292.798 9  -5271174.976 9
 89 11 27 10 34 59.0800000  0  4G13G 6G11G 9
  23939276.580    23939282.117   -29245340.562 9  30302594.791 9
  20571300.011    20571304.381    -6348260.988 9  -6312654.586 8
  20987576.043    20987580.527   -14321762.822 9 -12571487.534 8
  22001763.046    22001767.501   -16414645.217 9  -5332228.772 9
 89 11 27 10 35 29.0800000  0  4G13G 6G11G 9
  23917562.456    23917567.220   -29359453.072 9  30213675.972 9
  20568327.749    20568331.593    -6363880.590 8  -6324825.705 8
  20978638.636    20978642.848   -14368732.867 9 -12608087.547 8
  21986887.335    21986891.280   -16492824.365 9  -5393147.551 8
 89 11 27 10 35 59.0800000  0  4G13G 6G11G 9
  23895882.618    23895886.577   -29473382.074 9  30124900.150 9
  20565430.697    20565435.326    -6379102.913 8  -6336687.256 9
  20969802.395    20969806.220   -14415167.287 9 -12644270.183 8
  21972042.547    21972047.056   -16570828.017 9  -5453929.598 9
 89 11 27 10 36 29.0800000  0  4G13G 6G11G 9
  23874237.616    23874242.188   -29587125.288 9  30036269.093 8
  20562610.244    20562614.273    -6393925.980 9  -6348237.687 8
  20961068.035    20961072.508   -14461065.319 9 -12680034.883 9
  21957232.798    21957236.712   -16648654.092 9  -5514573.241 9
 89 11 27 10 36 59.0800000  0  4G13G 6G11G 9
  23852628.780    23852633.540   -29700679.910 9  29947784.979 9
  20559865.284    20559869.971    -6408348.183 9  -6359475.774 8
  20952436.140    20952441.277   -14506426.034 9 -12715380.867 8
  21942457.402    21942461.672   -16726300.325 9  -5575076.753 8
 89 11 27 10 37 29.0800000  0  4G13G 6G11G 9
  23831055.515    23831061.264   -29814043.801 9  29859449.485 8
  20557196.952    20557201.223    -6422367.454 9  -6370399.871 9
  20943906.391    20943910.872   -14551248.455 9 -12750307.415 9
  21927717.188    21927720.415   -16803764.295 9  -5635438.271 8
 89 11 27 10 37 59.0800000  0  4G13G 6G11G 9
  23809519.847    23809526.099   -29927213.439 9  29771265.380 8
  20554606.061    20554610.776    -6435981.795 9  -6381008.436 8
  20935478.860    20935485.081   -14595531.700 8 -12784813.825 8
  21913010.682    21913014.731   -16881043.774 9  -5695656.048 9
 89 11 27 10 38 29.0800000  0  4G13G 6G11G 9
  23788022.279    23788027.273   -30040186.711 9  29683234.256 9
  20552093.697    20552095.333    -6449189.455 9  -6391300.109 8
  20927154.293    20927160.751   -14639275.150 9 -12818899.595 9
  21898340.776    21898344.798   -16958136.376 9  -5755728.229 9
 89 11 27 10 38 59.0800000  0  4G13G 6G11G 9
  23766562.763    23766567.145   -30152961.377 9  29595357.914 8
  20549658.435    20549660.230    -6461988.659 9  -6401273.530 7
  20918933.066    20918938.097   -14682478.094 9 -12852564.204 8
  21883706.490    21883710.828   -17035040.071 9  -5815653.147 9
 89 11 27 10 39 29.0800000  0  4G13G 6G11G 9
  23745140.861    23745145.065   -30265535.508 9  29507637.797 8
  20547299.909    20547304.940    -6474378.089 9  -6410927.666 7
  20910815.856    20910820.152   -14725140.412 9 -12885807.560 9
  21869108.587    21869112.314   -17111752.838 9  -5875429.298 9
 89 11 27 10 39 59.0800000  0  4G13G 6G11G 9
  23723756.392    23723762.070   -30377904.641 9  29420077.441 7
  20545021.717    20545026.347    -6486354.618 9  -6420260.017 9
  20902800.035    20902805.166   -14767259.769 9 -12918627.814 7
  21854547.126    21854550.943   -17188271.212 9  -5935054.000 8
 89 11 27 10 40 29.0800000  0  4G13G 6G11G 9
  23702412.495    23702418.305   -30490067.987 9  29332677.440 9
  20542821.208    20542824.908    -6497917.075 9  -6429269.727 8
  20894888.500    20894892.389   -14808836.203 9 -12951025.013 8
  21840024.036    21840026.702   -17264593.459 9  -5994525.861 8
 89 11 27 10 40 59.0800000  0  4G13G 6G11G 9
  23681109.255    23681114.068   -30602022.258 9  29245440.336 8
  20540699.873    20540702.571    -6509063.368 9  -6437955.146 7
  20887080.918    20887084.280   -14849868.970 9 -12982998.582 9
  21825538.297    21825540.727   -17340716.801 9  -6053842.746 8
 89 11 27 10 41 29.0800000  0  4G13G 6G11G 9
  23659845.000    23659849.281   -30713764.889 9  29158368.153 8
  20538660.885    20538663.169    -6519791.925 1  -6446315.037 1
  20879376.722    20879380.420   -14890357.805 9 -13014548.312 8
  21811090.878    21811093.847   -17416639.533 9  -6113003.279 9
 89 11 27 10 41 59.0800000  0  4G13G 6G11G 9
  23638620.920    23638626.601   -30825293.511 9  29071462.743 8
  20536695.565    20536698.842    -6530101.115 9  -6454348.160 8
  20871774.229    20871778.777   -14930301.934 9 -13045673.583 8
  21796682.065    21796685.664   -17492358.867 9  -6172005.356 9
 89 11 27 10 42 29.0800000  0  4G13G 6G11G 9
  23617438.736    23617444.462   -30936605.796 8  28984725.874 9
  20534815.613    20534819.059    -6539989.203 9  -6462053.168 8
  20864277.416    20864281.455   -14969700.902 9 -13076374.057 8
  21782312.303    21782315.373   -17567873.028 9  -6230847.557 9
 89 11 27 10 42 59.0800000  0  4G13G 6G11G 9
  23596298.866    23596303.462   -31047699.058 8  28898159.712 8
  20533014.180    20533017.467    -6549454.208 9  -6469428.500 8
  20856884.740    20856888.123   -15008553.818 8 -13106649.040 8
  21767981.360    21767985.633   -17643179.230 9  -6289527.717 9
 89 11 27 10 43 29.0800000  0  4G13G 6G11G 9
  23575199.669    23575205.374   -31158570.856 9  28811766.116 8
  20531293.683    20531297.238    -6558494.198 9  -6476472.647 8
  20849594.740    20849598.549   -15046859.973 9 -13136497.974 8
  21753691.558    21753695.357   -17718275.034 9  -6348043.898 8
 89 11 27 10 43 59.0800000  0  4G13G 6G11G 9
  23554144.966    23554149.798   -31269218.614 9  28725547.087 9
  20529654.425    20529657.141    -6567107.753 9  -6483184.492 8
  20842408.354    20842414.163   -15084619.084 9 -13165920.647 9
  21739441.105    21739446.093   -17793158.248 9  -6406394.440 9
 89 11 27 10 44 29.0800000  0  4G13G 6G11G 9
  23533132.978    23533137.673   -31379640.495 9  28639504.067 8
  20528096.742    20528100.595    -6575293.065 9  -6489562.646 8
  20835327.641    20835332.555   -15121830.979 9 -13194916.901 8
  21725231.677    21725235.863   -17867826.589 9  -6464577.528 8
 89 11 27 10 44 59.0800000  0  4G13G 6G11G 9
  23512163.142    23512169.828   -31489833.058 9  28553639.733 9
  20526621.533    20526623.748    -6583047.858 9  -6495605.336 8
  20828350.588    20828355.575   -15158494.295 9 -13223485.711 8
  21711066.293    21711068.075   -17942276.933 9  -6522590.761 9
 89 11 27 10 45 29.0800000  0  4G13G 6G11G 9
  23491239.584    23491243.966   -31599794.476 9  28467955.529 8
  20525229.404    20525230.875    -6590370.859 9  -6501311.579 9
  20821479.235    20821483.109   -15194609.377 8 -13251627.308 9
  21696940.560    21696942.012   -18016507.320 9  -6580432.620 8
 89 11 27 10 45 59.0800000  0  4G13G 6G11G 9
  23470356.964    23470362.777   -31709523.150 9  28382452.658 8
  20523918.089    20523919.501    -6597261.185 9  -6506680.665 8
  20814709.733    20814715.040   -15230175.938 9 -13279341.481 8
  21682856.581    21682859.336   -18090516.266 9  -6638101.917 8
 89 11 27 10 46 29.0800000  0  4G13G 6G11G 9
  23449523.439    23449527.914   -31819014.740 9  28297134.515 9
  20522689.575    20522691.399    -6603715.418 9  -6511709.944 9
  20808047.409    20808051.883   -15265192.378 9 -13306627.006 8
  21668816.044    21668819.242   -18164299.706 9  -6695595.492 9
 89 11 27 10 46 59.0800000  0  4G13G 6G11G 9
  23428732.605    23428737.287   -31928267.448 9  28212002.545 9
  20521543.223    20521546.324    -6609732.256 9  -6516398.403 7
  20801489.029    20801492.629   -15299658.601 9 -13333483.786 9
  21654817.317    21654820.960   -18237855.645 8  -6752911.777 9
 89 11 27 10 47 29.0800000  0  4G13G 6G11G 9
  23407988.148    23407993.122   -32037279.926 9  28127057.763 8
  20520482.908    20520484.190    -6615310.566 9  -6520745.130 8
  20795033.913    20795039.502   -15333575.098 9 -13359912.221 7
  21640863.452    21640868.869   -18311182.063 9  -6810049.229 8
 89 11 27 10 47 59.0800000  0  4G13G 6G11G 9
  23387290.403    23387294.855   -32146048.860 9  28042302.741 9
  20519505.488    20519508.056    -6620448.667 9  -6524748.839 8
  20788684.747    20788688.855   -15366941.097 9 -13385911.687 9
  21626955.647    21626959.362   -18384276.538 9  -6867005.953 9
 89 11 27 10 48 29.0800000  0  4G13G 6G11G 9
  23366638.210    23366644.245   -32254571.515 9  27957739.631 9
  20518609.539    20518614.605    -6625144.357 8  -6528407.837 9
  20782441.136    20782444.661   -15399755.894 9 -13411481.645 8
  21613090.527    21613094.842   -18457136.036 9  -6923779.554 9
 89 11 27 10 48 59.0800000  0  4G13G 6G11G 9
  23346034.070    23346039.202   -32362845.603 9  27873370.211 8
  20517801.558    20517805.585    -6629396.159 8  -6531720.917 9
  20776300.863    20776305.092   -15432019.252 9 -13436621.910 8
  21599271.783    21599274.080   -18529758.287 9  -6980368.296 8
 89 11 27 10 49 29.0800000  0  4G13G 6G11G 9
  23325478.078    23325483.340   -32470868.724 9  27789196.353 9
  20517077.718    20517080.648    -6633202.692 9  -6534687.051 8
  20770265.353    20770272.184   -15463731.349 9 -13461332.616 9
  21585497.226    21585500.223   -18602141.053 9  -7036770.462 8
 89 11 27 10 49 59.0800000  0  4G13G 6G11G 9
  23304970.581    23304976.186   -32578638.908 9  27705219.593 9
  20516438.653    20516440.101    -6636562.321 9  -6537304.927 8
  20764336.104    20764341.150   -15494891.892 8 -13485613.553 8
  21571768.558    21571772.271   -18674282.024 9  -7092984.199 9
 89 11 27 10 50 29.0800000  0  4G13G 6G11G 9
  23284511.076    23284516.124   -32686154.037 9  27621441.572 9
  20515883.749    20515886.869    -6639473.253 9  -6539573.213 8
  20758512.150    20758516.130   -15525500.340 8 -13509464.287 8
  21558087.240    21558090.625   -18746178.366 9  -7149007.278 8
 89 11 27 10 50 59.0800000  0  4G13G 6G11G 9
  23264101.547    23264105.886   -32793411.155 9  27537864.596 9
  20515415.465    20515420.652    -6641933.870 9  -6541490.591 8
  20752792.173    20752795.917   -15555556.503 9 -13532884.666 8
  21544452.855    21544455.996   -18817827.834 9  -7204838.029 8
 89 11 27 10 51 29.0800000  0  4G13G 6G11G 9
  23243740.919    23243745.916   -32900408.181 9  27454490.285 8
  20515033.346    20515038.215    -6643943.011 9  -6543056.162 9
  20747178.234    20747182.303   -15585060.781 9 -13555874.999 8
  21530866.106    21530868.304   -18889228.100 9  -7260474.604 8
 89 11 27 10 51 59.0800000  0  4G13G 6G11G 9
  23223429.408    23223434.955   -33007143.063 9  27371320.248 9
  20514736.788    20514741.962    -6645499.234 9  -6544268.793 9
  20741668.081    20741674.157   -15614013.265 9 -13578435.367 7
  21517327.164    21517330.405   -18960377.044 9  -7315915.334 8
 89 11 27 10 52 29.0800000  0  4G13G 6G11G 9
  23203169.638    23203174.750   -33113611.557 8  27288357.788 9
  20514528.179    20514531.381    -6646599.497 9  -6545126.139 8
  20736263.009    20736267.894   -15642412.003 8 -13600564.236 8
  21503835.842    21503839.642   -19031270.498 9  -7371156.967 9
 89 11 27 10 52 59.0800000  0  4G13G 6G11G 9
  23182958.262    23182964.683   -33219812.768 9  27205603.589 8
  20514405.143    20514409.145    -6647242.972 9  -6545627.535 8
  20730964.710    20730970.364   -15670257.739 9 -13622262.187 9
  21490393.759    21490397.158   -19101906.660 9  -7426198.090 7
 89 11 27 10 53 29.0800000  0  4G13G 6G11G 9
  23162799.480    23162806.823   -33325743.966 8  27123059.812 8
  20514369.739    20514373.805    -6647428.054 9  -6545771.744 8
  20725771.373    20725776.383   -15697550.733 9 -13643529.442 8
  21477000.113    21477006.330   -19172283.229 9  -7481036.976 8
 89 11 27 10 53 59.0800000  0  4G13G 6G11G 9
  23142694.909    23142700.792   -33431403.324 9  27040727.850 9
  20514423.477    20514425.232    -6647153.789 9  -6545558.027 9
  20720683.071    20720688.117   -15724291.051 9 -13664366.047 9
  21463658.823    21463663.153   -19242398.115 8  -7535671.914 9
 89 11 27 10 54 29.0800000  0  4G13G 6G11G 9
  23122641.069    23122647.082   -33536787.476 9  26958610.348 9
  20514564.142    20514566.825    -6646417.810 8  -6544984.547 9
  20715700.898    20715704.459   -15750478.096 8 -13684771.512 8
  21450366.915    21450371.888   -19312247.817 9  -7590100.247 8
 89 11 27 10 54 59.0800000  0  4G13G 6G11G 9
  23102639.215    23102644.041   -33641895.097 8  26876708.289 8
  20514791.648    20514793.759    -6645219.048 9  -6544050.454 9
  20710822.769    20710826.171   -15776112.047 8 -13704745.992 7
  21437125.933    21437130.907   -19381830.466 9  -7644320.484 9
 89 11 27 10 55 29.0800000  0  4G13G 6G11G 9
  23082690.979    23082696.441   -33746723.824 8  26795023.576 8
  20515107.753    20515110.615    -6643555.779 9  -6542754.404 8
  20706049.633    20706053.483   -15801192.760 8 -13724289.395 8
  21423936.235    21423940.722   -19451143.310 9  -7698330.487 8
 89 11 27 10 55 59.0800000  0  4G13G 6G11G 9
  23062796.402    23062801.949   -33851271.425 8  26713557.924 8
  20515511.803    20515515.970    -6641426.913 9  -6541095.565 8
  20701380.616    20701385.828   -15825720.760 9 -13743402.091 8
  21410799.782    21410803.109   -19520184.033 9  -7752128.441 9
 89 11 27 10 56 29.0800000  0  4G13G 6G11G 9
  23042955.635    23042961.296   -33955535.499 9  26632313.188 8
  20516005.485    20516008.229    -6638831.140 9  -6539072.881 9
  20696819.615    20696824.002   -15849696.144 9 -13762084.191 8
  21397713.082    21397717.411   -19588950.337 9  -7805712.536 9
 89 11 27 10 56 59.0800000  0  4G13G 6G11G 9
  23023170.858    23023174.024   -34059513.063 9  26551291.731 8
  20516589.376    20516592.886    -6635766.133 9  -6536684.566 8
  20692360.958    20692366.526   -15873118.344 9 -13780335.255 8
  21384678.596    21384684.027   -19657438.726 9  -7859080.087 9
 89 11 27 10 57 29.0800000  0  4G13G 6G11G 9
  23003438.526    23003443.416   -34163202.080 9  26470495.085 9
  20517262.464    20517264.725    -6632230.740 9  -6533929.720 8
  20688010.098    20688016.583   -15895987.495 9 -13798155.358 8
  21371700.574    21371704.188   -19725646.970 9  -7912229.354 9
 89 11 27 10 57 59.0800000  0  4G13G 6G11G 9
  22983762.263    22983768.120   -34266600.735 9  26389924.717 9
  20518025.763    20518028.347    -6628224.253 9  -6530807.791 8
  20683763.160    20683768.949   -15918304.373 8 -13815545.145 9
  21358774.037    21358777.550   -19793573.169 9  -7965158.835 9
 89 11 27 10 58 29.0800000  0  4G13G 6G11G 9
  22964141.909    22964146.933   -34369706.301 9  26309582.710 8
  20518876.542    20518878.907    -6623744.288 9  -6527316.910 8
  20679621.873    20679625.814   -15940068.394 9 -13832504.113 9
  21345902.890    21345906.976   -19861214.029 9  -8017865.997 9
 89 11 27 10 58 59.0800000  0  4G13G 6G11G 9
  22944578.382    22944582.706   -34472516.761 9  26229470.663 8
  20519818.042    20519823.161    -6618789.664 9  -6523456.163 9
  20675585.356    20675589.750   -15961279.734 9 -13849032.408 9
  21333085.704    21333089.260   -19928566.740 9  -8070348.614 9
 89 11 27 10 59 29.0800000  0  4G13G 6G11G 9
  22925070.725    22925074.640   -34575029.981 9  26149590.229 8
  20520854.240    20520855.356    -6613359.364 9  -6519224.763 8
  20671653.286    20671658.265   -15981939.178 9 -13865130.662 9
  21320324.453    21320328.495   -19995629.556 9  -8122605.336 9
 89 11 27 10 59 59.0800000  0  4G13G 6G11G 9
  22905619.897    22905624.622   -34677243.260 9  26069943.516 9
  20521977.694    20521981.687    -6607451.840 9  -6514621.485 9
  20667827.994    20667832.349   -16002046.538 8 -13880798.721 8
  21307618.362    21307622.477   -20062399.448 9  -8174633.820 9
 89 11 27 11  0 29.0800000  0  4G13G 6G11G 9
  22886227.321    22886231.975   -34779155.029 9  25990531.772 8
  20523191.880    20523196.795    -6601065.997 9  -6509645.509 9
  20664107.351    20664111.328   -16021602.155 9 -13896036.848 9
  21294968.379    21294972.608   -20128874.243 9  -8226432.351 9
 89 11 27 11  0 59.0800000  0  4G13G 6G11G 9
  22866892.141    22866895.749   -34880762.469 9  25911357.152 9
  20524499.631    20524501.584    -6594200.139 9  -6504295.487 8
  20660490.088    20660495.378   -16040606.320 9 -13910845.280 8
  21282375.876    21282378.401   -20195051.096 9  -8277998.716 8
 89 11 27 11  1 29.0800000  0  4G13G 6G11G 9
  22847614.390    22847619.730   -34982063.389 9  25832421.383 9
  20525897.871    20525901.817    -6586853.008 9  -6498570.464 8
  20656978.864    20656983.606   -16059059.182 9 -13925224.123 8
  21269839.779    21269844.264   -20260927.141 9  -8329330.696 9
 89 11 27 11  1 59.0800000  0  4G13G 6G11G 9
  22828396.094    22828400.375   -35083056.214 9  25753725.681 9
  20527387.524    20527390.719    -6579023.346 8  -6492469.423 8
  20653571.757    20653576.885   -16076961.462 9 -13939173.940 8
  21257361.420    21257365.562   -20326500.296 9  -8380426.647 8
 89 11 27 11  2 29.0800000  0  4G13G 6G11G 9
  22809236.522    22809242.099   -35183737.908 9  25675272.433 8
  20528968.358    20528973.223    -6570709.632 9  -6485991.209 9
  20650269.208    20650275.458   -16094312.761 8 -13952694.424 9
  21244941.614    21244945.729   -20391767.399 9  -8431284.120 8
 89 11 27 11  2 59.0800000  0  4G13G 6G11G 9
  22790137.958    22790142.003   -35284106.802 9  25597062.913 9
  20530643.439    20530647.682    -6561911.228 9  -6479135.304 8
  20647073.025    20647078.153   -16111114.346 9 -13965786.547 9
  21232580.288    21232583.789   -20456726.454 9  -8481901.550 9
 89 11 27 11  3 29.0800000  0  4G13G 6G11G 9
  22771097.847    22771103.022   -35384160.200 9  25519099.218 9
  20532409.530    20532413.480    -6552625.986 8  -6471900.057 9
  20643980.276    20643984.252   -16127365.912 8 -13978450.092 8
  21220279.236    21220281.604   -20521374.111 8  -8532276.323 8
 89 11 27 11  3 59.0800000  0  4G13G 6G11G 9
  22752118.107    22752123.918   -35483896.374 9  25441382.743 9
  20534269.629    20534272.907    -6542853.281 8  -6464284.976 9
  20640992.375    20640997.107   -16143068.331 9 -13990685.722 8
  21208035.647    21208039.061   -20585708.346 9  -8582406.889 8
 89 11 27 11  4 29.0800000  0  4G13G 6G11G 9
  22733199.997    22733205.429   -35583313.239 9  25363915.061 9
  20536222.868    20536226.052    -6532591.311 9  -6456288.624 8
  20638108.970    20638114.907   -16158221.246 9 -14002493.157 8
  21195852.858    21195858.018   -20649726.085 9  -8632290.816 9
 89 11 27 11  4 59.0800000  0  4G13G 6G11G 9
  22714342.707    22714348.168   -35682408.697 8  25286697.824 9
  20538269.732    20538273.204    -6521839.201 8  -6447910.369 8
  20635329.958    20635335.215   -16172825.646 8 -14013873.198 8
  21183732.272    21183736.072   -20713424.986 9  -8681926.313 9
 89 11 27 11  5 29.0800000  0  4G13G 6G11G 9
  22695546.231    22695552.672   -35781180.684 8  25209732.651 9
  20540408.982    20540412.712    -6510595.719 9  -6439149.234 8
  20632655.260    20632659.579   -16186881.891 9 -14024826.111 7
  21171671.770    21171675.484   -20776802.329 9  -8731311.231 9
 89 11 27 11  5 59.0800000  0  4G13G 6G11G 9
  22676813.267    22676818.721   -35879627.021 9  25133021.222 9
  20542640.375    20542645.309    -6498859.711 9  -6430004.305 9
  20630083.538    20630088.837   -16200390.421 9 -14035352.236 8
  21159672.555    21159677.456   -20839855.703 9  -8780443.700 9
 89 11 27 11  6 29.0800000  0  4G13G 6G11G 9
  22658141.230    22658147.251   -35977745.517 8  25056565.262 9
  20544968.158    20544972.553    -6486630.082 9  -6420474.727 9
  20627619.560    20627623.128   -16213351.814 9 -14045452.021 9
  21147736.500    21147739.069   -20902582.472 9  -8829321.675 9
 89 11 27 11  6 59.0800000  0  4G13G 6G11G 9
  22639533.630    22639538.368   -36075535.063 9  24980365.624 8
  20547389.283    20547393.369    -6473906.526 8  -6410560.265 9
  20625255.147    20625260.107   -16225767.242 8 -14055126.364 8
  21135861.774    21135865.845   -20964980.842 8  -8877943.778 9
 89 11 27 11  7 29.0800000  0  4G13G 6G11G 9
  22620987.908    22620992.940   -36172991.648 9  24904425.430 8
  20549906.164    20549909.856    -6460686.281 9  -6400258.765 8
  20622996.842    20623000.702   -16237635.836 8 -14064374.604 8
  21124051.999    21124055.325   -21027046.409 9  -8926306.520 9
 89 11 27 11  7 59.0800000  0  4G13G 6G11G 9
  22602506.564    22602511.560   -36270113.899 9  24828745.764 9
  20552515.292    20552519.613    -6446968.814 9  -6389569.847 8
  20620840.595    20620846.074   -16248958.941 8 -14073197.798 8
  21112303.837    21112308.853   -21088777.498 9  -8974408.655 9
 89 11 27 11  8 29.0800000  0  4G13G 6G11G 9
  22584088.467    22584093.385   -36366900.376 9  24753327.735 9
  20555219.967    20555225.212    -6432753.534 8  -6378493.003 7
  20618790.532    20618795.557   -16259737.583 8 -14081596.743 9
  21100622.186    21100626.744   -21150171.678 9  -9022248.262 9
 89 11 27 11  8 59.0800000  0  4G13G 6G11G 9
  22565735.962    22565740.150   -36463347.868 9  24678173.852 8
  20558021.897    20558026.308    -6418038.365 9  -6367026.627 9
  20616844.754    20616849.199   -16269971.534 7 -14089571.236 9
  21089003.551    21089008.024   -21211225.632 9  -9069822.744 9
 89 11 27 11  9 29.0800000  0  4G13G 6G11G 9
  22547446.525    22547451.873   -36559455.111 9  24603285.090 8
  20560917.931    20560920.004    -6402822.804 9  -6355170.352 8
  20614999.506    20615004.813   -16279661.993 7 -14097122.238 8
  21077450.668    21077454.266   -21271937.089 9  -9117130.375 8
 89 11 27 11  9 59.0800000  0  4G13G 6G11G 9
  22529222.403    22529229.354   -36655220.157 9  24528662.969 9
  20563909.059    20563913.330    -6387106.074 8  -6342923.562 9
  20613257.595    20613263.525   -16288809.533 8 -14104250.171 9
  21065963.248    21065967.621   -21332303.915 9  -9164169.444 9
 89 11 27 11 10 29.0800000  0  4G13G 6G11G 9
  22511064.999    22511069.981   -36750641.173 9  24454308.956 9
  20566993.986    20566997.066    -6370886.855 9  -6330285.213 9
  20611620.365    20611626.050   -16297414.659 8 -14110955.449 8
  21054543.570    21054545.366   -21392322.921 9  -9210937.498 8
 89 11 27 11 10 59.0800000  0  4G13G 6G11G 9
  22492972.563    22492977.868   -36845715.552 8  24380225.020 9
  20570175.156    20570178.583    -6354164.293 9  -6317254.639 9
  20610086.898    20610091.891   -16305478.130 7 -14117238.668 8
  21043187.437    21043191.911   -21451991.689 9  -9257432.643 9
 89 11 27 11 11 29.0800000  0  4G13G 6G11G 9
  22474946.681    22474951.505   -36940441.910 9  24306412.277 9
  20573455.457    20573457.116    -6336937.290 9  -6303831.002 8
  20608654.854    20608659.907   -16313000.691 8 -14123100.385 8
  21031900.864    21031904.191   -21511307.675 9  -9303652.862 8
 89 11 27 11 11 59.0800000  0  4G13G 6G11G 9
  22456987.293    22456993.578   -37034818.339 9  24232872.206 8
  20576830.788    20576831.813    -6319205.109 9  -6290013.716 8
  20607324.666    20607330.667   -16319983.488 7 -14128541.530 8
  21020680.567    21020683.524   -21570268.251 9  -9349596.171 8
 89 11 27 11 12 29.0800000  0  4G13G 6G11G 9
  22439095.008    22439100.921   -37128842.356 9  24159606.747 8
  20580299.367    20580303.907    -6300966.467 9  -6275801.796 9
  20606098.129    20606104.348   -16326426.932 6 -14133562.398 8
  21009529.158    21009531.998   -21628870.692 9  -9395260.390 9
 89 11 27 11 12 59.0800000  0  4G13G 6G11G 9
  22421271.144    22421275.739   -37222511.884 9  24086617.503 8
  20583866.105    20583870.627    -6282220.517 8  -6261194.566 8
  20604974.097    20604981.328   -16332331.782 8 -14138163.556 8
  20998446.131    20998448.815   -21687112.257 9  -9440643.423 9
 89 11 27 11 13 29.0800000  0  4G13G 6G11G 9
  22403514.166    22403518.719   -37315824.929 8  24013906.047 8
  20587531.187    20587534.346    -6262966.301 9  -6246191.273 9
  20603952.494    20603959.368   -16337698.881 8 -14142345.689 9
  20987432.633    20987436.003   -21744990.541 9  -9485743.379 8
 89 11 27 11 13 59.0800000  0  4G13G 6G11G 9
  22385825.380    22385830.691   -37408780.049 9  23941473.497 9
  20591292.007    20591296.213    -6243202.978 8  -6230791.308 8
  20603035.393    20603040.624   -16342529.171 7 -14146109.543 8
  20976488.175    20976492.219   -21802502.863 9  -9530558.158 9
 89 11 27 11 14 29.0800000  0  4G13G 6G11G 9
  22368205.985    22368210.080   -37501375.804 9  23869320.958 8
  20595149.657    20595153.506    -6222930.049 8  -6214994.236 8
  20602219.229    20602223.578   -16346823.886 7 -14149456.051 8
  20965613.734    20965616.805   -21859646.833 9  -9575085.921 9
 89 11 27 11 14 59.0800000  0  4G13G 6G11G 9
  22350653.086    22350657.667   -37593609.277 9  23797450.720 8
  20599105.050    20599108.014    -6202146.051 8  -6198798.893 9
  20601503.293    20601509.214   -16350583.117 8 -14152385.315 9
  20954810.209    20954813.794   -21916419.220 9  -9619324.134 9
 89 11 27 11 15 29.0800000  0  4G13G 6G11G 9
  22333170.974    22333176.207   -37685478.835 8  23725864.065 9
  20603156.948    20603159.034    -6180850.222 9  -6182204.749 8
  20600889.605    20600894.935   -16353807.967 7 -14154898.163 8
  20944077.256    20944081.328   -21972817.820 8  -9663271.081 8
 89 11 27 11 15 59.0800000  0  4G13G 6G11G 9
  22315758.484    22315763.667   -37776983.014 9  23654562.139 9
  20607307.090    20607309.708    -6159042.220 8  -6165211.506 7
  20600379.066    20600382.386   -16356499.820 8 -14156995.697 8
  20933417.611    20933420.867   -22028840.437 9  -9706925.058 8
 89 11 27 11 16 29.0800000  0  4G13G 6G11G 9
  22298415.179    22298420.698   -37868119.243 9  23583546.909 8
  20611554.697    20611557.691    -6136720.758 9  -6147818.182 9
  20599967.650    20599971.548   -16358659.173 9 -14158678.311 9
  20922828.351    20922833.525   -22084483.718 9  -9750283.435 9
 89 11 27 11 16 59.0800000  0  4G13G 6G11G 9
  22281143.233    22281147.715   -37958885.815 9  23512819.731 8
  20615900.668    20615902.657    -6113885.042 9  -6130024.107 9
  20599657.179    20599660.754   -16360287.143 8 -14159946.835 8
  20912311.582    20912316.557   -22139745.289 9  -9793344.383 8
 89 11 27 11 17 29.0800000  0  4G13G 6G11G 9
  22263942.819    22263947.122   -38049281.183 9  23442381.811 8
  20620344.488    20620346.759    -6090534.293 8  -6111828.713 8
  20599448.122    20599452.927   -16361384.706 8 -14160802.085 8
  20901868.234    20901874.223   -22194622.395 9  -9836105.746 9
 89 11 27 11 17 59.0800000  0  4G13G 6G11G 9
  22246811.820    22246816.615   -38139303.386 9  23372234.654 8
  20624885.990    20624889.604    -6066668.032 9  -6093231.635 9
  20599339.683    20599344.505   -16361952.938 8 -14161244.861 8
  20891500.667    20891503.721   -22249112.647 9  -9878565.643 9
 89 11 27 11 18 29.0800000  0  4G13G 6G11G 9
  22229752.616    22229757.584   -38228950.729 9  23302379.610 8
  20629525.189    20629528.734    -6042285.323 9  -6074232.132 9
  20599331.300    20599337.469   -16361992.588 8 -14161275.753 8
  20881205.576    20881209.804   -22303213.508 9  -9920722.144 8
 89 11 27 11 18 59.0800000  0  4G13G 6G11G 9
  22212764.564    22212768.201   -38318221.685 9  23232817.845 8
  20634264.245    20634267.360    -6017385.702 8  -6054829.834 9
  20599425.805    20599429.446   -16361505.102 8 -14160895.883 9
  20870984.935    20870988.005   -22356922.379 9  -9962573.219 9
 89 11 27 11 19 29.0800000  0  4G13G 6G11G 9
  22195848.575    22195852.977   -38407114.257 9  23163550.924 8
  20639098.927    20639103.914    -5991968.383 9  -6035024.141 9
  20599617.837    20599623.261   -16360491.340 8 -14160105.937 9
  20860839.662    20860842.988   -22410236.721 9 -10004116.873 9
 89 11 27 11 19 59.0800000  0  4G13G 6G11G 9
  22179005.311    22179010.128   -38495626.497 9  23094580.358 9
  20644034.853    20644039.993    -5966032.855 8  -6014814.639 9
  20599909.187    20599914.902   -16358952.633 8 -14158906.922 7
  20850768.682    20850773.153   -22463153.876 9 -10045350.985 9
 89 11 27 11 20 29.0800000  0  4G13G 6G11G 9
  22162234.688    22162240.093   -38583756.632 9  23025907.545 8
  20649069.367    20649073.918    -5939578.103 8  -5994200.557 9
  20600302.262    20600309.150   -16356889.421 7 -14157299.243 7
  20840775.772    20840779.385   -22515671.154 9 -10086273.535 9
 89 11 27 11 20 59.0800000  0  4G13G 6G11G 9
  22145537.042    22145542.455   -38671503.533 9  22957533.346 9
  20654202.201    20654206.726    -5912603.695 9  -5973181.532 9
  20600793.382    20600799.179   -16354303.230 8 -14155284.028 8
  20830859.088    20830862.745   -22567786.076 9 -10126882.559 8
 89 11 27 11 21 29.0800000  0  4G13G 6G11G 9
  22128912.602    22128917.770   -38758864.789 9  22889459.659 8
  20659435.700    20659438.537    -5885108.906 9  -5951757.045 9
  20601385.686    20601392.526   -16351195.171 8 -14152862.151 8
  20821019.000    20821022.600   -22619495.977 9 -10167175.987 8
 89 11 27 11 21 59.0800000  0  4G13G 6G11G 9
  22112362.598    22112366.464   -38845839.320 9  22821687.334 8
  20664765.835    20664769.791    -5857093.890 9  -5929927.165 9
  20602076.200    20602082.379   -16347567.061 8 -14150035.033 8
  20811256.169    20811258.780   -22670798.924 9 -10207152.293 8
 89 11 27 11 22 29.0800000  0  4G13G 6G11G 9
  22095885.514    22095889.430   -38932424.159 9  22754218.652 8
  20670196.093    20670200.522    -5828556.923 8  -5907690.581 8
  20602866.405    20602871.983   -16343419.143 8 -14146802.889 8
  20801572.351    20801574.778   -22721691.071 9 -10246808.533 8
 89 11 27 11 22 59.0800000  0  4G13G 6G11G 9
  22079482.323    22079487.734   -39018618.357 9  22687054.346 8
  20675725.524    20675729.639    -5799497.972 9  -5885047.246 9
  20603755.003    20603759.315   -16338752.490 8 -14143166.525 8
  20791965.619    20791970.878   -22772170.647 9 -10286143.243 9
 89 11 27 11 23 29.0800000  0  4G13G 6G11G 9
  22063154.884    22063159.759   -39104420.433 9  22620195.605 9
  20681355.100    20681359.164    -5769916.336 9  -5861996.612 9
  20604740.836    20604746.346   -16333568.650 8 -14139127.159 8
  20782438.617    20782443.274   -22822234.858 9 -10325154.293 9
 89 11 27 11 23 59.0800000  0  4G13G 6G11G 9
  22046902.833    22046907.737   -39189828.949 9  22553643.531 8
  20687084.449    20687087.736    -5739811.746 9  -5838538.497 9
  20605825.402    20605831.145   -16327869.107 9 -14134685.960 7
  20772991.074    20772995.717   -22871881.175 9 -10363839.721 8
 89 11 27 11 24 29.0800000  0  4G13G 6G11G 9
  22030725.863    22030729.515   -39274842.499 9  22487399.205 8
  20692912.236    20692916.145    -5709184.413 9  -5814673.052 8
  20607008.423    20607013.182   -16321655.662 8 -14129844.311 8
  20763623.575    20763627.890   -22921108.019 8 -10402198.274 8
 89 11 27 11 24 59.0800000  0  4G13G 6G11G 9
  22014623.001    22014627.789   -39359458.636 9  22421464.583 8
  20698839.531    20698844.430    -5678032.940 8  -5790399.171 9
  20608288.049    20608292.540   -16314928.644 7 -14124602.475 8
  20754338.027    20754340.768   -22969911.801 9 -10440227.171 7
 89 11 27 11 25 29.0800000  0  4G13G 6G11G 9
  21998597.736    21998602.332   -39443675.620 9  22355840.981 8
  20704867.475    20704872.065    -5646356.600 9  -5765716.317 9
  20609665.910    20609669.502   -16307689.274 8 -14118961.402 8
  20745130.464    20745134.664   -23018289.539 9 -10477924.107 8
 89 11 27 11 25 59.0800000  0  4G13G 6G11G 9
  21982648.039    21982653.157   -39527492.107 9  22290529.451 8
  20710995.309    20710999.927    -5614155.466 9  -5740624.531 8
  20611141.385    20611144.507   -16299939.467 7 -14112922.572 8
  20736007.511    20736009.750   -23066239.482 9 -10515287.708 9
 89 11 27 11 26 29.0800000  0  4G13G 6G11G 9
  21966774.230    21966779.963   -39610906.907 9  22225530.920 8
  20717222.542    20717228.094    -5581429.434 9  -5715123.725 9
  20612711.948    20612716.236   -16291680.214 9 -14106486.769 8
  20726963.328    20726967.487   -23113759.076 9 -10552315.969 8
 89 11 27 11 26 59.0800000  0  4G13G 6G11G 9
  21950977.125    21950981.849   -39693919.339 9  22160845.931 8
  20723549.839    20723555.266    -5548178.581 9  -5689213.980 9
  20614379.350    20614384.649   -16282913.735 8 -14099655.742 9
  20718002.670    20718006.641   -23160846.607 9 -10589007.521 8
 89 11 27 11 27 29.0800000  0  4G13G 6G11G 9
  21935258.586    21935262.395   -39776525.604 9  22096477.436 8
  20729978.981    20729982.444    -5514400.658 9  -5662893.516 9
  20616145.310    20616150.884   -16273639.525 8 -14092429.069 8
  20709125.434    20709129.448   -23207497.498 9 -10625358.878 8
 89 11 27 11 27 59.0800000  0  4G13G 6G11G 9
  21919616.887    21919620.037   -39858725.717 9  22032425.427 9
  20736506.055    20736510.143    -5480096.803 9  -5636163.237 9
  20618005.684    20618010.138   -16263860.376 8 -14084808.943 8
  20700332.265    20700333.245   -23253710.574 9 -10661369.036 8
 89 11 27 11 28 29.0800000  0  4G13G 6G11G 9
  21904051.835    21904056.331   -39940518.719 9  21968690.640 9
  20743134.024    20743137.294    -5445267.168 9  -5609023.270 9
  20619962.986    20619967.111   -16253578.062 8 -14076796.750 9
  20691620.902    20691624.214   -23299484.024 9 -10697036.666 9
 89 11 27 11 28 59.0800000  0  4G13G 6G11G 9
  21888565.233    21888568.677   -40021901.006 9  21905275.890 8
  20749862.447    20749866.228    -5409909.752 9  -5581472.049 9
  20622015.161    20622021.133   -16242792.286 8 -14068392.239 9
  20682995.263    20682998.605   -23344813.626 9 -10732358.438 8
 89 11 27 11 29 29.0800000  0  4G13G 6G11G 9
  21873156.610    21873160.432   -40102872.198 9  21842181.482 8
  20756691.117    20756695.431    -5374025.198 9  -5553510.060 9
  20624162.707    20624166.865   -16231505.567 8 -14059597.385 9
  20674454.466    20674457.192   -23389697.601 9 -10767332.936 8
 89 11 27 11 29 59.0800000  0  4G13G 6G11G 9
  21857826.264    21857831.883   -40183430.769 9  21779408.586 9
  20763620.022    20763623.589    -5337613.263 9  -5525137.132 9
  20626407.684    20626411.786   -16219719.365 8 -14050413.316 8
  20665997.290    20666003.379   -23434133.677 8 -10801958.433 8
 89 11 27 11 30 29.0800000  0  4G13G 6G11G 9
  21842575.020    21842580.910   -40263575.310 9  21716958.329 9
  20770650.466    20770652.858    -5300673.879 9  -5496353.204 9
  20628743.929    20628749.254   -16207435.173 8 -14040841.227 8
  20657627.558    20657630.298   -23478119.606 9 -10836233.158 7
 89 11 27 11 30 59.0800000  0  4G13G 6G11G 9
  21827402.483    21827408.417   -40343304.613 9  21654831.625 9
  20777778.962    20777781.907    -5263206.543 9  -5467157.879 9
  20631175.061    20631180.866   -16194654.234 8 -14030882.062 8
  20649343.282    20649348.311   -23521652.644 9 -10870154.991 8
 89 11 27 11 31 29.0800000  0  4G13G 6G11G 9
  21812311.266    21812315.855   -40422617.086 9  21593029.720 9
  20785009.320    20785014.074    -5225211.117 9  -5437551.073 8
  20633702.342    20633706.961   -16181378.029 9 -14020536.956 8
  20641146.219    20641149.174   -23564730.052 9 -10903721.784 8
 89 11 27 11 31 59.0800000  0  4G13G 6G11G 9
  21797297.318    21797301.957   -40501511.470 9  21531553.609 8
  20792339.613    20792343.043    -5186687.795 9  -5407532.896 8
  20636323.468    20636325.906   -16167608.515 8 -14009807.458 8
  20633035.468    20633041.558   -23607350.215 8 -10936932.292 8
 89 11 27 11 32 29.0800000  0  4G13G 6G11G 9
  21782365.176    21782369.930   -40579985.472 9  21470405.066 8
  20799769.610    20799774.888    -5147635.676 9  -5377102.674 9
  20639035.064    20639041.788   -16153346.428 8 -13998694.133 8
  20625014.050    20625016.333   -23649509.766 7 -10969783.861 9
 89 11 27 11 32 59.0800000  0  4G13G 6G11G 9
  21767512.006    21767515.929   -40658038.282 9  21409584.711 9
  20807303.334    20807307.334    -5108055.223 9  -5346260.766 8
  20641844.479    20641848.527   -16138593.897 7 -13987198.661 8
  20617079.362    20617082.030   -23691206.696 9 -11002274.954 8
 89 11 27 11 33 29.0800000  0  4G13G 6G11G 9
  21752738.353    21752742.620   -40735668.909 9  21349093.346 8
  20814935.561    20814939.862    -5067946.286 9  -5315007.049 9
  20644742.972    20644748.321   -16123352.587 9 -13975322.301 8
  20609232.988    20609234.012   -23732438.613 9 -11034403.693 9
 89 11 27 11 33 59.0800000  0  4G13G 6G11G 9
  21738046.362    21738052.318   -40812875.412 9  21288932.466 8
  20822668.092    20822672.879    -5027308.552 9  -5283341.287 9
  20647736.197    20647742.109   -16107623.800 8 -13963066.098 8
  20601475.061    20601479.262   -23773202.995 9 -11066168.164 8
 89 11 27 11 34 29.0800000  0  4G13G 6G11G 9
  21723435.669    21723439.413   -40889657.052 9  21229102.632 9
  20830502.279    20830505.911    -4986142.210 9  -5251263.626 9
  20650822.362    20650826.671   -16091409.170 8 -13950431.326 8
  20593806.823    20593809.620   -23813497.609 8 -11097566.537 7
 89 11 27 11 34 59.0800000  0  4G13G 6G11G 9
  21708906.165    21708910.605   -40966012.283 9  21169605.062 9
  20838437.443    20838441.410    -4944447.189 9  -5218774.023 9
  20653998.327    20654004.664   -16074710.330 8 -13937419.246 8
  20586229.033    20586233.849   -23853319.976 9 -11128596.989 7
 89 11 27 11 35 29.0800000  0  4G13G 6G11G 9
  21694457.052    21694462.056   -41041940.090 9  21110440.557 8
  20846472.452    20846476.127    -4902223.613 9  -5185872.533 9
  20657268.516    20657274.666   -16057528.806 8 -13924031.041 8
  20578743.395    20578745.993   -23892667.801 9 -11159257.602 9
 89 11 27 11 35 59.0800000  0  4G13G 6G11G 9
  21680090.180    21680095.406   -41117439.076 9  21051610.206 9
  20854607.401    20854611.519    -4859471.124 9  -5152558.913 9
  20660628.790    20660634.494   -16039866.441 8 -13910268.150 8
  20571343.983    20571347.425   -23931538.610 8 -11189546.552 8
 89 11 27 11 36 29.0800000  0  4G13G 6G11G 9
  21665806.095    21665811.365   -41192507.702 9  20993115.184 8
  20862844.267    20862848.101    -4816189.920 9  -5118833.308 9
  20664081.525    20664087.646   -16021724.757 8 -13896131.770 7
  20564038.985    20564045.330   -23969929.947 9 -11219461.866 8
 89 11 27 11 36 59.0800000  0  4G13G 6G11G 9
  21651602.477    21651606.714   -41267145.193 9  20934956.129 8
  20871180.296    20871184.334    -4772380.245 9  -5084695.897 9
  20667625.015    20667629.957   -16003105.751 8 -13881623.447 8
  20556824.533    20556829.120   -24007839.746 8 -11249001.985 8
 89 11 27 11 37 29.0800000  0  4G13G 6G11G 9
  21637481.329    21637485.446   -41341350.158 9  20877134.098 8
  20879617.383    20879622.051    -4728042.089 9  -5050146.702 9
  20671259.527    20671263.640   -15984010.925 9 -13866744.347 7
  20549702.034    20549707.750   -24045265.685 9 -11278165.023 8
 89 11 27 11 37 59.0800000  0  4G13G 6G11G 9
  21623443.241    21623447.957   -41415121.740 9  20819649.744 9
  20888155.503    20888160.062    -4683175.733 9  -5015185.919 9
  20674981.353    20674988.678   -15964442.142 7 -13851495.932 8
  20542673.331    20542676.931   -24082205.608 9 -11306949.376 8
 89 11 27 11 38 29.0800000  0  4G13G 6G11G 9
  21609487.456    21609492.439   -41488457.693 9  20762504.877 8
  20896793.738    20896797.015    -4637780.716 9  -4979813.166 9
  20678795.920    20678801.729   -15944400.454 8 -13835879.042 8
  20535738.095    20535743.269   -24118656.555 8 -11335352.711 9
 89 11 27 11 38 59.0800000  0  4G13G 6G11G 9
  21595614.945    21595621.001   -41561357.326 9  20705699.983 8
  20905533.601    20905537.639    -4591857.462 9  -4944028.823 9
  20682699.762    20682705.685   -15923887.919 8 -13819895.251 9
  20528894.311    20528898.498   -24154616.532 9 -11363373.477 8
 89 11 27 11 39 29.0800000  0  4G13G 6G11G 9
  21581826.317    21581831.356   -41633820.137 9  20649235.477 8
  20914371.012    20914376.207    -4545406.786 9  -4907833.513 9
  20686693.738    20686697.270   -15902906.991 9 -13803546.465 7
  20522145.082    20522150.710   -24190083.737 8 -11391010.228 8
 89 11 27 11 39 59.0800000  0  4G13G 6G11G 9
  21568120.551    21568125.011   -41705843.998 9  20593113.005 8
  20923310.198    20923315.936    -4498427.817 9  -4871226.545 9
  20690773.332    20690779.045   -15881458.366 8 -13786833.255 8
  20515489.963    20515492.761   -24225055.084 8 -11418260.606 7
 89 11 27 11 40 29.0800000  0  4G13G 6G11G 9
  21554497.714    21554502.847   -41777427.755 9  20537333.464 9
  20932351.387    20932355.269    -4450920.927 9  -4834208.196 9
  20694943.634    20694947.988   -15859544.104 7 -13769757.200 7
  20508930.115    20508934.259   -24259528.365 8 -11445122.919 7
 89 11 27 11 40 59.0800000  0  4G13G 6G11G 9
  21540960.647    21540964.670   -41848571.091 9  20481897.108 8
  20941492.394    20941495.459    -4402886.757 9  -4796778.971 9
  20699203.860    20699208.540   -15837166.186 9 -13752319.862 8
  20502465.523    20502466.932   -24293501.779 9 -11471595.706 7
 89 11 27 11 41 29.0800000  0  4G13G 6G11G 9
  21527506.014    21527509.867   -41919273.323 9  20426804.483 7
  20950733.393    20950737.464    -4354325.749 9  -4758939.230 9
  20703549.126    20703553.170   -15814326.817 9 -13734522.925 8
  20496096.717    20496100.030   -24326973.167 9 -11497677.312 8
 89 11 27 11 41 59.0800000  0  4G13G 6G11G 9
  21514136.379    21514141.877   -41989532.393 9  20372057.160 8
  20960074.220    20960078.535    -4305237.623 8  -4720688.758 9
  20707985.040    20707989.088   -15791026.864 8 -13716367.114 8
  20489824.269    20489825.107   -24359939.739 9 -11523365.515 7
 89 11 27 11 42 29.0800000  0  4G13G 6G11G 9
  21500851.190    21500855.234   -42059347.242 9  20317655.998 8
  20969515.991    20969519.328    -4255622.758 9  -4682027.836 8
  20712503.444    20712509.241   -15767268.425 8 -13697854.055 8
  20483645.990    20483650.663   -24392399.632 9 -11548658.962 7
 89 11 27 11 42 59.0800000  0  4G13G 6G11G 9
  21487649.824    21487654.806   -42128716.708 9  20263601.894 8
  20979057.630    20979060.902    -4205481.573 9  -4642956.791 9
  20717110.794    20717115.075   -15743053.577 8 -13678985.343 8
  20477567.446    20477569.773   -24424350.632 9 -11573555.816 8
 89 11 27 11 43 29.0800000  0  4G13G 6G11G 9
  21474533.861    21474539.594   -42197640.492 8  20209895.062 8
  20988698.985    20988703.783    -4154814.662 9  -4603476.079 9
  20721805.755    20721811.203   -15718384.281 8 -13659762.503 8
  20471582.872    20471587.559   -24455790.599 9 -11598054.479 8
 89 11 27 11 43 59.0800000  0  4G13G 6G11G 9
  21461503.325    21461507.090   -42266117.107 9  20156536.681 8
  20998441.937    20998445.124    -4103622.034 9  -4563585.742 9
  20726587.356    20726590.354   -15693262.374 8 -13640186.969 7
  20465697.487    20465701.386   -24486717.332 9 -11622153.220 8
 89 11 27 11 44 29.0800000  0  4G13G 6G11G 9
  21448558.114    21448563.347   -42334146.075 9  20103527.124 9
  21008283.081    21008287.081    -4051904.290 9  -4523286.229 9
  20731453.196    20731459.276   -15667689.563 9 -13620260.117 8
  20459911.610    20459914.521   -24517128.678 9 -11645850.364 7
 89 11 27 11 44 59.0800000  0  4G13G 6G11G 9
  21435698.079    21435703.361   -42401726.284 9  20050867.245 8
  21018223.968    21018227.280    -3999662.365 9  -4482578.249 9
  20736405.521    20736409.347   -15641668.176 8 -13599983.714 8
  20454222.719    20454224.529   -24547023.209 9 -11669144.788 7
 89 11 27 11 45 29.0800000  0  4G13G 6G11G 9
  21422923.599    21422928.653   -42468856.316 9  19998558.148 8
  21028265.894    21028268.610    -3946895.823 9  -4441461.464 9
  20741441.927    20741446.255   -15615199.444 8 -13579358.708 7
  20448633.364    20448636.305   -24576397.826 9 -11692034.100 8
 89 11 27 11 45 59.0800000  0  4G13G 6G11G 9
  21410234.538    21410239.641   -42535535.058 9  19946600.707 8
  21038405.940    21038409.739    -3893604.877 9  -4399936.050 9
  20746562.911    20746570.151   -15588284.868 9 -13558386.299 8
  20443141.697    20443144.924   -24605249.984 9 -11714516.304 7
 89 11 27 11 46 29.0800000  0  4G13G 6G11G 9
  21397632.762    21397637.929   -42601762.088 9  19894995.254 8
  21048645.842    21048650.951    -3839790.546 9  -4358002.821 9
  20751770.264    20751773.189   -15560927.055 9 -13537068.516 9
  20437750.482    20437754.395   -24633578.325 9 -11736590.339 7
 89 11 27 11 46 59.0800000  0  4G13G 6G11G 9
  21385115.175    21385121.866   -42667536.594 9  19843742.419 8
  21058986.621    21058989.905    -3785453.335 9  -4315662.135 9
  20757059.233    20757064.600   -15533127.930 8 -13515406.849 9
  20432461.103    20432464.745   -24661380.778 8 -11758254.586 8
 89 11 27 11 47 29.0800000  0  4G13G 6G11G 9
  21372684.665    21372691.401   -42732857.849 9  19792842.762 8
  21069425.020    21069430.737    -3730593.481 8  -4272914.217 9
  20762432.503    20762438.289   -15504889.166 8 -13493402.613 8
  20427271.374    20427274.288   -24688655.091 9 -11779507.286 8
 89 11 27 11 47 59.0800000  0  4G13G 6G11G 9
  21360340.920    21360347.212   -42797724.889 9  19742297.049 7
  21079965.126    21079969.089    -3675211.922 9  -4229759.773 9
  20767888.918    20767895.119   -15476213.008 8 -13471057.537 8
  20422180.695    20422185.682   -24715399.361 8 -11800346.970 8
 89 11 27 11 48 29.0800000  0  4G13G 6G11G 9
  21348085.534    21348090.209   -42862136.871 9  19692105.898 8
  21090603.315    21090606.648    -3619309.013 9  -4186199.067 9
  20773430.542    20773435.324   -15447101.336 7 -13448373.119 9
  20417192.898    20417197.384   -24741611.544 9 -11820772.052 8
 89 11 27 11 48 59.0800000  0  4G13G 6G11G 9
  21335915.446    21335918.725   -42926092.827 9  19642270.124 8
  21101339.426    21101343.508    -3562885.567 9  -4142232.756 9
  20779050.670    20779056.856   -15417556.338 8 -13425351.028 8
  20412308.643    20412310.768   -24767289.722 9 -11840780.993 7
 89 11 27 11 49 29.0800000  0  4G13G 6G11G 9
  21323831.026    21323836.145   -42989592.027 9  19592790.247 9
  21112174.727    21112179.274    -3505941.848 9  -4097861.041 9
  20784753.932    20784760.475   -15387579.694 7 -13401992.612 8
  20407524.321    20407526.805   -24792431.670 8 -11860372.105 8
 89 11 27 11 49 59.0800000  0  4G13G 6G11G 9
  21311834.745    21311839.518   -43052633.745 9  19543666.849 8
  21123109.541    21123114.019    -3448478.778 9  -4053084.624 9
  20790542.355    20790547.299   -15357173.571 7 -13378299.505 8
  20402840.952    20402844.695   -24817035.702 9 -11879544.055 8
 89 11 27 11 50 29.0800000  0  4G13G 6G11G 9
  21299924.767    21299929.943   -43115217.910 9  19494899.992 8
  21134143.339    21134148.528    -3390497.433 9  -4007904.369 9
  20796410.225    20796415.714   -15326340.483 9 -13354273.728 9
  20398261.697    20398264.754   -24841100.068 9 -11898295.503 8
 89 11 27 11 50 59.0800000  0  4G13G 6G11G 9
  21288103.244    21288108.140   -43177342.144 9  19446491.523 8
  21145275.908    21145280.853    -3331997.295 9  -3962319.859 9
  20802357.905    20802362.773   -15295081.292 8 -13329915.907 9
  20393784.667    20393789.412   -24864621.810 8 -11916624.123 7
 89 11 27 11 51 29.0800000  0  4G13G 6G11G 9
  21276368.398    21276374.482   -43239006.842 9  19398441.131 8
  21156507.098    21156510.808    -3272979.646 9  -3916332.089 9
  20808386.791    20808393.920   -15263398.634 9 -13305228.129 9
  20389413.010    20389415.149   -24887599.730 8 -11934529.001 8
 89 11 27 11 51 59.0800000  0  4G13G 6G11G 9
  21264721.381    21264726.829   -43300211.324 9  19350749.353 9
  21167835.515    21167841.074    -3213445.298 9  -3869941.689 9
  20814497.663    20814499.995   -15231294.164 9 -13280211.667 8
  20385143.977    20385147.406   -24910031.573 9 -11952008.345 8
 89 11 27 11 52 29.0800000  0  4G13G 6G11G 9
  21253163.126    21253168.085   -43360954.599 9  19303416.948 8
  21179261.834    21179267.176    -3153394.898 9  -3823149.180 9
  20820686.205    20820690.612   -15198770.352 7 -13254868.409 8
  20380979.059    20380983.289   -24931915.955 8 -11969061.102 8
 89 11 27 11 52 59.0800000  0  4G13G 6G11G 9
  21241691.747    21241695.957   -43421235.847 9  19256444.573 8
  21190787.811    21190792.230    -3092829.206 9  -3775955.135 9
  20826954.087    20826959.533   -15165828.977 8 -13229199.811 8
  20376920.201    20376923.858   -24953250.511 9 -11985685.412 7
 89 11 27 11 53 29.0800000  0  4G13G 6G11G 9
  21230308.421    21230314.148   -43481055.198 9  19209832.107 9
  21202410.995    21202414.854    -3031749.354 9  -3728360.456 9
  20833301.574    20833306.276   -15132472.557 8 -13203207.772 9
  20372965.857    20372968.253   -24974033.906 9 -12001880.228 8
 89 11 27 11 53 59.0800000  0  4G13G 6G11G 9
  21219013.754    21219018.765   -43540411.364 9  19163580.576 9
  21214131.768    21214135.654    -2970155.698 9  -3680365.410 9
  20839728.301    20839734.692   -15098702.949 9 -13176893.807 9
  20369115.354    20369118.080   -24994263.883 9 -12017643.863 7
 89 11 27 11 54 29.0800000  0  4G13G 6G11G 9
  21207805.565    21207811.256   -43599304.445 9  19117689.880 9
  21225950.633    21225954.045    -2908049.243 9  -3631970.773 9
  20846230.431    20846236.648   -15064522.463 7 -13150259.657 7
  20365372.758    20365375.340   -25013938.799 9 -12032974.959 8
 89 11 27 11 54 59.0800000  0  4G13G 6G11G 9
  21196686.880    21196692.392   -43657733.292 9  19072160.930 9
  21237866.850    21237869.430    -2845431.343 9  -3583177.620 9
  20852815.071    20852820.013   -15029933.290 9 -13123307.045 9
  20361733.030    20361736.543   -25033057.079 9 -12047872.306 8
 89 11 27 11 55 29.0800000  0  4G13G 6G11G 9
  21185657.169    21185661.866   -43715696.893 9  19026994.519 9
  21249880.974    21249883.485    -2782301.588 9  -3533985.607 9
  20859473.388    20859478.468   -14994936.393 8 -13096036.726 9
  20358201.866    20358204.635   -25051616.014 8 -12062333.815 8
 89 11 27 11 55 59.0800000  0  4G13G 6G11G 9
  21174716.949    21174721.059   -43773195.437 9  18982190.491 9
  21261990.973    21261994.058    -2718661.776 9  -3484396.150 9
  20866212.234    20866214.854   -14959534.922 9 -13068451.148 9
  20354776.346    20354778.643   -25069614.576 9 -12076358.661 8
 89 11 27 11 56 29.0800000  0  4G13G 6G11G 9
  21163864.085    21163868.904   -43830228.038 9  18937749.516 9
  21274197.892    21274201.252    -2654512.374 9  -3434409.623 9
  20873023.525    20873027.705   -14923730.351 8 -13040551.456 7
  20351458.360    20351462.059   -25087050.699 8 -12089945.237 7
 89 11 27 11 56 59.0800000  0  4G13G 6G11G 9
  21153098.115    21153103.942   -43886793.776 9  18893672.344 9
  21286501.530    21286505.222    -2589854.169 9  -3384026.611 9
  20879912.676    20879919.162   -14887525.013 8 -13012339.499 8
  20348246.562    20348251.565   -25103922.512 8 -12103092.076 8
 89 11 27 11 57 29.0800000  0  4G13G 6G11G 9
  21142424.031    21142429.179   -43942892.233 9  18849959.295 9
  21298902.943    21298906.455    -2524688.539 9  -3333248.204 9
  20886878.952    20886883.499   -14850921.194 9 -12983817.053 8
  20345142.987    20345149.876   -25120228.604 7 -12115798.124 8
 89 11 27 11 57 59.0800000  0  4G13G 6G11G 9
  21131837.398    21131842.839   -43998524.047 9  18806609.860 8
  21311399.380    21311402.868    -2459017.017 9  -3282075.580 9
  20893920.138    20893924.465   -14813921.407 9 -12954986.031 8
  20342148.402    20342152.474   -25135967.790 8 -12128062.391 8
 89 11 27 11 58 29.0800000  0  4G13G 6G11G 9
  21121339.546    21121345.086   -44053688.087 9  18763624.924 8
  21323991.700    21323995.487    -2392839.880 9  -3230508.995 9
  20901034.647    20901040.590   -14776527.118 8 -12925847.620 8
  20339261.552    20339267.255   -25151137.880 9 -12139883.254 8
 89 11 27 11 58 59.0800000  0  4G13G 6G11G 9
  21110931.227    21110936.746   -44108382.645 9  18721005.816 9
  21336681.017    21336685.145    -2326157.510 9  -3178548.702 8
  20908227.554    20908229.283   -14738740.040 9 -12896403.116 8
  20336485.009    20336488.702   -25165736.452 8 -12151258.763 8
 89 11 27 11 59 29.0800000  0  4G13G 6G11G 9
  21100613.891    21100618.516   -44162608.944 9  18678751.564 9
  21349466.836    21349470.950    -2258971.825 9  -3126196.225 9
  20915489.927    20915496.406   -14700563.055 8 -12866654.818 7
  20333815.633    20333820.825   -25179762.849 9 -12162188.390 8
 89 11 27 11 59 59.0800000  0  4G13G 6G11G 9
  21090383.606    21090387.924   -44216366.420 9  18636862.647 9
  21362347.016    21362349.929    -2191283.504 9  -3073452.090 9
  20922829.141    20922833.490   -14661998.147 8 -12836604.246 7
  20331255.242    20331259.932   -25193215.099 8 -12172670.692 9
 89 11 27 12  0 29.0800000  0  4G13G 6G11G 9
  21080242.992    21080247.780   -44269654.454 9  18595339.517 9
  21375322.585    21375327.045    -2123093.902 9  -3020317.335 9
  20930241.647    20930245.723   -14623047.424 9 -12806253.010 8
  20328805.601    20328808.811   -25206091.890 8 -12182704.513 7
 89 11 27 12  0 59.0800000  0  4G13G 6G11G 9
  21070190.835    21070196.469   -44322472.805 9  18554182.380 8
  21388394.101    21388398.763    -2054404.356 9  -2966793.016 9
  20937725.728    20937731.765   -14583713.458 9 -12775603.158 8
  20326464.915    20326469.148   -25218391.840 8 -12192288.890 8
 89 11 27 12  1 29.0800000  0  4G13G 6G11G 9
  21060231.058    21060234.904   -44374820.447 9  18513392.041 8
  21401559.403    21401564.282    -1985215.138 9  -2912879.347 9
  20945284.587    20945289.423   -14543997.565 9 -12744655.687 8
  20324234.257    20324237.624   -25230112.586 8 -12201421.924 7
 89 11 27 12  1 59.0800000  0  4G13G 6G11G 9
  21050359.191    21050362.483   -44426697.711 9  18472968.213 8
  21414820.805    21414825.181    -1915528.087 9  -2858577.764 8
  20952913.992    20952918.840   -14503902.760 9 -12713412.979 7
  20322113.678    20322119.059   -25241253.165 8 -12210102.896 7
 89 11 27 12  2 29.0800000  0  4G13G 6G11G 9
  21040575.597    21040581.115   -44478104.485 9  18432910.998 7
  21428176.480    21428181.260    -1845344.278 9  -2803889.090 9
  20960613.855    20960620.264   -14463431.342 9 -12681876.813 8
  20320105.774    20320108.422   -25251812.058 8 -12218330.599 8
 89 11 27 12  2 59.0800000  0  4G13G 6G11G 9
  21030883.451    21030887.740   -44529040.289 9  18393220.787 9
  21441627.405    21441630.729    -1774664.644 9  -2748814.045 9
  20968389.470    20968392.760   -14422585.160 9 -12650048.609 8
  20318208.104    20318210.872   -25261787.691 8 -12226103.793 8
 89 11 27 12  3 29.0800000  0  4G13G 6G11G 9
  21021280.661    21021284.799   -44579505.060 9  18353897.605 8
  21455170.877    21455175.431    -1703490.797 9  -2693353.903 9
  20976233.942    20976236.273   -14381366.623 9 -12617930.263 9
  20316419.915    20316423.192   -25271178.896 8 -12233421.605 7
 89 11 27 12  3 59.0800000  0  4G13G 6G11G 9
  21011766.980    21011771.198   -44629497.991 9  18314942.098 8
  21468808.408    21468813.223    -1631823.642 9  -2637509.381 9
  20984146.784    20984150.845   -14339777.676 9 -12585523.276 8
  20314744.058    20314746.768   -25279984.065 8 -12240282.765 7
 89 11 27 12  4 29.0800000  0  4G13G 6G11G 9
  21002343.098    21002348.295   -44679018.784 9  18276354.504 8
  21482540.984    21482544.403    -1559664.377 9  -2581281.389 9
  20992132.199    20992136.219   -14297820.646 9 -12552829.499 9
  20313180.892    20313184.280   -25288201.662 8 -12246686.079 8
 89 11 27 12  4 59.0800000  0  4G13G 6G11G 9
  20993010.437    20993014.045   -44728067.440 9  18238134.790 8
  21496366.143    21496369.642    -1487014.169 9  -2524670.845 9
  21000183.181    21000188.445   -14255497.317 8 -12519850.308 8
  20311728.507    20311732.006   -25295830.159 7 -12252630.341 7
 89 11 27 12  5 29.0800000  0  4G13G 6G11G 9
  20983766.034    20983770.472   -44776643.938 9  18200282.997 7
  21510283.637    21510287.321    -1413874.612 9  -2467678.977 9
  21008308.543    21008312.376   -14212810.422 9 -12486587.754 8
  20310388.951    20310393.221   -25302868.453 8 -12258114.727 7
 89 11 27 12  5 59.0800000  0  4G13G 6G11G 9
  20974612.653    20974617.283   -44824747.673 9  18162799.589 8
  21524293.836    21524299.137    -1340246.626 9  -2410306.534 9
  21016499.211    21016505.019   -14169761.811 9 -12453043.395 8
  20309161.285    20309165.801   -25309314.997 8 -12263138.003 8
 89 11 27 12  6 29.0800000  0  4G13G 6G11G 9
  20965548.145    20965552.197   -44872379.456 9  18125683.934 8
  21538396.572    21538402.224    -1266131.854 9  -2352554.763 9
  21024759.250    21024763.412   -14126354.069 9 -12419219.167 7
  20308047.512    20308053.363   -25315168.531 8 -12267699.189 8
 89 11 27 12  6 59.0800000  0  4G13G 6G11G 9
  20956574.034    20956577.888   -44919538.672 9  18088936.515 8
  21552594.247    21552597.834    -1191531.524 9  -2294424.640 9
  21033089.118    21033092.079   -14082589.217 9 -12385116.674 8
  20307047.260    20307050.325   -25320427.738 7 -12271797.260 7
 89 11 27 12  7 29.0800000  0  4G13G 6G11G 9
  20947688.858    20947693.454   -44966225.125 9  18052557.488 8
  21566881.425    21566885.983    -1116446.888 9  -2235917.131 9
  21041481.861    21041489.098   -14038469.390 9 -12350737.606 8
  20306160.860    20306164.345   -25325091.333 8 -12275431.230 8
 89 11 27 12  7 59.0800000  0  4G13G 6G11G 9
  20938895.817    20938899.147   -45012438.393 9  18016547.178 9
  21581261.616    21581265.215    -1040879.629 9  -2177033.559 9
  21049947.494    21049949.567   -13993997.290 9 -12316084.004 8
  20305385.008    20305389.957   -25329158.343 7 -12278600.325 8
 89 11 27 12  8 29.0800000  0  4G13G 6G11G 9
  20930191.823    20930196.383   -45058178.599 9  17980905.497 8
  21595732.840    21595737.140     -964830.834 9  -2117774.752 9
  21058473.942    21058480.766   -13949174.940 9 -12281157.501 9
  20304726.423    20304730.280   -25332627.166 7 -12281303.287 8
 89 11 27 12  8 59.0800000  0  4G13G 6G11G 9
  20921578.047    20921582.028   -45103445.963 9  17945632.241 8
  21610296.218    21610300.626     -888301.852 9  -2058141.794 9
  21067071.248    21067076.355   -13904004.438 9 -12245959.713 8
  20304179.180    20304184.040   -25335496.629 8 -12283539.231 7
 89 11 27 12  9 29.0800000  0  4G13G 6G11G 9
  20913053.727    20913058.838   -45148240.102 9  17910727.734 8
  21624950.499    21624955.132     -811294.199 9  -1998135.825 9
  21075731.916    21075736.924   -13858488.342 8 -12210492.607 8
  20303748.321    20303752.794   -25337765.662 7 -12285307.308 7
 89 11 27 12  9 59.0800000  0  4G13G 6G11G 9
  20904618.667    20904623.856   -45192561.161 9  17876191.869 8
  21639696.283    21639699.013     -733809.585 9  -1937758.202 9
  21084459.408    21084463.785   -13812628.659 9 -12174757.786 8
  20303430.336    20303434.338   -25339433.198 9 -12286606.678 8
 89 11 27 12 10 29.0800000  0  4G13G 6G11G 9
  20896274.864    20896279.565   -45236409.005 9  17842024.744 8
  21654530.942    21654534.391     -655849.199 9  -1877009.845 9
  21093251.950    21093256.141   -13766427.344 9 -12138756.751 7
  20303228.208    20303233.474   -25340497.782 8 -12287436.227 9
 89 11 27 12 10 59.0800000  0  4G13G 6G11G 9
  20888021.493    20888026.826   -45279783.745 9  17808226.274 7
  21669455.902    21669460.153     -577414.603 9  -1815891.981 9
  21102106.593    21102112.113   -13719887.062 9 -12102491.607 8
  20303141.617    20303144.404   -25340958.467 7 -12287795.225 8
 89 11 27 12 11 29.0800000  0  4G13G 6G11G 9
  20879857.135    20879861.554   -45322685.874 9  17774796.065 8
  21684471.634    21684474.889     -498507.424 9  -1754405.851 9
  21111028.060    21111033.167   -13673010.010 9 -12065964.043 7
  20303169.388    20303172.699   -25340814.318 7 -12287682.887 8
 89 11 27 12 11 59.0800000  0  4G13G 6G11G 9
  20871783.166    20871788.400   -45365115.607 9  17741733.959 8
  21699576.696    21699579.887     -419129.499 9  -1692552.941 9
  21120013.174    21120017.537   -13625798.919 9 -12029176.174 8
  20303310.077    20303316.150   -25340064.537 8 -12287098.646 8
 89 11 27 12 12 29.0800000  0  4G13G 6G11G 9
  20863799.596    20863803.945   -45407072.195 9  17709040.543 8
  21714771.544    21714775.092     -339281.641 9  -1630333.837 9
  21129058.674    21129063.836   -13578255.191 9 -11992129.118 9
  20303569.011    20303573.525   -25338707.439 8 -12286041.138 8
 89 11 27 12 12 59.0800000  0  4G13G 6G11G 9
  20855905.860    20855909.007   -45448555.883 9  17676715.597 8
  21730054.728    21730059.278     -258965.601 9  -1567749.919 9
  21138170.739    21138172.898   -13530381.254 9 -11954824.727 8
  20303942.307    20303946.604   -25336742.106 8 -12284509.714 8
 89 11 27 12 13 29.0800000  0  4G13G 6G11G 9
  20848101.170    20848104.925   -45489567.124 9  17644758.830 8
  21745427.214    21745431.279     -178183.319 9  -1504802.687 9
  21147340.843    21147346.279   -13482179.998 9 -11917265.313 8
  20304433.503    20304437.370   -25334168.026 8 -12282503.910 7
 89 11 27 12 13 59.0800000  0  4G13G 6G11G 9
  20840386.032    20840390.854   -45530105.725 9  17613170.351 8
  21760886.995    21760891.940      -96936.027 9  -1441493.115 9
  21156575.538    21156580.989   -13433653.330 9 -11879452.327 9
  20305039.230    20305042.003   -25330983.702 8 -12280022.627 8
 89 11 27 12 14 29.0800000  0  4G13G 6G11G 9
  20832762.450    20832765.587   -45570171.633 9  17581950.186 7
  21776437.282    21776440.953      -15225.359 8  -1377822.463 9
  21165872.049    21165876.155   -13384803.214 9 -11841387.316 8
  20305761.239    20305764.833   -25327188.311 8 -12277065.176 9
 89 11 27 12 14 59.0800000  0  4G13G 6G11G 9
  20825228.125    20825232.854   -45609765.429 9  17551097.897 8
  21792073.281    21792078.146       66946.571 9  -1313792.386 9
  21175229.230    21175234.439   -13335632.317 9 -11803072.312 8
  20306599.243    20306604.469   -25322781.262 9 -12273631.109 7
 89 11 27 12 15 29.0800000  0  4G13G 6G11G 9
  20817783.923    20817787.492   -45648886.960 9  17520613.626 8
  21807798.075    21807803.069      149578.667 9  -1249403.738 9
  21184647.028    21184651.433   -13286142.621 9 -11764508.924 9
  20307554.349    20307557.903   -25317761.262 7 -12269719.418 7
 89 11 27 12 15 59.0800000  0  4G13G 6G11G 9
  20810427.296    20810432.891   -45687536.748 9  17490496.934 8
  21823609.969    21823614.169      232669.207 9  -1184657.864 9
  21194125.265    21194128.339   -13236336.471 9 -11725698.921 8
  20308627.105    20308630.936   -25312127.533 8 -12265329.488 7
 89 11 27 12 16 29.0800000  0  4G13G 6G11G 9
  20803162.486    20803167.385   -45725715.006 9  17460747.669 7
  21839508.613    21839512.570      316216.451 9  -1119556.120 9
  21203661.084    21203665.303   -13186216.177 9 -11686644.149 8
  20309816.396    20309820.149   -25305879.143 8 -12260460.613 8
 89 11 27 12 16 59.0800000  0  4G13G 6G11G 9
  20795987.167    20795993.287   -45763422.339 9  17431365.357 8
  21855493.527    21855497.692      400218.392 9  -1054100.056 9
  21213258.087    21213263.552   -13135784.574 9 -11647346.794 9
  20311120.026    20311126.544   -25299015.709 7 -12255112.480 7
 89 11 27 12 17 29.0800000  0  4G13G 6G11G 9
  20788902.014    20788904.764   -45800658.531 9  17402350.162 7
  21871564.353    21871568.245      484673.397 9   -988290.959 9
  21222913.415    21222919.653   -13085043.344 9 -11607808.185 8
  20312546.001    20312549.223   -25291536.162 8 -12249284.265 8
 89 11 27 12 17 59.0800000  0  4G13G 6G11G 9
  20781905.395    20781910.976   -45837423.726 9  17373701.990 8
  21887721.558    21887726.687      569579.807 9   -922130.125 9
  21232628.900    21232633.205   -13033994.950 9 -11568030.218 9
  20314086.714    20314089.261   -25283439.906 7 -12242975.496 8
 89 11 27 12 18 29.0800000  0  4G13G 6G11G 9
  20774999.573    20775003.578   -45873718.314 9  17345420.514 8
  21903964.015    21903967.857      654935.652 9   -855619.076 9
  21242400.906    21242405.568   -12982641.818 9 -11528014.753 9
  20315743.965    20315747.422   -25274726.301 7 -12236185.655 8
 89 11 27 12 18 59.0800000  0  4G13G 6G11G 9
  20768181.974    20768186.787   -45909542.687 9  17317505.453 7
  21920292.872    21920296.292      740739.372 9   -788759.038 9
  21252230.061    21252236.071   -12930986.036 9 -11487763.497 8
  20317520.931    20317523.734   -25265394.370 7 -12228914.025 8
 89 11 27 12 19 29.0800000  0  4G13G 6G11G 9
  20761454.675    20761457.422   -45944896.968 9  17289956.704 7
  21936706.239    21936709.545      826989.407 9   -721551.196 9
  21262118.544    21262123.050   -12879029.527 9 -11447277.908 9
  20319414.014    20319417.693   -25255443.158 7 -12221159.842 8
 89 11 27 12 19 59.0800000  0  4G13G 6G11G 9
  20754815.304    20754819.205   -45979782.631 9  17262773.056 7
  21953203.794    21953207.342      913683.165 9   -653997.620 9
  21272061.173    21272066.192   -12826775.293 9 -11406560.313 8
  20321425.198    20321429.369   -25244872.961 8 -12212923.309 8
 89 11 27 12 20 29.0800000  0  4G13G 6G11G 9
  20748266.314    20748269.549   -46014198.447 9  17235955.578 7
  21969784.965    21969788.521     1000819.906 9   -586098.861 9
  21282060.722    21282065.829   -12774224.962 9 -11365611.997 9
  20323555.158    20323556.841   -25233681.952 8 -12204203.049 7
 89 11 27 12 20 59.0800000  0  4G13G 6G11G 9
  20741805.135    20741810.919   -46048145.440 9  17209503.380 8
  21986450.230    21986453.908     1088397.242 9   -517856.791 9
  21292117.824    21292123.189   -12721381.110 9 -11324435.000 9
  20325803.278    20325806.394   -25221870.167 8 -12194999.046 8
 89 11 27 12 21 29.0800000  0  4G13G 6G11G 9
  20735435.632    20735439.447   -46081623.916 9  17183416.283 7
  22003199.305    22003202.740     1176413.512 9   -449272.680 9
  21302228.815    21302233.063   -12668245.961 9 -11283030.964 9
  20328168.670    20328172.078   -25209436.819 6 -12185310.723 8
 89 11 27 12 21 59.0800000  0  4G13G 6G11G 9
  20729154.354    20729159.881   -46114634.574 9  17157693.732 7
  22020030.215    22020034.386     1264866.758 9   -380348.076 9
  21312394.895    21312398.127   -12614821.750 9 -11241401.695 9
  20330652.186    20330657.451   -25196381.273 7 -12175137.579 8
 89 11 27 12 22 29.0800000  0  4G13G 6G11G 9
  20722961.197    20722964.191   -46147177.872 9  17132335.329 7
  22036946.042    22036948.639     1353754.943 9   -311084.551 9
  21322616.697    21322620.715   -12561110.800 9 -11199549.007 9
  20333255.217    20333259.569   -25182703.321 8 -12164479.445 7
 89 11 27 12 22 59.0800000  0  4G13G 6G11G 9
  20716856.295    20716861.456   -46179254.107 9  17107340.884 7
  22053942.737    22053945.880     1443075.775 9   -241483.904 9
  21332890.669    21332895.988   -12507116.011 9 -11157475.143 8
  20335976.589    20335980.774   -25168402.852 7 -12153336.206 7
 89 11 27 12 23 29.0800000  0  4G13G 6G11G 9
  20710841.982    20710847.197   -46210863.833 9  17082709.949 8
  22071022.584    22071025.180     1532827.723 9   -171547.317 9
  21343219.444    21343223.507   -12452839.202 9 -11115181.535 9
  20338818.549    20338821.597   -25153478.919 7 -12141707.157 8
 89 11 27 12 23 59.0800000  0  4G13G 6G11G 9
  20704915.645    20704918.606   -46242007.298 8  17058442.349 7
  22088183.269    22088186.461     1623009.377 9   -101275.898 9
  21353601.679    21353605.498   -12398282.220 9 -11072669.601 8
  20341775.984    20341779.630   -25137930.572 8 -12129591.581 8
 89 11 27 12 24 29.0800000  0  4G13G 6G11G 9
  20699076.669    20699083.347   -46272685.464 9  17034537.309 8
  22105424.745    22105428.301     1713618.044 9    -30671.757 9
  21364035.942    21364040.992   -12343447.751 9 -11029941.431 8
  20344852.602    20344857.487   -25121758.233 9 -12116989.751 8
 89 11 27 12 24 59.0800000  0  4G13G 6G11G 9
  20693329.080    20693332.250   -46302898.847 9  17010994.437 8
  22122748.470    22122750.580     1804651.716 9     40263.578 9
  21374521.290    21374527.283   -12288337.934 9 -10986998.738 8
  20348049.706    20348053.958   -25104961.434 8 -12103901.339 7
 89 11 27 12 25 29.0800000  0  4G13G 6G11G 9
  20687665.892    20687671.331   -46332647.776 8  16987813.496 7
  22140151.682    22140156.125     1896108.776 9    111528.816 9
  21385061.756    21385066.347   -12232954.938 9 -10943843.152 9
  20351365.865    20351368.991   -25087539.572 8 -12090325.859 8
 89 11 27 12 25 59.0800000  0  4G13G 6G11G 9
  20682093.898    20682098.442   -46361932.796 9  16964994.015 8
  22157635.992    22157639.233     1987987.194 9    183122.380 9
  21395652.048    21395657.927   -12177301.534 9 -10900476.855 9
  20354799.056    20354803.826   -25069492.188 7 -12076262.961 7
 89 11 27 12 26 29.0800000  0  4G13G 6G11G 9
  20676608.644    20676613.501   -46390754.232 8  16942535.770 7
  22175200.168    22175203.315     2080284.852 9    255042.639 8
  21406293.422    21406296.582   -12121379.542 9 -10856901.288 7
  20358353.017    20358355.944   -25050819.023 7 -12061712.434 8
 89 11 27 12 26 59.0800000  0  4G13G 6G11G 9
  20671213.508    20671218.486   -46419113.073 9  16920437.993 8
  22192843.553    22192846.730     2172999.864 9    327288.096 9
  21416986.595    21416989.757   -12065191.319 9 -10813118.238 7
  20362023.530    20362026.478   -25031519.971 7 -12046674.215 8
 89 11 27 12 27 29.0800000  0  4G13G 6G11G 9
  20665903.957    20665909.949   -46447009.695 9  16898700.393 6
  22210565.940    22210568.780     2266130.027 9    399857.054 9
  21427727.334    21427733.716   -12008739.179 9 -10769129.562 9
  20365815.634    20365821.704   -25011594.518 8 -12031147.879 7
 89 11 27 12 27 59.0800000  0  4G13G 6G11G 9
  20660683.525    20660688.918   -46474444.341 9  16877322.772 7
  22228365.746    22228370.267     2359673.571 9    472748.127 9
  21438520.185    21438525.836   -11952025.507 9 -10724937.097 8
  20369727.473    20369730.340   -24991042.571 8 -12015133.377 8
 89 11 27 12 28 29.0800000  0  4G13G 6G11G 9
  20655551.316    20655555.910   -46501417.829 9  16856304.479 8
  22246245.368    22246248.167     2453628.258 9    545959.571 9
  21449362.290    21449367.125   -11895052.198 8 -10680542.290 8
  20373757.619    20373761.450   -24969863.949 7 -11998630.557 8
 89 11 27 12 28 59.0800000  0  4G13G 6G11G 9
  20650506.502    20650509.952   -46527931.402 9  16835644.577 8
  22264201.695    22264205.580     2547991.815 9    619489.620 9
  21460252.501    21460256.964   -11837821.965 9 -10635947.311 9
  20377907.546    20377910.795   -24948058.583 7 -11981639.363 8
 89 11 27 12 29 29.0800000  0  4G13G 6G11G 9
  20645548.576    20645551.076   -46553985.713 9  16815342.554 7
  22282235.921    22282239.356     2642762.341 9    693336.779 9
  21471192.738    21471197.516   -11780336.670 9 -10591153.566 8
  20382174.925    20382180.605   -24925626.200 8 -11964159.590 8
 89 11 27 12 29 59.0800000  0  4G13G 6G11G 9
  20640677.986    20640681.863   -46579581.306 9  16795397.975 7
  22300347.525    22300349.736     2737937.296 9    767499.096 9
  21482178.420    21482183.856   -11722599.046 9 -10546163.209 9
  20386562.930    20386567.680   -24902567.161 8 -11946191.520 8
 89 11 27 12 30 29.0800000  0  4G13G 6G11G 9
  20635894.464    20635897.635   -46604719.223 9  16775810.004 8
  22318534.194    22318537.041     2833514.840 9    841975.098 9
  21493212.325    21493217.688   -11664611.080 9 -10500977.789 8
  20391071.604    20391075.939   -24878880.781 7 -11927734.603 8
 89 11 27 12 30 59.0800000  0  4G13G 6G11G 9
  20631196.750    20631201.624   -46629399.881 9  16756578.347 8
  22336798.741    22336802.676     2929492.771 9    916763.094 9
  21504295.453    21504300.116   -11606374.891 9 -10455598.938 8
  20395697.357    20395702.020   -24854567.498 8 -11908789.182 7
 89 11 27 12 31 29.0800000  0  4G13G 6G11G 9
  20626587.748    20626591.715   -46653623.117 9  16737703.110 7
  22355138.769    22355141.008     3025869.561 9    991861.879 9
  21515425.343    21515428.618   -11547892.240 9 -10410028.006 9
  20400443.304    20400447.472   -24829626.425 8 -11889354.575 7
 89 11 27 12 31 59.0800000  0  4G13G 6G11G 9
  20622064.020    20622067.897   -46677390.080 9  16719183.423 7
  22373553.132    22373557.669     3122642.615 9   1067269.447 9
  21526598.591    21526603.911   -11489165.927 9 -10364267.258 9
  20405310.509    20405313.568   -24804057.950 8 -11869431.066 8
 89 11 27 12 32 29.0800000  0  4G13G 6G11G 9
  20617627.681    20617632.703   -46700702.116 9  16701018.223 7
  22392044.689    22392047.557     3219809.479 9   1142983.888 9
  21537821.863    21537826.397   -11430198.137 9 -10318318.333 8
  20410294.591    20410297.092   -24777862.493 8 -11849019.037 8
 89 11 27 12 32 59.0800000  0  4G13G 6G11G 9
  20613277.863    20613283.475   -46723559.731 9  16683207.111 8
  22410609.327    22410611.982     3317368.061 9   1219003.564 9
  21549088.635    21549091.409   -11370991.466 9 -10272183.267 8
  20415397.795    20415402.724   -24751039.738 7 -11828118.177 7
 89 11 27 12 33 29.0800000  0  4G13G 6G11G 9
  20609015.803    20609018.807   -46745964.315 8  16665749.014 7
  22429247.746    22429250.843     3415315.832 9   1295326.500 9
  21560399.766    21560402.668   -11311548.280 9 -10225863.879 9
  20420620.045    20420625.026   -24723590.366 7 -11806729.068 7
 89 11 27 12 33 59.0800000  0  4G13G 6G11G 9
  20604838.421    20604843.622   -46767915.702 8  16648644.044 8
  22447960.470    22447964.041     3513651.586 9   1371951.771 9
  21571756.142    21571760.619   -11251869.471 9 -10179360.919 9
  20425963.296    20425968.094   -24695513.452 7 -11784850.953 8
 89 11 27 12 34 29.0800000  0  4G13G 6G11G 9
  20600747.191    20600752.095   -46789415.237 8  16631891.177 8
  22466746.474    22466749.894     3612372.339 9   1448877.032 8
  21583157.563    21583161.167   -11191958.254 9 -10132676.857 9
  20431428.186    20431431.194   -24666809.824 7 -11762484.484 7
 89 11 27 12 34 59.0800000  0  4G13G 6G11G 9
  20596741.299    20596745.526   -46810463.785 8  16615489.730 8
  22485605.302    22485609.503     3711475.694 9   1526100.416 9
  21594602.256    21594604.830   -11131817.293 9 -10085813.755 8
  20437008.113    20437012.525   -24637479.739 8 -11739629.889 7
 89 11 27 12 35 29.0800000  0  4G13G 6G11G 9
  20592822.170    20592826.601   -46831062.310 8  16599438.960 8
  22504536.228    22504539.276     3810960.044 9   1603620.690 9
  21606088.360    21606092.707   -11071447.600 8 -10038772.448 9
  20442708.622    20442712.664   -24607522.725 7 -11716286.754 7
 89 11 27 12 35 59.0800000  0  4G13G 6G11G 9
  20588987.382    20588991.566   -46851211.679 8  16583738.184 8
  22523539.938    22523543.172     3910822.724 9   1681435.767 9
  21617621.455    21617624.685   -11010851.824 9  -9991554.976 9
  20448527.560    20448531.931   -24576939.591 7 -11692455.723 7
 89 11 27 12 36 29.0800000  0  4G13G 6G 3G 9
  20585238.104    20585242.900   -46870913.257 9  16568386.307 8
  22542614.393    22542617.929     4011061.145 9   1759543.624 9
                  23952282.444   -74793914.398 9
  20454468.178    20454471.633   -24545730.508 6 -11668136.974 9
 89 11 27 12 36 59.0800000  0  4G13G 6G 3G 9
  20581573.660    20581580.588   -46890166.957 8  16553383.452 8
  22561759.956    22561763.901     4111673.410 9   1837942.799 9
  23936040.476    23936044.032   -74879404.887 9  94934372.869 8
  20460525.861    20460529.717   -24513895.563 8 -11643330.516 8
 89 11 27 12 37 29.0800000  0  4G13G 6G 3G 9
  20577995.639    20578000.809   -46908973.929 9  16538728.701 9
  22580977.360    22580980.202     4212657.178 9   1916631.433 9
  23919818.925    23919822.138   -74964652.071 9  94867946.494 8
  20466702.610    20466705.337   -24481435.031 9 -11618036.607 8
 89 11 27 12 37 59.0800000  0  4G13G 6G 3G 9
  20574501.890    20574505.678   -46927335.371 9  16524421.109 9
  22600263.926    22600266.297     4314010.135 9   1995607.767 9
  23903642.946    23903647.497   -75049655.524 9  94801710.035 8
  20472998.957    20473001.497   -24448349.309 7 -11592255.521 8
 89 11 27 12 38 29.0800000  0  4G13G 6G 3G 9
  20571091.277    20571096.931   -46945252.243 9  16510459.947 8
  22619621.224    22619623.501     4415729.845 9   2074869.877 9
  23887512.531    23887517.227   -75134414.768 9  94735663.874 9
  20479413.282    20479416.453   -24414638.906 9 -11565987.687 7
 89 11 27 12 38 59.0800000  0  4G13G 6G 3G 9
  20567766.889    20567771.116   -46962725.142 9  16496844.716 8
  22639047.097    22639049.510     4517813.919 9   2154415.916 9
  23871431.106    23871435.542   -75218928.930 9  94669808.701 8
  20485946.089    20485951.147   -24380304.190 8 -11539233.349 8
 89 11 27 12 39 29.0800000  0  4G13G 6G 3G 9
  20564526.609    20564529.903   -46979755.102 9  16483574.631 7
  22658541.934    22658544.091     4620260.169 9   2234244.154 9
  23855395.016    23855399.810   -75303197.249 9  94604145.076 9
  20492599.821    20492602.633   -24345345.466 8 -11511992.801 8
 89 11 27 12 39 59.0800000  0  4G13G 6G 3G 9
  20561369.712    20561373.266   -46996343.362 8  16470648.734 8
  22678104.726    22678107.317     4723066.160 9   2314352.711 9
  23839406.967    23839410.293   -75387218.627 8  94538673.893 9
  20499370.159    20499374.374   -24309763.020 8 -11484266.226 7
 89 11 27 12 40 29.0800000  0  4G13G 6G 3G 9
  20558296.792    20558299.982   -47012491.370 8  16458065.897 8
  22697735.979    22697739.537     4826229.504 9   2394739.725 8
  23823464.638    23823468.537   -75470992.643 9  94473395.439 8
  20506259.349    20506263.106   -24273557.529 9 -11456054.157 9
 89 11 27 12 40 59.0800000  0  4G13G 6G 3G 9
  20555308.126    20555311.762   -47028200.098 8  16445825.353 7
  22717434.201    22717436.985     4929747.611 9   2475403.165 9
  23807569.938    23807574.294   -75554518.519 9  94408310.354 7
  20513268.565    20513271.492   -24236729.608 8 -11427357.081 8
 89 11 27 12 41 29.0800000  0  4G13G 6G 3G 9
  20552402.809    20552406.972   -47043470.549 9  16433926.307 7
  22737200.032    22737203.583     5033618.043 9   2556341.161 9
  23791723.470    23791726.873   -75637795.195 9  94343419.435 8
  20520393.514    20520398.415   -24199279.741 8 -11398175.366 8
 89 11 27 12 41 59.0800000  0  4G13G 6G 3G 9
  20549578.276    20549581.619   -47058303.151 9  16422368.448 8
  22757032.809    22757036.417     5137838.852 9   2637552.162 9
  23775923.332    23775927.732   -75720822.163 9  94278723.121 8
  20527639.276    20527643.991   -24161208.304 8 -11368509.311 8
 89 11 27 12 42 29.0800000  0  4G13G 6G 3G 9
  20546839.286    20546844.273   -47072699.287 9  16411150.685 8
  22776931.601    22776936.017     5242407.115 9   2719033.904 9
  23760171.091    23760176.324   -75803598.648 8  94214221.958 8
  20535001.569    20535006.157   -24122516.035 9 -11338359.500 8
 89 11 27 12 42 59.0800000  0  4G13G 6G 3G 9
  20544182.399    20544187.509   -47086660.344 9  16400271.943 7
  22796896.460    22796900.032     5347320.788 9   2800784.823 9
  23744468.920    23744471.665   -75886123.781 8  94149916.681 9
  20542483.447    20542486.832   -24083203.348 9 -11307726.230 8
 89 11 27 12 43 29.0800000  0  4G13G 6G 3G 9
  20541608.537    20541611.795   -47100187.150 9  16389731.609 8
  22816925.810    22816929.560     5452576.988 9   2882802.636 9
  23728813.316    23728815.895   -75968397.163 8  94085807.556 8
  20550082.373    20550086.274   -24043271.175 9 -11276610.261 8
 89 11 27 12 43 59.0800000  0  4G13G 6G 3G 9
  20539117.294    20539123.367   -47113281.036 9  16379528.588 8
  22837019.708    22837024.367     5558173.188 9   2965085.388 9
  23713205.044    23713207.890   -76050418.159 9  94021895.114 8
  20557798.778    20557802.907   -24002720.320 8 -11245012.198 8
 89 11 27 12 44 29.0800000  0  4G13G 6G 3G 9
  20536706.248    20536710.766   -47125943.510 8  16369661.735 8
  22857179.500    22857182.707     5664106.830 9   3047631.079 9
  23697644.065    23697648.923   -76132186.079 8  93958179.850 8
  20565633.878    20565637.077   -23961551.631 9 -11212932.694 8
 89 11 27 12 44 59.0800000  0  4G13G 6G 3G 9
  20534380.101    20534384.822   -47138174.423 9  16360131.195 8
  22877401.852    22877405.417     5770376.440 9   3130438.573 8
  23682132.984    23682135.956   -76213699.503 9  93894662.896 8
  20573586.384    20573589.382   -23919764.776 9 -11180371.521 7
 89 11 27 12 45 29.0800000  0  4G13G 6G 3G 9
  20532134.428    20532139.135   -47149975.756 9  16350935.370 8
  22897686.835    22897690.049     5876978.710 9   3213505.280 9
  23666669.820    23666673.300   -76294958.422 9  93831344.285 9
  20581655.510    20581657.593   -23877361.309 9 -11147329.872 8
 89 11 27 12 45 59.0800000  0  4G13G 6G 3G 9
  20529969.666    20529974.542   -47161348.383 9  16342073.603 8
  22918035.609    22918038.379     5983911.307 9   3296829.369 9
  23651255.235    23651258.831   -76375961.985 9  93768224.618 9
  20589840.169    20589844.312   -23834341.861 9 -11113808.211 8
 89 11 27 12 46 29.0800000  0  4G13G 6G 3G 9
  20527886.832    20527891.964   -47172293.220 8  16333545.162 8
  22938447.157    22938450.329     6091172.045 9   3380409.165 8
  23635889.300    23635892.766   -76456709.028 9  93705304.826 9
  20598144.281    20598147.280   -23790706.811 8 -11079806.871 7
 89 11 27 12 46 59.0800000  0  4G13G 6G 3G 9
  20525884.348    20525889.883   -47182812.099 8  16325348.660 8
  22958919.799    22958923.414     6198758.223 9   3464242.541 9
  23620572.723    23620576.873   -76537199.599 9  93642584.932 8
  20606564.598    20606567.611   -23746457.391 9 -11045326.810 8
 89 11 27 12 47 29.0800000  0  4G13G 6G 3G 9
  20523965.300    20523969.141   -47192906.600 8  16317482.847 8
  22979452.574    22979457.370     6306667.220 9   3548327.462 9
  23605304.200    23605308.392   -76617432.714 9  93580065.623 8
  20615102.022    20615105.736   -23701594.382 8 -11010368.636 7
 89 11 27 12 47 59.0800000  0  4G13G 6G 3G 9
  20522124.852    20522128.271   -47202577.707 9  16309946.950 9
  23000049.390    23000052.905     6414896.262 9   3632661.764 9
  23590086.991    23590090.234   -76697408.149 8  93517747.098 9
  20623755.493    20623757.789   -23656118.920 9 -10974933.225 7
 89 11 27 12 48 29.0800000  0  4G13G 6G 3G 9
  20520364.843    20520369.654   -47211825.327 9  16302741.016 8
  23020703.681    23020708.354     6523443.138 9   3717243.738 9
  23574917.018    23574920.538   -76777124.890 9  93455630.163 9
  20632526.471    20632528.381   -23610031.570 8 -10939020.992 7
 89 11 27 12 48 59.0800000  0  4G13G 6G 3G 9
  20518684.673    20518690.192   -47220652.140 9  16295862.990 8
  23041420.822    23041425.045     6632305.229 9   3802071.327 9
  23559795.619    23559801.000   -76856582.336 9  93393715.257 9
  20641411.922    20641416.021   -23563333.250 8 -10902632.704 7
 89 11 27 12 49 29.0800000  0  4G13G 6G 3G 9
  20517085.346    20517089.398   -47229059.157 8  16289312.091 7
  23062195.280    23062199.210     6741479.873 9   3887142.474 9
  23544725.293    23544730.427   -76935779.945 9  93332002.842 9
  20650414.695    20650417.507   -23516025.085 8 -10865769.206 8
 89 11 27 12 49 59.0800000  0  4G13G 6G 3G 9
  20515563.872    20515568.926   -47237047.689 9  16283087.289 8
  23083029.837    23083033.988     6850964.682 9   3972455.304 9
  23529704.816    23529707.864   -77014717.199 9  93270493.311 9
  20659533.644    20659535.869   -23468108.028 9 -10828431.238 8
 89 11 27 12 50 29.0800000  0  4G13G 6G 3G 9
  20514124.983    20514129.163   -47244618.473 9  16277187.955 7
  23103922.553    23103926.604     6960756.980 9   4058007.730 9
  23514732.926    23514736.900   -77093393.549 9  93209187.068 9
  20668767.037    20668769.391   -23419583.026 9 -10790619.564 8
 89 11 27 12 50 59.0800000  0  4G13G 6G 3G 9
  20512763.339    20512765.891   -47251772.865 9  16271613.128 8
  23124874.194    23124878.080     7070854.163 9   4143797.729 9
  23499810.525    23499814.603   -77171808.288 9  93148084.699 9
  20678116.679    20678120.164   -23370450.975 9 -10752334.850 8
 89 11 27 12 51 29.0800000  0  4G13G 6G 3G 9
  20511480.761    20511484.870   -47258512.963 9  16266361.119 7
  23145882.401    23145886.107     7181253.522 9   4229823.188 9
  23484937.358    23484942.245   -77249960.974 9  93087186.504 9
  20687581.925    20687585.610   -23320713.237 9 -10713578.191 7
 89 11 27 12 51 59.0800000  0  4G13G 6G 3G 9
  20510275.968    20510280.248   -47264839.258 9  16261431.539 8
  23166947.098    23166951.221     7291952.618 9   4316082.218 8
  23470116.029    23470120.407   -77327850.935 9  93026493.049 8
  20697160.800    20697164.670   -23270371.011 9 -10674350.479 8
 89 11 27 12 52 29.0800000  0  4G13G 6G 3G 9
  20509151.280    20509155.298   -47270753.395 9  16256823.145 8
  23188068.718    23188072.605     7402948.846 9   4402572.780 8
  23455343.989    23455348.847   -77405477.700 9  92966004.670 9
  20706856.380    20706857.775   -23219425.065 8 -10634652.342 7
 89 11 27 12 52 59.0800000  0  4G13G 6G 3G 9
  20508103.672    20508107.762   -47276256.697 9  16252534.853 8
  23209246.023    23209250.403     7514239.578 9   4489292.820 9
  23440622.843    23440627.054   -77482840.894 9  92905721.666 8
  20716665.132    20716667.587   -23167876.785 9 -10594484.844 7
 89 11 27 12 53 29.0800000  0  4G13G 6G 3G 9
  20507134.437    20507138.649   -47281350.428 9  16248565.721 8
  23230479.899    23230484.029     7625822.114 9   4576240.246 9
  23425951.006    23425956.024   -77559939.841 9  92845644.586 9
  20726588.917    20726591.356   -23115727.253 8 -10553848.857 7
 89 11 27 12 53 59.0800000  0  4G13G 6G 3G 9
  20506242.048    20506246.157   -47286036.094 9  16244914.562 8
  23251768.537    23251772.108     7737694.009 9   4663413.143 9
  23411329.509    23411334.012   -77636773.860 9  92785773.934 9
  20736626.358    20736630.515   -23062977.299 9 -10512745.001 8
 89 11 27 12 54 29.0800000  0  4G13G 6G 3G 9
  20505427.488    20505432.831   -47290315.626 9  16241579.879 8
  23273109.637    23273115.428     7849851.841 8   4750808.835 9
  23396759.178    23396762.626   -77713343.372 9  92726109.392 9
  20746776.841    20746781.285   -23009629.339 9 -10471175.159 8
 89 11 27 12 54 59.0800000  0  4G13G 6G 3G 9
  20504691.058    20504694.688   -47294188.837 9  16238561.799 8
  23294508.242    23294513.287     7962293.992 9   4838426.080 9
  23382238.267    23382244.110   -77789646.756 9  92666652.230 9
  20757043.002    20757046.357   -22955683.314 8 -10429139.298 7
 89 11 27 12 55 29.0800000  0  4G13G 6G 3G 9
  20504030.674    20504036.709   -47297657.905 9  16235858.653 8
  23315959.495    23315963.582     8075017.162 9   4926262.287 9
  23367768.627    23367774.032   -77865684.292 9  92607402.210 9
  20767424.022    20767425.875   -22901141.248 9 -10386638.993 7
 89 11 27 12 55 59.0800000  0  4G13G 6G 3G 9
  20503446.131    20503451.503   -47300724.162 9  16233469.385 8
  23337462.706    23337466.729     8188019.264 9   5014315.881 9
  23353350.890    23353355.762   -77941454.874 9  92548360.199 9
  20777916.323    20777917.918   -22846003.544 9 -10343674.545 7
 89 11 27 12 56 29.0800000  0  4G13G 6G 3G 9
  20502939.569    20502942.688   -47303389.684 9  16231392.377 7
  23359019.411    23359022.354     8301297.209 9   5102584.410 8
  23338982.690    23338986.901   -78016958.426 9  92489526.275 9
  20788520.738    20788523.235   -22790272.393 9 -10300247.678 8
 89 11 27 12 56 59.0800000  0  4G13G 6G 3G 9
  20502508.409    20502513.225   -47305655.100 8  16229627.135 8
  23380627.488    23380631.109     8414848.424 9   5191065.848 9
  23324666.608    23324671.042   -78092194.308 9  92430900.933 8
  20799238.925    20799240.964   -22733948.835 9 -10256359.208 8
 89 11 27 12 57 29.0800000  0  4G13G 6G 3G 9
  20502154.543    20502157.192   -47307521.615 8  16228172.736 8
  23402287.985    23402290.548     8528670.505 9   5279758.384 9
  23310400.671    23310405.272   -78167162.169 9  92372484.419 9
  20810069.282    20810071.106   -22677034.004 9 -10212009.986 7
 89 11 27 12 57 59.0800000  0  4G13G 6G 3G 9
  20501875.293    20501877.782   -47308992.143 9  16227026.887 8
  23423997.777    23424001.142     8642759.997 9   5368659.272 9
  23296185.157    23296190.398   -78241862.075 9  92314276.701 9
  20821011.966    20821015.551   -22619529.976 9 -10167201.645 7
 89 11 27 12 58 29.0800000  0  4G13G 6G 3G 9
  20501670.522    20501674.102   -47310066.762 9  16226189.536 8
  23445758.159    23445762.024     8757114.922 9   5457766.986 8
  23282022.248    23282026.080   -78316292.996 9  92256278.594 8
  20832067.206    20832069.145   -22561437.632 9 -10121934.877 8
 89 11 27 12 58 59.0800000  0  4G13G 6G 3G 9
  20501540.213    20501545.863   -47310747.663 9  16225658.972 8
  23467569.011    23467573.598     8871732.035 9   5547079.007 9
  23267909.683    23267913.425   -78390455.117 8  92198489.945 9
  20843232.470    20843234.495   -22502758.794 9 -10076211.130 8
 89 11 27 12 59 29.0800000  0  4G13G 6G 3G 9
  20501486.435    20501488.316   -47311035.996 9  16225434.307 8
  23489429.637    23489434.746     8986609.203 9   5636593.671 9
  23253847.771    23253852.827   -78464347.529 8  92140911.453 9
  20854510.804    20854512.714   -22443494.604 9 -10030031.238 8
 89 11 27 12 59 59.0800000  0  4G13G 6G 3G 9
  20501505.167    20501509.084   -47310933.260 9  16225514.385 8
  23511337.911    23511343.686     9101742.993 9   5726308.298 9
  23239837.653    23239842.455   -78537970.082 9  92083543.220 9
  20865898.590    20865901.544   -22383646.804 8  -9983396.588 7
 89 11 27 13  0 29.0800000  0  4G13G 6G 3G 9
  20501599.330    20501602.842   -47310440.409 8  16225898.431 8
  23533296.319    23533300.685     9217131.393 9   5816221.328 9
  23225878.435    23225883.523   -78611322.190 9  92026385.755 9
  20877397.443    20877401.072   -22323216.642 9  -9936308.172 7
 89 11 27 13  0 59.0800000  0  4G13G 6G 3G 9
  20501766.852    20501770.739   -47309559.357 9  16226584.963 8
  23555302.448    23555305.805     9332771.111 9   5906330.183 9
  23211971.139    23211976.287   -78684403.912 9  91969438.961 9
  20889007.465    20889011.522   -22262206.034 9  -9888767.440 6
 89 11 27 13  1 29.0800000  0  4G13G 6G 3G 9
  20502007.039    20502011.514   -47308291.829 9  16227572.660 7
  23577355.824    23577359.297     9448660.043 9   5996633.233 9
  23198116.812    23198120.336   -78757214.513 9  91912703.441 8
  20900728.355    20900731.381   -22200615.877 8  -9840775.096 7
 89 11 27 13  1 59.0800000  0  4G13G 6G 3G 9
  20502321.717    20502325.920   -47306639.058 8  16228860.555 9
  23599454.133    23599458.815     9564795.071 9   6087128.040 9
  23184313.632    23184316.699   -78829753.658 9  91856179.439 8
  20912558.408    20912560.736   -22138448.341 8  -9792332.869 7
 89 11 27 13  2 29.0800000  0  4G13G 6G 3G 9
  20502708.631    20502713.127   -47304602.950 9  16230447.143 8
  23621601.200    23621604.558     9681173.571 8   6177812.581 8
  23170562.633    23170565.046   -78902021.196 9  91799867.072 8
  20924498.287    20924500.956   -22075705.001 8  -9743441.956 7
 89 11 27 13  2 59.0800000  0  4G13G 6G 3G 9
  20503168.830    20503173.218   -47302184.898 8  16232331.346 8
  23643793.735    23643796.176     9797792.608 9   6268684.541 9
  23156860.801    23156865.225   -78974016.858 8  91743766.562 8
  20936546.742    20936550.613   -22012387.305 8  -9694103.509 7
 89 11 27 13  3 29.0800000  0  4G13G 6G 3G 9
  20503702.589    20503705.519   -47299386.513 8  16234511.936 8
  23666030.069    23666032.168     9914649.242 9   6359741.650 9
  23143211.881    23143217.394   -79045740.416 8  91687878.063 8
  20948705.607    20948708.676   -21948497.394 8  -9644319.158 8
 89 11 27 13  3 59.0800000  0  4G13G 6G 3G 9
  20504305.798    20504309.092   -47296208.721 8  16236988.149 8
  23688311.084    23688315.566    10031741.231 9   6450982.138 9
  23129615.612    23129620.189   -79117191.317 9  91632202.029 8
  20960970.804    20960975.690   -21884036.254 7  -9594089.707 8
 89 11 27 13  4 29.0800000  0  4G13G 6G 3G 9
  20504983.649    20504987.600   -47292653.199 8  16239758.717 8
  23710637.775    23710641.526    10149065.703 9   6542403.798 9
  23116071.098    23116074.499   -79188369.324 9  91576738.654 8
  20973345.379    20973350.682   -21819005.926 8  -9543416.750 8
 89 11 27 13  4 59.0800000  0  4G13G 6G 3G 9
  20505731.320    20505736.409   -47288722.025 8  16242821.962 8
  23733007.392    23733011.595    10266619.576 9   6634004.197 9
  23102577.680    23102581.908   -79259274.502 9  91521487.878 8
  20985828.977    20985833.364   -21753408.405 7  -9492301.809 8
 89 11 27 13  5 29.0800000  0  4G13G 6G 3G 9
  20506550.139    20506554.326   -47284415.878 9  16246177.418 8
  23755420.668    23755424.641    10384400.628 9   6725781.634 9
  23089138.638    23089140.509   -79329905.940 9  91466450.387 8
  20998418.621    20998422.907   -21687244.786 8  -9440745.752 8
 89 11 27 13  5 59.0800000  0  4G13G 6G 3G 9
  20507440.940    20507446.018   -47279737.152 9  16249823.193 8
  23777876.614    23777880.385    10502405.627 9   6817733.550 9
  23075748.773    23075752.951   -79400263.894 9  91411626.004 9
  21011116.198    21011120.598   -21620517.340 7  -9388750.357 8
 89 11 27 13  6 29.0800000  0  4G13G 6G 3G 9
  20508401.242    20508406.227   -47274687.203 9  16253758.205 8
  23800374.120    23800378.263    10620632.091 9   6909858.044 9
  23062412.642    23062416.688   -79470347.650 9  91357015.275 8
  21023920.637    21023925.581   -21553227.583 8  -9336316.782 8
 89 11 27 13  6 59.0800000  0  4G13G 6G 3G 9
  20509433.722    20509437.452   -47269268.031 9  16257980.954 7
  23822913.444    23822917.616    10739076.724 9   7002152.551 9
  23049127.827    23049132.124   -79540157.590 9  91302617.915 8
  21036834.126    21036837.769   -21485377.702 8  -9283446.766 8
 89 11 27 13  7 29.0800000  0  4G13G 6G 3G 9
  20510534.067    20510539.368   -47263481.018 9  16262490.326 8
  23845494.058    23845497.280    10857736.852 9   7094614.967 9
  23035895.435    23035900.175   -79609693.498 9  91248434.088 8
  21049850.869    21049854.297   -21416969.676 8  -9230141.812 8
 89 11 27 13  7 59.0800000  0  4G13G 6G 3G 9
  20511705.605    20511709.631   -47257327.536 9  16267285.262 8
  23868115.383    23868118.546    10976609.710 9   7187243.163 9
  23022714.148    23022719.967   -79678955.004 9  91194464.083 9
  21062974.704    21062978.718   -21348005.159 8  -9176403.239 7
 89 11 27 13  8 29.0800000  0  4G13G 6G 3G 9
  20512946.106    20512949.308   -47250808.530 9  16272365.024 8
  23890776.250    23890779.428    11095693.196 9   7280035.452 9
  23009587.907    23009592.086   -79747941.335 9  91140708.512 9
  21076203.825    21076206.508   -21278485.554 9  -9122232.128 8
 89 11 27 13  8 59.0800000  0  4G13G 6G 3G 9
  20514256.592    20514260.215   -47243926.494 9  16277727.661 8
  23913476.188    23913480.483    11214984.007 9   7372989.294 9
  22996512.958    22996516.274   -79816652.606 9  91087167.263 8
  21089538.577    21089541.991   -21208413.040 9  -9067630.173 9
 89 11 27 13  9 29.0800000  0  4G13G 6G 3G 9
  20515634.411    20515637.979   -47236683.418 9  16283371.624 8
  23936215.826    23936217.995    11334478.858 9   7466102.163 9
  22983490.341    22983493.587   -79885089.258 8  91033839.982 8
  21102977.256    21102982.072   -21137790.118 9  -9012599.339 8
 89 11 27 13  9 59.0800000  0  4G13G 6G 3G 9
  20517081.843    20517084.338   -47229080.362 9  16289296.095 8
  23958992.733    23958995.798    11454175.733 8   7559372.450 8
  22970519.350    22970522.741   -79953250.408 9  90980727.407 8
  21116520.364    21116525.465   -21066617.939 9  -8957140.496 7
 89 11 27 13 10 29.0800000  0  4G13G 6G 3G 9
  20518596.528    20518600.019   -47221119.122 8  16295499.656 9
  23981808.176    23981811.734    11574071.469 9   7652797.686 9
  22957601.151    22957605.186   -80021136.049 9  90927829.497 8
  21130167.528    21130172.143   -20994899.099 9  -8901255.707 9
 89 11 27 13 10 59.0800000  0  4G13G 6G 3G 9
  20520178.586    20520182.384   -47212800.887 8  16301981.386 8
  24004660.357    24004665.002    11694163.416 9   7746375.794 9
  22944735.395    22944739.431   -80088745.814 9  90875146.571 8
  21143920.079    21143924.337   -20922635.133 9  -8844946.119 9
 89 11 27 13 11 29.0800000  0  4G13G 6G 3G 9
  20521830.089    20521832.757   -47204127.895 8  16308739.561 9
  24027550.021    24027554.272    11814448.329 9   7840104.264 9
  22931921.651    22931925.229   -80156080.219 9  90822678.201 9
  21157775.170    21157778.870   -20849828.464 9  -8788213.673 9
 89 11 27 13 11 59.0800000  0  4G13G 6G 3G 9
  20523545.544    20523549.768   -47195101.347 8  16315773.254 9
  24050476.246    24050480.039    11934923.661 9   7933981.132 9
  22919160.856    22919164.938   -80223138.827 9  90770424.731 9
  21171732.243    21171735.055   -20776481.212 9  -8731059.965 9
 89 11 27 13 12 29.0800000  0  4G13G 6G 3G 9
  20525330.885    20525337.497   -47185722.853 8  16323081.163 8
  24073436.733    24073441.585    12055586.632 9   8028004.198 9
  22906453.182    22906456.208   -80289921.578 9  90718386.240 9
  21185792.228    21185796.126   -20702595.016 9  -8673486.328 9
 89 11 27 13 12 59.0800000  0  4G13G 6G 3G 9
  20527183.471    20527186.041   -47175994.184 8  16330661.987 8
  24096434.058    24096438.575    12176434.718 9   8122171.519 9
  22893796.280    22893801.810   -80356427.860 9  90666563.160 9
  21199954.808    21199958.995   -20628171.863 9  -8615494.267 9
 89 11 27 13 13 29.0800000  0  4G13G 6G 3G 9
  20529099.551    20529104.096   -47165916.890 8  16338514.435 8
  24119464.940    24119468.964    12297464.728 9   8216480.604 9
  22881194.374    22881198.352   -80422657.852 9  90614955.373 8
  21214218.942    21214222.598   -20553213.998 9  -8557085.539 8
 89 11 27 13 13 59.0800000  0  4G13G 6G 3G 9
  20531082.310    20531088.264   -47155492.679 8  16346637.168 9
  24142530.184    24142534.844    12418673.905 9   8310929.292 8
  22868643.722    22868647.878   -80488611.505 9  90563562.924 8
  21228583.870    21228586.882   -20477723.531 9  -8498261.811 9
 89 11 27 13 14 29.0800000  0  4G13G 6G 3G 9
  20533134.220    20533136.382   -47144723.669 8  16355028.629 8
  24165630.180    24165633.457    12540059.288 9   8405515.289 8
  22856144.525    22856150.020   -80554288.903 9  90512385.734 9
  21243049.320    21243054.535   -20401702.817 9  -8439024.895 8
 89 11 27 13 14 59.0800000  0  4G13G 6G 3G 9
  20535245.182    20535251.389   -47133611.343 9  16363687.606 8
  24188761.475    24188765.383    12661618.269 9   8500236.541 8
  22843699.592    22843703.484   -80619689.896 8  90461423.925 8
  21257616.293    21257620.950   -20325153.820 9  -8379376.338 9
 89 11 27 13 15 29.0800000  0  4G13G 6G 3G 9
  20537427.762    20537431.667   -47122156.976 9  16372613.076 8
  24211926.277    24211930.005    12783347.884 9   8595090.777 9
  22831306.413    22831311.481   -80684814.278 8  90410677.649 9
  21272283.674    21272287.731   -20248078.600 9  -8319317.724 9
 89 11 27 13 15 59.0800000  0  4G13G 6G 3G 9
  20539673.000    20539677.245   -47110362.803 8  16381803.343 8
  24235121.778    24235126.674    12905245.299 8   8690075.737 9
  22818967.640    22818972.308   -80749662.021 9  90360146.963 9
  21287050.732    21287054.389   -20170479.756 9  -8258851.099 8
 89 11 27 13 16 29.0800000  0  4G13G12G 3G 9
  20541978.716    20541984.713   -47098230.148 8  16391257.346 8
                  20646616.602   -89141330.454 9
  22806679.025    22806683.960   -80814233.287 9  90309831.682 9
  21301917.118    21301920.188   -20092359.081 9  -8197977.859 9
 89 11 27 13 16 59.0800000  0  4G13G12G 3G 9
  20544353.441    20544357.212   -47085760.467 9  16400973.990 7
  20641581.173    20641586.062   -89167834.338 9 113197631.977 9
  22794444.351    22794449.408   -80878527.776 9  90259732.092 8
  21316881.458    21316884.827   -20013719.192 9  -8136700.045 9
 89 11 27 13 17 29.0800000  0  4G13G12G 3G 9
  20546790.613    20546794.098   -47072955.867 9  16410951.624 8
  20636649.857    20636653.678   -89193752.977 9 113177435.646 8
  22782262.113    22782268.173   -80942545.472 9  90209848.192 9
  21331945.145    21331947.314   -19934561.776 9  -8075018.933 8
 89 11 27 13 17 59.0800000  0  4G13G12G 3G 9
  20549289.538    20549294.852   -47059817.811 8  16421189.054 9
  20631828.877    20631833.027   -89219085.829 9 113157695.773 8
  22770133.893    22770136.310   -81006286.387 9  90160179.941 9
  21347105.392    21347108.677   -19854889.539 9  -8012936.687 9
 89 11 27 13 18 29.0800000  0  4G13G12G 3G 9
  20551853.548    20551857.529   -47046348.564 9  16431684.604 8
  20627118.857    20627124.237   -89243831.730 9 113138413.261 9
  22758056.120    22758059.824   -81069750.944 9  90110727.044 8
  21362365.116    21362367.285   -19774705.029 9  -7950455.266 9
 89 11 27 13 18 59.0800000  0  4G13G12G 3G 9
  20554477.980    20554484.379   -47032549.079 8  16442437.445 8
  20622522.292    20622527.607   -89267989.162 8 113119589.300 8
  22746031.877    22746035.832   -81132938.625 9  90061489.887 8
  21377719.510    21377723.167   -19694010.238 9  -7887576.208 9
 89 11 27 13 19 29.0800000  0  4G13G12G 3G 9
  20557167.697    20557171.965   -47018421.824 9  16453445.705 7
  20618037.062    20618041.172   -89291556.426 9 113101225.199 9
  22734059.870    22734065.063   -81195850.056 9  90012467.998 8
  21393171.435    21393174.865   -19612807.798 8  -7824301.591 8
 89 11 27 13 19 59.0800000  0  4G13G12G 3G 9
  20559918.229    20559921.802   -47003968.680 8  16464707.930 7
  20613666.800    20613670.217   -89314532.078 9 113083322.093 9
  22722141.359    22722145.764   -81258485.053 9  89963661.516 8
  21408719.762    21408724.521   -19531099.906 9  -7760633.129 9
 89 11 27 13 20 29.0800000  0  4G13G12G 3G 9
  20562729.743    20562734.352   -46989190.394 8  16476223.472 8
  20609407.291    20609410.374   -89336914.046 9 113065881.609 8
  22710275.361    22710278.966   -81320843.294 9  89915070.676 8
  21424363.587    21424368.189   -19448888.576 9  -7696572.364 9
 89 11 27 13 20 59.0800000  0  4G13G12G 3G 9
  20565604.332    20565608.659   -46974088.839 9  16487990.909 8
  20605260.721    20605264.823   -89358700.729 9 113048904.965 9
  22698461.671    22698465.376   -81382924.803 9  89866695.486 9
  21440103.929    21440108.130   -19366176.123 8  -7632121.123 8
 89 11 27 13 21 29.0800000  0  4G13G12G 3G 9
  20568538.206    20568541.914   -46958666.581 9  16500008.258 7
  20601228.799    20601232.802   -89379891.517 9 113032392.675 9
  22686699.725    22686704.265   -81444730.005 9  89818535.596 8
  21455937.981    21455944.056   -19282965.534 8  -7567281.714 9
 89 11 27 13 21 59.0800000  0  4G13G12G 3G 9
  20571534.270    20571538.965   -46942925.170 9  16512274.295 8
  20597308.740    20597312.309   -89400484.900 9 113016345.873 8
  22674990.863    22674995.268   -81506258.955 9  89770590.955 8
  21471868.478    21471871.848   -19199259.219 8  -7502056.016 9
 89 11 27 13 22 29.0800000  0  4G13G12G 3G 9
  20574591.196    20574595.080   -46926865.244 9  16524788.512 8
  20593504.206    20593508.828   -89420478.868 9 113000766.172 9
  22663336.083    22663339.895   -81567511.066 8  89722862.043 8
  21487890.867    21487894.424   -19115058.845 9  -7436445.348 8
 89 11 27 13 22 59.0800000  0  4G13G12G 3G 9
  20577706.580    20577709.016   -46910488.916 8  16537549.316 8
  20589814.661    20589818.903   -89439872.282 9 112985654.397 9
  22651732.466    22651735.748   -81628487.043 9  89675348.313 8
  21504007.283    21504010.668   -19030367.408 9  -7370452.027 9
 89 11 27 13 23 29.0800000  0  4G13G12G 3G 9
  20580882.534    20580885.692   -46893797.913 8  16550555.284 8
  20586238.008    20586242.959   -89458663.840 9 112971011.619 8
  22640180.978    22640184.976   -81689186.534 9  89628049.997 9
  21520216.451    21520219.291   -18945187.143 9  -7304077.814 9
 89 11 27 13 23 59.0800000  0  4G13G12G 3G 9
  20584117.854    20584123.706   -46876794.304 9  16563804.843 8
  20582777.771    20582781.018   -89476852.196 9 112956838.887 8
  22628683.341    22628687.211   -81749610.029 8  89580966.751 9
  21536516.868    21536523.445   -18859520.731 9  -7237324.775 8
 89 11 27 13 24 29.0800000  0  4G13G12G 3G 9
  20587412.692    20587416.658   -46859480.256 8  16577296.332 7
  20579431.095    20579435.939   -89494436.848 9 112943136.554 8
  22617236.111    22617240.574   -81809758.024 9  89534098.208 8
  21552910.997    21552914.739   -18773371.092 9  -7170195.205 9
 89 11 27 13 24 59.0800000  0  4G13G12G 3G 9
  20590766.947    20590771.353   -46841857.150 9  16591028.629 8
  20576201.161    20576204.817   -89511415.661 9 112929906.317 9
  22605842.952    22605847.617   -81869629.956 9  89487444.766 9
  21569397.418    21569400.761   -18686740.192 9  -7102690.617 8
 89 11 27 13 25 29.0800000  0  4G13G12G 3G 9
  20594179.393    20594182.607   -46823926.656 9  16605000.442 7
  20573084.938    20573090.636   -89527787.072 9 112917149.366 8
  22594502.697    22594507.468   -81929226.181 9  89441006.162 8
  21585973.373    21585976.930   -18599630.602 9  -7034813.021 9
 89 11 27 13 25 59.0800000  0  4G13G12G 3G 9
  20597649.677    20597653.786   -46805690.370 9  16619210.534 9
  20570085.981    20570089.918   -89543550.159 9 112904866.441 8
  22583214.870    22583218.826   -81988546.452 9  89394782.581 8
  21602640.264    21602643.648   -18512044.667 9  -6966564.251 9
 89 11 27 13 26 29.0800000  0  4G13G12G 3G 9
  20601177.023    20601180.876   -46787150.394 9  16633657.264 8
  20567201.505    20567206.259   -89558704.312 9 112893058.017 8
  22571979.257    22571983.942   -82047591.958 8  89348773.102 9
  21619396.501    21619400.630   -18423985.705 9  -6897946.887 8
 89 11 27 13 26 59.0800000  0  4G13G12G 3G 9
  20604762.552    20604766.568   -46768308.010 8  16648339.658 8
  20564434.588    20564438.394   -89573246.878 9 112881726.137 9
  22560795.186    22560799.864   -82106361.522 9  89302978.643 9
  21636243.772    21636247.845   -18335455.218 9  -6828962.117 8
 89 11 27 13 27 29.0800000  0  4G13G12G 3G 9
  20608405.984    20608409.505   -46749164.960 9  16663256.321 9
  20561784.023    20561787.242   -89587177.799 9 112870870.871 9
  22549664.172    22549668.199   -82164856.244 9  89257398.338 9
  21653180.577    21653183.404   -18246456.692 9  -6759612.628 9
 89 11 27 13 27 59.0800000  0  4G13G12G 3G 9
  20612105.101    20612110.032   -46729723.283 9  16678405.675 9
  20559247.522    20559252.727   -89600495.992 9 112860493.070 8
  22538585.345    22538590.254   -82223076.089 9  89212032.227 8
  21670204.481    21670209.397   -18156992.611 8  -6689900.367 9
 89 11 27 13 28 29.0800000  0  4G13G12G 3G 9
  20615860.971    20615864.568   -46709985.027 9  16693786.123 7
  20556830.869    20556835.159   -89613200.628 8 112850593.341 8
  22527558.218    22527562.559   -82281021.460 9  89166879.995 8
  21687316.917    21687320.990   -18067065.596 9  -6619827.372 9
 89 11 27 13 28 59.0800000  0  4G13G12G 3G 9
  20619673.667    20619676.748   -46689951.492 9  16709396.659 8
  20554529.333    20554534.853   -89625290.035 9 112841173.023 9
  22516583.383    22516588.162   -82338691.934 9  89121941.965 9
  21704517.941    21704520.667   -17976677.804 9  -6549395.345 8
 89 11 27 13 29 29.0800000  0  4G13G12G 3G 9
  20623542.233    20623545.225   -46669624.519 9  16725235.867 8
  20552346.954    20552350.679   -89636763.850 9 112832232.397 8
  22505662.250    22505666.527   -82396088.470 9  89077217.385 9
  21721804.404    21721808.548   -17885832.557 9  -6478606.849 8
 89 11 27 13 29 59.0800000  0  4G13G12G 3G 9
  20627465.606    20627469.406   -46649005.793 9  16741302.402 8
  20550282.658    20550284.746   -89647620.544 9 112823772.617 8
  22494792.215    22494796.542   -82453210.804 9  89032706.481 9
  21739179.513    21739182.540   -17794532.122 9  -6407463.661 9
 89 11 27 13 30 29.0800000  0  4G13G12G 3G 9
  20631443.969    20631449.197   -46628096.767 9  16757595.153 8
  20548333.089    20548336.523   -89657858.734 9 112815794.801 9
  22483975.253    22483980.033   -82510058.990 9  88988409.186 9
  21756638.775    21756642.618   -17702778.948 9  -6335967.698 8
 89 11 27 13 30 59.0800000  0  4G13G12G 3G 9
  20635478.229    20635482.806   -46606900.009 9  16774112.118 8
  20546502.837    20546506.718   -89667477.810 9 112808299.418 8
  22473207.838    22473212.430   -82566633.527 9  88944325.124 8
  21774183.978    21774188.264   -17610576.016 9  -6264121.268 8
 89 11 27 13 31 29.0800000  0  4G13G12G 3G 9
  20639566.587    20639570.053   -46585416.724 9  16790852.337 9
  20544789.781    20544793.576   -89676476.923 9 112801287.111 8
  22462495.742    22462497.778   -82622934.404 8  88900454.311 8
  21791814.691    21791818.563   -17517926.039 9  -6191926.497 8
 89 11 27 13 31 59.0800000  0  4G13G12G 3G 9
  20643707.915    20643712.681   -46563648.719 9  16807814.421 8
  20543194.579    20543200.270   -89684855.480 9 112794758.364 9
  22451833.318    22451837.087   -82678961.912 9  88856796.509 8
  21809530.646    21809534.031   -17424831.690 9  -6119385.480 8
 89 11 27 13 32 29.0800000  0  4G13G12G 3G 9
  20647904.708    20647908.059   -46541597.722 9  16824997.020 8
  20541718.544    20541723.331   -89692612.165 9 112788714.197 9
  22441223.697    22441227.050   -82734716.239 9  88813351.576 7
  21827329.465    21827332.835   -17331295.581 9  -6046500.225 8
 89 11 27 13 32 59.0800000  0  4G13G12G 3G 9
  20652152.879    20652156.744   -46519265.299 9  16842398.915 8
  20540361.426    20540366.964   -89699746.236 9 112783155.184 8
  22430666.640    22430669.873   -82790197.982 9  88770119.057 7
  21845212.020    21845216.465   -17237320.602 9  -5973272.969 9
 89 11 27 13 33 29.0800000  0  4G13G12G 3G 9
  20656455.722    20656460.092   -46496653.451 9  16860018.540 8
  20539122.941    20539125.731   -89706256.737 9 112778082.065 8
  22420160.045    22420163.099   -82845407.364 9  88727098.759 8
  21863177.355    21863181.083   -17142909.656 9  -5899706.033 8
 89 11 27 13 33 59.0800000  0  4G13G12G 3G 9
  20660812.202    20660817.338   -46473763.337 9  16877854.992 8
  20538003.878    20538007.495   -89712142.214 8 112773495.998 8
  22409706.630    22409709.426   -82900344.285 9  88684290.769 8
  21881225.797    21881229.669   -17048064.948 9  -5825801.070 8
 89 11 27 13 34 29.0800000  0  4G13G12G 3G 9
  20665220.804    20665225.188   -46450597.754 9  16895906.110 8
  20537000.944    20537006.028   -89717402.625 8 112769396.980 7
  22399303.719    22399307.294   -82955009.164 9  88641694.768 8
  21899356.804    21899360.075   -16952789.637 9  -5751560.585 8
 89 11 27 13 34 59.0800000  0  4G13G12G 3G 9
  20669680.962    20669685.622   -46427158.527 9  16914170.445 7
  20536120.548    20536124.156   -89722037.689 9 112765785.233 8
  22388951.977    22388955.905   -83009402.744 9  88599310.163 9
  21917568.171    21917571.928   -16857087.180 9  -5676987.263 8
 89 11 27 13 35 29.0800000  0  4G13G12G 3G 9
  20674193.842    20674197.185   -46403447.756 9  16932646.374 8
  20535357.217    20535360.723   -89726047.187 9 112762660.939 8
  22378652.650    22378656.248   -83063526.050 9  88557136.160 8
  21935861.343    21935865.172   -16760960.608 8  -5602083.437 8
 89 11 27 13 35 59.0800000  0  4G13G12G 3G 9
  20678758.360    20678758.841   -46379465.292 9  16951334.002 8
  20534712.951    20534719.190   -89729429.226 8 112760025.584 8
  22368405.116    22368409.521   -83117377.602 9  88515173.926 9
  21954234.347    21954237.318   -16664411.374 9  -5526850.283 8
 89 11 27 13 36 29.0800000  0  4G13G12G 3G 9
  20683372.578    20683374.595   -46355212.891 9  16970231.993 8
  20534189.185    20534193.539   -89732182.655 9 112757880.050 8
  22358209.745    22358213.737   -83170957.525 9  88473423.345 9
  21972686.896    21972689.021   -16567441.958 9  -5451289.706 8
 89 11 27 13 36 59.0800000  0  4G13G12G 3G 9
  20688038.335    20688042.629   -46330693.504 8  16989338.002 7
  20533783.464    20533788.511   -89734307.173 9 112756224.577 8
  22348065.501    22348069.036   -83224267.087 9  88431883.449 8
  21991219.218    21991221.944   -16470056.047 9  -5375404.599 8
 89 11 27 13 37 29.0800000  0  4G13G12G 3G 9
  20692754.008    20692759.661   -46305909.043 9  17008650.567 8
  20533498.755    20533504.171   -89735802.621 9 112755059.290 8
  22337972.199    22337975.359   -83277306.591 9  88390553.985 9
  22009829.053    22009832.796   -16372256.546 9  -5299197.217 8
 89 11 27 13 37 59.0800000  0  4G13G12G 3G 9
  20697519.481    20697524.860   -46280860.778 9  17028168.696 8
  20533334.805    20533339.202   -89736668.928 8 112754384.255 9
  22327930.352    22327933.506   -83330076.708 9  88349434.433 9
  22028518.705    22028521.604   -16274046.785 9  -5222670.137 8
 89 11 27 13 38 29.0800000  0  4G13G12G 3G 9
  20702337.261    20702342.564   -46255550.597 9  17047890.909 7
  20533290.157    20533294.429   -89736905.586 9 112754199.844 8
  22317938.650    22317943.744   -83382578.173 8  88308524.213 8
  22047285.011    22047288.511   -16175429.693 9  -5145825.656 8
 89 11 27 13 38 59.0800000  0  4G13G12G 3G 9
  20707203.267    20707207.511   -46229979.475 9  17067816.452 8
  20533365.962    20533369.970   -89736510.638 9 112754507.585 8
  22307999.766    22308004.315   -83434809.387 9  88267824.575 8
  22066127.829    22066131.055   -16076406.643 9  -5068664.854 9
 89 11 27 13 39 29.0800000  0  4G13G12G 3G 9
  20712118.074    20712121.525   -46204150.334 9  17087943.061 8
  20533560.586    20533565.387   -89735485.112 9 112755306.688 8
  22298111.284    22298116.162   -83486772.631 8  88227333.745 8
  22085047.872    22085051.586   -15976982.208 9  -4991191.276 8
 89 11 27 13 39 59.0800000  0  4G13G12G 3G 9
  20717083.204    20717085.406   -46178064.404 9  17108269.766 7
  20533875.947    20533880.157   -89733827.879 9 112756598.062 8
  22288274.489    22288279.774   -83538467.467 8  88187052.064 8
  22104043.340    22104046.524   -15877158.320 9  -4913406.457 9
 89 11 27 13 40 29.0800000  0  4G13G12G 3G 9
  20722095.125    20722097.641   -46151723.263 9  17128795.334 8
  20534313.228    20534316.311   -89731538.243 9 112758382.179 8
  22278488.961    22278493.146   -83589894.185 9  88146979.309 9
  22123114.933    22123118.446   -15776938.222 9  -4835312.885 8
 89 11 27 13 40 59.0800000  0  4G13G12G 3G 9
  20727153.431    20727160.191   -46125128.645 9  17149518.394 8
  20534868.476    20534872.143   -89728615.907 9 112760659.328 8
  22268752.858    22268758.202   -83641053.283 9  88107115.083 8
  22142260.146    22142264.175   -15676324.785 9  -4756912.809 9
 89 11 27 13 41 29.0800000  0  4G13G12G 3G 9
  20732263.358    20732268.271   -46098282.675 9  17170437.329 8
  20535544.540    20535548.983   -89725060.690 9 112763429.627 9
  22259069.378    22259072.410   -83691945.038 9  88067459.180 9
  22161480.725    22161484.740   -15575320.879 9  -4678208.501 8
 89 11 27 13 41 59.0800000  0  4G13G12G 3G 9
  20737420.027    20737424.773   -46071186.429 9  17191551.293 8
  20536342.772    20536345.447   -89720871.994 9 112766693.535 9
  22249434.713    22249439.835   -83742570.177 9  88028011.010 8
  22180775.570    22180779.228   -15473929.531 9  -4599202.279 9
 89 11 27 13 42 29.0800000  0  4G13G12G 3G 9
  20742624.512    20742629.229   -46043841.979 9  17212858.673 8
  20537259.033    20537263.741   -89716049.685 9 112770451.171 8
  22239851.411    22239858.278   -83792928.882 9  87988770.481 9
  22200142.275    22200146.061   -15372154.021 9  -4519896.710 8
 89 11 27 13 42 59.0800000  0  4G13G12G 3G 9
  20747874.700    20747879.159   -46016250.781 9  17234358.298 7
  20538297.882    20538301.144   -89710593.258 9 112774702.928 8
  22230319.901    22230324.908   -83843021.553 8  87949737.235 8
  22219582.258    22219586.789   -15269996.697 9  -4440293.621 9
 89 11 27 13 43 29.0800000  0  4G13G12G 3G 9
  20753172.650    20753176.153   -45988415.065 9  17256048.457 8
  20539457.225    20539460.594   -89704502.802 9 112779448.726 9
  22220837.852    22220841.827   -83892848.797 9  87910910.819 9
  22239094.746    22239097.830   -15167461.034 9  -4360395.721 8
 89 11 27 13 43 59.0800000  0  4G13G12G 3G 9
  20758515.520    20758517.319   -45960336.327 9  17277928.005 7
  20540734.879    20540739.970   -89697778.050 9 112784688.789 8
  22211407.244    22211410.397   -83942410.882 8  87872291.033 9
  22258677.734    22258681.563   -15064549.819 9  -4280205.187 9
 89 11 27 13 44 29.0800000  0  4G13G12G 3G 9
  20763903.780    20763907.118   -45932017.152 9  17299994.890 8
  20542136.212    20542141.549   -89690419.634 9 112790422.612 9
  22202025.479    22202029.777   -83991709.275 9  87833876.716 9
  22278331.754    22278335.783   -14961267.050 9  -4199725.119 9
 89 11 27 13 44 59.0800000  0  4G13G12G 3G 9
  20769337.352    20769341.432   -45903458.347 9  17322248.505 8
  20543657.484    20543660.359   -89682426.861 9 112796650.742 9
  22192693.990    22192699.112   -84040743.750 9  87795668.041 9
  22298055.230    22298060.060   -14857614.855 8  -4118957.195 9
 89 11 27 13 45 29.0800000  0  4G13G12G 3G 9
  20774817.673    20774822.203   -45874661.153 9  17344687.880 8
  20545299.835    20545305.207   -89673798.954 9 112803373.776 8
  22183414.860    22183417.718   -84089513.992 9  87757665.277 9
  22317850.797    22317855.169   -14753595.978 8  -4037903.550 9
 89 11 27 13 45 59.0800000  0  4G13G12G 3G 9
  20780341.893    20780346.790   -45845627.074 9  17367311.819 8
  20547062.878    20547066.154   -89664535.618 9 112810591.945 8
  22174184.006    22174187.317   -84138020.455 9  87719868.045 9
  22337713.043    22337717.501   -14649213.218 9  -3956566.369 9
 89 11 27 13 46 29.0800000  0  4G13G12G 3G 9
  20785912.588    20785916.837   -45816357.658 9  17390119.164 8
  20548946.552    20548950.591   -89654636.458 9 112818305.575 9
  22165004.009    22165008.007   -84186263.357 9  87682276.195 9
  22357644.819    22357649.492   -14544469.197 8  -3874947.683 8
 89 11 27 13 46 59.0800000  0  4G13G12G 3G 9
  20791526.847    20791531.632   -45786855.623 9  17413107.748 7
  20550950.752    20550953.911   -89644101.891 9 112826514.334 9
  22155872.843    22155877.048   -84234243.699 9  87644888.918 9
  22377645.337    22377649.279   -14439367.834 9  -3793050.564 9
 89 11 27 13 47 29.0800000  0  4G13G12G 3G 9
  20797184.498    20797189.279   -45757122.228 9  17436276.617 8
  20553075.901    20553080.998   -89632932.026 9 112835218.099 8
  22146792.529    22146796.242   -84281962.595 9  87607705.392 9
  22397712.934    22397717.550   -14333912.391 9  -3710877.513 8
 89 11 27 13 47 59.0800000  0  4G13G12G 3G 9
  20802885.499    20802891.787   -45727159.285 9  17459624.345 8
  20555323.276    20555326.481   -89621126.987 9 112844416.826 9
  22137762.643    22137766.047   -84329419.714 9  87570725.823 8
  22417848.067    22417850.995   -14228105.390 9  -3628430.534 9
 89 11 27 13 48 29.0800000  0  4G13G12G 3G 9
  20808630.927    20808635.997   -45696968.603 9  17483149.549 7
  20557689.953    20557693.588   -89608686.576 9 112854110.647 9
  22128781.264    22128785.463   -84376615.833 9  87533949.612 9
  22438048.999    22438052.105   -14121950.204 8  -3545712.234 9
 89 11 27 13 48 59.0800000  0  4G13G12G 3G 9
  20814420.254    20814424.480   -45666552.121 9  17506850.701 8
  20560178.740    20560182.269   -89595611.233 9 112864299.225 8
  22119850.877    22119852.428   -84423551.473 9  87497376.414 9
  22458314.855    22458319.241   -14015449.836 9  -3462724.948 9
 89 11 27 13 49 29.0800000  0  4G13G12G 3G 9
  20820251.450    20820254.633   -45635910.879 9  17530727.007 8
  20562787.469    20562791.661   -89581900.763 9 112874982.708 9
  22110966.764    22110971.013   -84470227.236 9  87461005.705 9
  22478646.790    22478650.729   -13908607.703 9  -3379471.358 9
 89 11 27 13 49 59.0800000  0  4G13G12G 3G 9
  20826123.514    20826127.627   -45605046.389 9  17554777.277 8
  20565518.200    20565519.629   -89567555.063 9 112886161.168 8
  22102134.173    22102138.829   -84516643.326 9  87424837.329 8
  22499042.302    22499047.220   -13801426.380 9  -3295953.469 8
 89 11 27 13 50 29.0800000  0  4G13G12G 3G 9
  20832039.679    20832041.601   -45573960.695 9  17578999.895 8
  20568368.167    20568371.566   -89552574.662 9 112897834.191 8
  22093350.748    22093355.061   -84562800.489 9  87388870.701 9
  22519502.210    22519505.252   -13693909.133 9  -3212173.831 9
 89 11 27 13 50 59.0800000  0  4G13G12G 3G 9
  20837996.539    20838000.150   -45542655.854 9  17603393.283 9
  20571338.828    20571342.656   -89536959.757 9 112910001.642 8
  22084616.982    22084620.601   -84608699.574 9  87353105.185 9
  22540025.906    22540028.344   -13586059.081 9  -3128134.856 9
 89 11 27 13 51 29.0800000  0  4G13G12G 3G 9
  20843995.382    20843998.706   -45511133.270 9  17627956.332 8
  20574431.132    20574435.954   -89520710.388 9 112922663.464 9
  22075931.353    22075936.117   -84654340.480 9  87317540.871 9
  22560611.211    22560614.553   -13477879.154 9  -3043838.838 8
 89 11 27 13 51 59.0800000  0  4G13G12G 3G 9
  20850034.348    20850037.631   -45479395.132 9  17652687.349 7
  20577643.758    20577648.108   -89503827.671 9 112935818.828 8
  22067294.812    22067299.031   -84699724.761 9  87282176.478 8
  22581259.609    22581263.477   -13369373.447 9  -2959288.981 8
 89 11 27 13 52 29.0800000  0  4G13G12G 3G 9
  20856114.496    20856117.448   -45447441.608 9  17677586.199 7
  20580977.862    20580981.764   -89486309.898 9 112949469.038 8
  22058707.688    22058712.172   -84744851.131 9  87247013.079 9
  22601969.089    22601973.666   -13260543.222 9  -2874486.234 9
 89 11 27 13 52 59.0800000  0  4G13G12G 3G 9
  20862236.025    20862240.438   -45415274.318 9  17702651.619 8
  20584431.476    20584435.646   -89468158.013 9 112963613.358 8
  22050169.485    22050172.160   -84789720.742 9  87212049.745 9
  22622739.419    22622744.672   -13151392.138 9  -2789433.469 9
 89 11 27 13 53 29.0800000  0  4G13G12G 3G 9
  20868397.220    20868401.547   -45382896.744 9  17727880.905 8
  20588006.159    20588010.056   -89449373.422 9 112978250.686 9
  22041678.347    22041683.304   -84834335.216 9  87177285.222 9
  22643569.851    22643575.730   -13041924.470 9  -2704134.010 9
 89 11 27 13 53 59.0800000  0  4G13G12G 3G 9
  20874598.768    20874603.882   -45350308.357 9  17753274.446 7
  20591701.281    20591705.792   -89429954.870 9 112993382.021 8
  22033237.713    22033241.331   -84878693.745 9  87142720.128 8
  22664461.483    22664466.778   -12932141.873 9  -2618589.167 9
 89 11 27 13 54 29.0800000  0  4G13G12G 3G 9
  20880840.410    20880844.994   -45317511.982 9  17778830.043 8
  20595517.841    20595522.572   -89409903.466 9 113009006.469 9
  22024846.389    22024849.521   -84922797.363 9  87108353.686 9
  22685412.090    22685415.833   -12822048.259 8  -2532801.962 8
 89 11 27 13 54 59.0800000  0  4G13G12G 3G 9
  20887121.315    20887124.526   -45284508.805 9  17804546.803 8
  20599454.283    20599457.070   -89389219.558 9 113025123.792 8
  22016501.662    22016504.658   -84966646.609 9  87074185.447 9
  22706421.051    22706424.998   -12711646.651 9  -2446774.772 9
 89 11 27 13 55 29.0800000  0  4G13G12G 3G 9
  20893439.196    20893444.410   -45251300.139 9  17830423.668 9
  20603509.069    20603514.342   -89367903.773 9 113041733.463 9
  22008205.028    22008207.437   -85010242.127 9  87040214.912 8
  22727487.294    22727492.107   -12600940.108 8  -2360509.966 9
 89 11 27 13 55 59.0800000  0  4G13G12G 3G 9
  20899797.514    20899802.873   -45217888.498 9  17856458.697 7
  20607685.798    20607690.911   -89345956.564 9 113058835.178 8
  21999956.015    21999960.857   -85053584.361 9  87006441.751 8
  22748611.794    22748615.434   -12489931.918 8  -2274010.107 8
 89 11 27 13 56 29.0800000  0  4G13G12G 3G 9
  20906194.210    20906197.621   -45184274.989 9  17882651.054 8
  20611982.567    20611987.035   -89323378.533 9 113076428.430 9
  21991757.628    21991761.797   -85096674.331 9  86972865.148 8
  22769791.926    22769796.612   -12378625.281 9  -2187277.703 9
 89 11 27 13 56 59.0800000  0  4G13G12G 3G 9
  20912628.882    20912632.896   -45150461.773 9  17908999.018 8
  20616398.618    20616403.367   -89300170.451 9 113094512.640 9
  21983604.945    21983610.110   -85139512.589 9  86939484.703 8
  22791029.146    22791034.657   -12267023.549 8  -2100315.348 7
 89 11 27 13 57 29.0800000  0  4G13G12G 3G 9
  20919100.416    20919104.643   -45116450.307 9  17935501.461 7
  20620935.541    20620939.308   -89276332.773 9 113113087.449 8
  21975501.235    21975504.053   -85182099.477 8  86906300.148 7
  22812322.323    22812326.761   -12155129.906 9  -2013125.519 8
 89 11 27 13 57 59.0800000  0  4G13G12G 3G 9
  20925609.696    20925613.722   -45082242.249 9  17962157.066 8
  20625590.370    20625594.688   -89251865.885 9 113132152.549 9
  21967446.455    21967449.167   -85224436.079 9  86873310.614 8
  22833669.757    22833673.818   -12042947.500 8  -1925710.697 8
 89 11 27 13 58 29.0800000  0  4G13G12G 3G 9
  20932156.696    20932162.582   -45047839.765 9  17988964.178 8
  20630366.177    20630370.163   -89226771.239 9 113151706.792 9
  21959437.093    21959440.475   -85266523.686 9  86840515.064 9
  22855071.622    22855075.755   -11930480.362 8  -1838073.990 8
 89 11 27 13 58 59.0800000  0  4G13G12G 3G 9
  20938739.582    20938745.597   -45013243.126 9  18015922.581 7
  20635261.596    20635265.151   -89201048.590 9 113171750.394 8
  21951474.579    21951478.434   -85308361.409 9  86807914.249 8
  22876527.395    22876530.776   -11817730.237 9  -1750216.806 8
 89 11 27 13 59 29.0800000  0  4G13G12G 3G 9
  20945361.019    20945365.275   -44978453.994 9  18043030.996 8
  20640276.710    20640280.273   -89174699.010 9 113192282.515 8
  21943561.553    21943564.192   -85349950.074 9  86775507.526 8
  22898036.479    22898039.717   -11704700.791 9  -1662141.950 8
 89 11 27 13 59 59.0800000  0  4G13G12G 3G 9
  20952017.684    20952019.878   -44943473.988 9  18070288.133 8
  20645409.929    20645414.143   -89147722.507 9 113213303.161 9
  21935694.073    21935696.998   -85391290.453 9  86743294.253 8
  22919597.878    22919601.971   -11591394.851 9  -1573851.635 9
 89 11 27 14  0 29.0800000  0  4G13G12G 3G 9
  20958709.492    20958712.545   -44908304.512 9  18097692.945 8
  20650661.833    20650666.759   -89120119.998 9 113234811.591 9
  21927873.506    21927878.671   -85432382.745 9  86711274.290 8
  22941211.101    22941214.705   -11477815.615 9  -1485348.381 9
 89 11 27 14  0 59.0800000  0  4G13G12G 3G 9
  20965437.417    20965440.872   -44872946.690 9  18125244.471 8
  20656033.566    20656037.791   -89091891.342 9 113256807.929 9
  21920101.848    21920105.153   -85473226.994 9  86679447.613 8
  22962877.080    22962879.502   -11363965.645 9  -1396634.156 9
 89 11 27 14  1 29.0800000  0  4G13G12G 3G 9
  20972201.315    20972206.500   -44837402.625 9  18152941.137 8
  20661524.781    20661528.182   -89063038.004 9 113279291.029 8
  21912376.996    21912379.483   -85513824.657 9  86647813.101 8
  22984592.190    22984595.691   -11249848.791 9  -1307711.957 9
 89 11 27 14  1 59.0800000  0  4G13G12G 3G 9
  20978999.871    20979006.115   -44801674.463 9  18180781.245 9
  20667133.720    20667136.624   -89033561.350 9 113302259.841 8
  21904696.394    21904702.917   -85554176.545 9  86616370.080 9
  23006358.941    23006361.368   -11135468.612 9  -1218584.573 8
 89 11 27 14  2 29.0800000  0  4G13G12G 3G 9
  20985834.828    20985838.728   -44765763.308 9  18208763.944 9
  20672862.397    20672864.678   -89003461.880 9 113325713.953 9
  21897066.190    21897070.467   -85594283.059 9  86585118.266 9
  23028173.641    23028177.309   -11020827.988 9  -1129254.254 9
 89 11 27 14  2 59.0800000  0  4G13G12G 3G 9
  20992702.439    20992707.154   -44729670.518 9  18236888.201 8
  20678706.994    20678710.864   -88972740.322 9 113349652.823 8
  21889480.951    21889484.571   -85634144.871 9  86554057.122 8
  23050037.525    23050042.174   -10905930.229 9  -1039723.578 9
 89 11 27 14  3 29.0800000  0  4G13G12G 3G 9
  20999605.108    20999609.478   -44693397.204 9  18265153.106 9
  20684671.349    20684675.628   -88941397.986 9 113374075.413 9
  21881940.379    21881944.421   -85673762.832 9  86523186.013 9
  23071950.838    23071954.466   -10790778.891 9   -949995.315 9
 89 11 27 14  3 59.0800000  0  4G13G12G 3G 9
  21006541.433    21006547.434   -44656945.007 9  18293557.391 8
  20690754.617    20690758.555   -88909435.420 9 113398981.280 8
  21874448.996    21874452.042   -85713137.326 9  86492504.592 9
  23093910.096    23093914.827   -10675376.552 9   -860071.456 9
 89 11 27 14  4 29.0800000  0  4G13G12G 3G 9
  21013511.583    21013515.223   -44620315.772 9  18322099.653 7
  20696954.662    20696958.739   -88876853.516 9 113424369.773 9
  21867002.300    21867006.727   -85752268.971 9  86462012.419 8
  23115918.257    23115921.470   -10559726.616 9   -769954.671 9
 89 11 27 14  4 59.0800000  0  4G13G12G 3G 9
  21020515.447    21020518.959   -44583511.321 9  18350778.427 8
  20703271.792    20703276.311   -88843653.748 9 113450239.698 9
  21859601.393    21859605.284   -85791158.786 9  86431708.674 8
  23137972.680    23137975.742   -10443832.670 8   -679647.759 9
 89 11 27 14  5 29.0800000  0  4G13G12G 3G 9
  21027552.135    21027555.818   -44546532.210 9  18379593.299 7
  20709707.049    20709710.580   -88809836.276 9 113476590.956 9
  21852247.485    21852250.731   -85829806.809 9  86401593.347 7
  23160072.501    23160075.745   -10327697.225 9   -589152.656 9
 89 11 27 14  5 59.0800000  0  4G13G12G 3G 9
  21034621.392    21034626.678   -44509380.603 9  18408542.586 8
  20716259.043    20716262.148   -88775403.205 9 113503421.902 8
  21844938.643    21844943.149   -85868214.316 9  86371665.435 9
  23182216.977    23182220.864   -10211324.150 9   -498472.386 9
 89 11 27 14  6 29.0800000  0  4G13G12G 3G 9
  21041724.561    21041728.243   -44472057.957 9  18437625.135 8
  20722928.835    20722932.319   -88740354.902 9 113530732.251 8
  21837674.825    21837680.133   -85906381.096 9  86341925.111 8
  23204406.350    23204410.086   -10094716.024 9   -407608.957 9
 89 11 27 14  6 59.0800000  0  4G13G12G 3G 9
  21048860.956    21048861.920   -44434565.562 9  18466840.008 8
  20729714.884    20729718.812   -88704692.147 9 113558521.385 8
  21830457.906    21830461.861   -85944308.205 9  86312371.515 9
  23226639.919    23226644.901    -9977876.269 8   -316565.059 8
 89 11 27 14  7 29.0800000  0  4G13G12G 3G 9
  21056027.143    21056029.639   -44396905.081 9  18496185.813 8
  20736618.995    20736622.211   -88668417.240 9 113586787.530 9
  21823286.490    21823290.302   -85981997.199 8  86283003.490 8
  23248917.830    23248921.226    -9860808.841 8   -225343.735 9
 89 11 27 14  7 59.0800000  0  4G13G12G 3G 9
  21063224.352    21063228.693   -44359077.708 9  18525661.669 8
  20743636.571    20743641.866   -88631530.443 9 113615530.451 9
  21816159.038    21816162.493   -86019447.871 9  86253821.165 8
  23271237.398    23271241.580    -9743516.286 9   -133946.986 8
 89 11 27 14  8 29.0800000  0  4G13G12G 3G 9
  21070454.787    21070458.213   -44321085.068 9  18555266.310 9
  20750772.541    20750776.202   -88594033.163 9 113644749.077 8
  21809078.143    21809081.984   -86056660.921 9  86224823.995 8
  23293600.200    23293603.207    -9626001.895 9    -42377.385 9
 89 11 27 14  8 59.0800000  0  4G13G12G 3G 9
  21077714.842    21077719.729   -44282928.482 9  18584998.697 9
  20758023.172    20758028.176   -88555926.748 9 113674442.365 8
  21802041.318    21802046.011   -86093637.278 9  86196011.262 9
  23316002.990    23316007.547    -9508268.948 9     49362.524 9
 89 11 27 14  9 29.0800000  0  4G13G12G 3G 9
  21085006.206    21085011.320   -44244609.331 9  18614857.743 8
  20765391.438    20765395.995   -88517212.111 9 113704609.600 8
  21795050.134    21795054.840   -86130377.359 9  86167382.627 9
  23338449.772    23338452.030    -9390320.658 9    141270.244 8
 89 11 27 14  9 59.0800000  0  4G13G12G 3G 9
  21092329.195    21092334.407   -44206129.571 9  18644841.947 8
  20772874.073    20772878.544   -88477890.818 9 113735249.551 8
  21788103.967    21788106.626   -86166882.231 9  86138937.305 8
  23360933.851    23360936.490    -9272160.581 9    233342.992 8
 89 11 27 14 10 29.0800000  0  4G13G12G 3G 9
  21099681.858    21099686.199   -44167490.191 9  18674950.536 8
  20780472.696    20780476.094   -88437963.730 9 113766361.539 7
  21781202.149    21781205.854   -86203152.143 9  86110675.029 8
  23383458.875    23383462.048    -9153791.553 9    325578.539 8
 89 11 27 14 10 59.0800000  0  4G13G12G 3G 9
  21107064.915    21107070.271   -44128692.790 9  18705182.266 8
  20788184.611    20788188.088   -88397432.804 9 113797944.071 8
  21774345.335    21774348.603   -86239188.530 9  86082594.737 8
  23406022.045    23406026.461    -9035217.387 9    417973.939 9
 89 11 27 14 11 29.0800000  0  4G13G12G 3G 9
  21114477.820    21114481.575   -44089739.114 9  18735535.763 7
  20796011.861    20796016.340   -88356299.646 9 113829995.857 9
  21767532.135    21767536.584   -86274992.322 9  86054695.676 9
  23428623.945    23428629.047    -8916441.225 9    510526.733 8
 89 11 27 14 11 59.0800000  0  4G13G12G 3G 9
  21121919.488    21121924.028   -44050629.343 9  18766010.886 8
  20803953.707    20803957.384   -88314564.518 9 113862516.706 8
  21760762.715    21760766.784   -86310562.481 9  86026978.671 9
  23451264.994    23451268.883    -8797465.202 9    603235.253 9
 89 11 27 14 12 29.0800000  0  4G13G12G 3G 9
  21129390.603    21129396.618   -44011365.383 9  18796606.164 8
  20812010.013    20812014.172   -88272228.872 9 113895505.494 8
  21754037.259    21754041.049   -86345900.277 9  85999442.737 9
  23473943.153    23473947.705    -8678292.784 9    696096.806 8
 89 11 27 14 12 59.0800000  0  4G13G12G 3G 9
  21136892.255    21136896.166   -43971948.222 8  18827320.805 8
  20820179.858    20820184.519   -88229295.040 9 113928960.405 9
  21747357.227    21747360.517   -86381007.104 9  85972086.779 8
  23496659.028    23496661.376    -8558928.207 9    789108.106 8
 89 11 27 14 13 29.0800000  0  4G13G12G 3G 9
  21144421.152    21144426.065   -43932379.899 9  18858153.237 8
  20828463.181    20828467.717   -88185764.043 9 113962880.635 9
  21740720.481    21740723.678   -86415883.410 9  85944910.457 8
  23519409.957    23519411.736    -8439374.045 8    882267.111 9
 89 11 27 14 13 59.0800000  0  4G13G12G 3G 9
  21151980.097    21151984.180   -43892661.763 8  18889102.403 8
  20836860.987    20836864.559   -88141637.320 9 113997265.066 7
  21734126.871    21734131.292   -86450529.592 9  85917913.456 8
  23542194.362    23542197.912    -8319633.780 9    975571.153 9
 89 11 27 14 14 29.0800000  0  4G13G12G 3G 9
  21159567.088    21159570.772   -43852794.497 9  18920167.756 8
  20845370.185    20845374.871   -88096916.055 9 114032112.774 8
  21727577.383    21727581.810   -86484946.171 9  85891095.363 7
  23565015.217    23565019.038    -8199710.040 9   1069018.137 9
 89 11 27 14 14 59.0800000  0  4G13G12G 3G 9
  21167182.212    21167185.695   -43812779.817 9  18951347.985 8
  20853993.292    20853998.479   -88051602.153 9 114067422.281 8
  21721071.859    21721077.051   -86519134.356 8  85864455.216 9
  23587869.863    23587873.263    -8079606.323 8   1162605.368 8
 89 11 27 14 15 29.0800000  0  4G13G12G 3G 9
  21174824.810    21174828.864   -43772618.824 9  18982642.233 8
  20862728.858    20862734.334   -88005696.090 9 114103193.208 8
  21714609.771    21714614.312   -86553094.401 8  85837992.860 8
  23610757.993    23610762.694    -7959325.770 8   1256330.381 9
 89 11 27 14 15 59.0800000  0  4G13G12G 3G 9
  21182493.650    21182496.502   -43732313.118 9  19014049.253 7
  20871577.112    20871581.538   -87959200.448 9 114139423.560 8
  21708191.311    21708193.593   -86586827.495 9  85811707.327 8
  23633680.167    23633684.635    -7838872.129 8   1350190.286 9
 89 11 27 14 16 29.0800000  0  4G13G12G 3G 9
  21190191.022    21190194.677   -43691864.336 9  19045567.751 7
  20880536.821    20880540.796   -87912117.465 9 114176111.560 8
  21701814.693    21701818.139   -86620334.469 8  85785598.001 8
  23656634.200    23656638.375    -7718248.457 8   1444182.656 8
 89 11 27 14 16 59.0800000  0  4G13G12G 3G 9
  21197914.781    21197920.524   -43651273.260 9  19077197.133 9
  20889609.215    20889611.473   -87864448.312 9 114213256.322 8
  21695481.674    21695485.700   -86653615.595 9  85759664.665 9
  23679620.000    23679624.938    -7597457.870 8   1538305.083 8
 89 11 27 14 17 29.0800000  0  4G13G12G 3G 9
  21205665.240    21205670.483   -43610541.052 9  19108936.484 7
  20898792.294    20898794.813   -87816194.102 9 114250856.994 8
  21689191.911    21689195.429   -86686671.307 9  85733906.962 8
  23702636.952    23702641.782    -7476503.029 8   1632555.526 8
 89 11 27 14 17 59.0800000  0  4G13G12G 3G 9
  21213443.861    21213449.761   -43569669.490 9  19140784.414 9
  20908085.547    20908088.194   -87767356.815 9 114288911.982 8
  21682942.844    21682947.157   -86719502.857 8  85708323.938 8
  23725684.882    23725688.542    -7355387.925 9   1726930.841 8
 89 11 27 14 18 29.0800000  0  4G13G12G 3G 9
  21221246.606    21221253.480   -43528659.607 9  19172740.129 9
  20917489.227    20917492.136   -87717938.356 9 114327419.847 8
  21676739.265    21676741.195   -86752110.812 9  85682915.144 8
  23748762.065    23748767.213    -7234115.739 9   1821428.566 9
 89 11 27 14 18 59.0800000  0  4G13G12G 3G 9
  21229077.540    21229082.698   -43487512.263 9  19204802.944 8
  20927002.473    20927006.985   -87667939.852 9 114366379.679 9
  21670576.469    21670579.837   -86784495.671 9  85657680.182 7
  23771869.260    23771872.996    -7112689.054 8   1916046.659 8
 89 11 27 14 19 29.0800000  0  4G13G12G 3G 9
  21236934.318    21236938.086   -43446229.997 9  19236970.906 8
  20936627.671    20936630.944   -87617364.196 9 114405789.259 9
  21664455.619    21664458.522   -86816658.843 8  85632617.964 8
  23795004.459    23795008.743    -6991112.191 9   2010781.776 9
 89 11 27 14 19 59.0800000  0  4G13G12G 3G 9
  21244815.421    21244819.604   -43404813.446 9  19269243.510 9
  20946360.545    20946364.690   -87566212.547 9 114445647.653 8
  21658376.044    21658379.921   -86848600.717 9  85607728.194 8
  23818167.497    23818172.567    -6869387.920 8   2105631.770 8
 89 11 27 14 20 29.0800000  0  4G13G12G 3G 9
  21252721.536    21252725.976   -43363262.036 9  19301621.195 7
  20956204.082    20956208.904   -87514485.232 9 114485954.620 8
  21652340.957    21652343.982   -86880320.421 9  85583011.536 9
  23841359.230    23841363.270    -6747517.991 9   2200595.235 9
 89 11 27 14 20 59.0800000  0  4G13G12G 3G 9
  21260653.207    21260658.263   -43321579.279 9  19334101.220 8
  20966154.703    20966160.130   -87462186.348 9 114526706.943 9
  21646344.912    21646351.020   -86911820.798 9  85558465.795 7
  23864577.824    23864581.201    -6625507.429 9   2295668.284 8
 89 11 27 14 21 29.0800000  0  4G13G12G 3G 9
  21268611.064    21268613.631   -43279765.965 9  19366682.988 8
  20976217.701    20976221.682   -87409316.864 9 114567903.921 9
  21640392.983    21640399.242   -86943101.692 8  85534091.068 8
  23887821.204    23887825.432    -6503358.731 9   2390848.969 9
 89 11 27 14 21 59.0800000  0  4G13G12G 3G 9
  21276592.531    21276596.200   -43237821.940 9  19399366.607 8
  20986387.374    20986391.352   -87355877.671 9 114609544.805 8
  21634482.943    21634487.248   -86974163.380 9  85509887.150 8
  23911090.866    23911094.829    -6381074.630 8   2486135.171 8
 89 11 27 14 22 29.0800000  0  4G13G12G 3G 9
  21284599.869    21284601.907   -43195750.794 9  19432149.263 8
  20996664.340    20996668.161   -87301872.910 9 114651626.394 8
  21628613.929    21628618.355   -87005008.420 9  85485852.073 8
  23934386.589    23934389.029    -6258660.061 8   2581523.023 9
 89 11 27 14 22 59.0800000  0  4G13G12G 3G 9
  21292628.557    21292632.527   -43153552.434 9  19465031.045 8
  21007047.789    21007051.695   -87247303.422 9 114694148.039 9
  21622783.469    21622789.800   -87035636.156 9  85461986.317 9
  23957704.048    23957709.518    -6136117.212 8   2677010.815 9
 89 11 27 14 23 29.0800000  0  4G13G12G 3G 9
  21300682.944    21300687.299   -43111228.267 9  19498010.872 8
  21017538.785    21017542.630   -87192170.906 9 114737108.407 8
  21616998.787    21617002.241   -87066047.337 9  85438289.281 9
  23981047.738    23981052.930    -6013449.000 7   2772596.286 9
 89 11 27 14 23 59.0800000  0  4G13G12G 3G 9
  21308760.255    21308764.925   -43068778.903 9  19531088.240 8
  21028137.157    21028142.087   -87136477.443 9 114780505.880 8
  21611252.086    21611256.635   -87096242.826 9  85414760.340 8
  24004413.504    24004419.958    -5890658.862 9   2868276.781 9
 89 11 27 14 24 29.0800000  0  4G13G12G 3G 9
  21316861.604    21316866.589   -43026206.120 9  19564261.775 8
  21038841.787    21038847.495   -87080224.970 9 114824338.926 9
  21605546.654    21605549.229   -87126223.427 9  85391398.843 8
  24027802.378    24027808.205    -5767749.971 8   2964049.792 8
 89 11 27 14 24 59.0800000  0  4G13G12G 3G 9
  21324986.564    21324990.747   -42983511.169 9  19597530.505 8
  21049652.451    21049658.050   -87023415.222 9 114868606.219 9
  21599882.554    21599885.886   -87155989.492 9  85368204.499 9
  24051214.762    24051218.394    -5644725.490 9   3059912.874 9
 89 11 27 14 25 29.0800000  0  4G13G12G 3G 9
  21333134.332    21333139.919   -42940694.478 9  19630894.114 7
  21060568.255    21060573.137   -86966050.211 9 114913306.194 8
  21594259.099    21594263.347   -87185541.821 9  85345176.692 8
  24074646.118    24074651.006    -5521588.466 9   3155863.673 9
 89 11 27 14 25 59.0800000  0  4G13G12G 3G 9
  21341305.827    21341310.096   -42897758.479 9  19664350.688 8
  21071590.408    21071594.865   -86908133.295 9 114958436.218 9
  21588676.118    21588678.513   -87214882.391 9  85322313.894 8
  24098100.036    24098103.683    -5398343.055 8   3251898.914 8
 89 11 27 14 26 29.0800000  0  4G13G12G 3G 9
  21349499.384    21349502.780   -42854704.336 9  19697899.322 9
  21082715.681    21082720.031   -86849666.657 9 115003994.597 8
  21583132.457    21583134.638   -87244012.072 9  85299615.430 8
  24121572.650    24121577.254    -5274992.928 9   3348015.754 8
 89 11 27 14 26 59.0800000  0  4G13G12G 3G 9
  21357714.864    21357719.520   -42811530.501 9  19731541.220 9
  21093945.461    21093950.848   -86790649.815 9 115049981.692 9
  21577630.066    21577633.012   -87272929.067 9  85277082.682 8
  24145065.252    24145069.560    -5151538.694 9   3444213.715 9
 89 11 27 14 27 29.0800000  0  4G13G12G 3G 9
  21365952.838    21365956.835   -42768239.776 9  19765274.217 8
  21105279.587    21105286.759   -86731086.406 9 115096394.691 9
  21572168.541    21572169.791   -87301635.327 9  85254714.140 7
  24168576.114    24168581.798    -5027985.009 9   3540489.159 8
 89 11 27 14 27 59.0800000  0  4G13G12G 3G 9
  21374212.906    21374217.447   -42724832.861 9  19799097.734 8
  21116718.621    21116723.969   -86670978.484 9 115143231.982 9
  21566746.395    21566748.181   -87330131.569 9  85232509.283 7
  24192107.469    24192112.033    -4904334.503 9   3636840.044 9
 89 11 27 14 28 29.0800000  0  4G13G12G 3G 9
  21382495.123    21382498.935   -42681311.152 9  19833010.694 9
  21128259.798    21128264.770   -86610328.260 9 115190491.844 8
  21561361.953    21561365.953   -87358418.383 9  85210467.574 7
  24215654.880    24215660.047    -4780590.745 9   3733263.594 8
 89 11 27 14 28 59.0800000  0  4G13G12G 3G 9
  21390798.548    21390803.203   -42637676.083 9  19867011.966 9
  21139903.349    21139908.060   -86549138.062 9 115238172.469 9
  21556019.016    21556024.710   -87386496.742 9  85188588.314 8
  24239219.311    24239224.336    -4656756.916 9   3829757.334 8
 89 11 27 14 29 29.0800000  0  4G13G12G 3G 9
  21399123.321    21399127.033   -42593928.619 9  19901100.830 8
  21151650.753    21151655.673   -86487410.222 9 115286272.034 9
  21550714.842    21550719.348   -87414367.332 9  85166870.966 8
  24262801.980    24262805.783    -4532836.163 9   3926318.795 8
 89 11 27 14 29 59.0800000  0  4G13G12G 3G 9
  21407468.585    21407473.685   -42550069.789 9  19935276.462 9
  21163499.396    21163504.816   -86425146.901 9 115334788.842 8
  21545450.871    21545455.741   -87442030.781 9  85145315.000 8
  24286398.969    24286404.014    -4408831.576 9   4022945.562 8
 89 11 27 14 30 29.0800000  0  4G13G12G 3G 9
  21415834.912    21415839.583   -42506100.918 9  19969537.865 8
  21175448.985    21175453.203   -86362350.657 9 115383720.945 9
  21540226.655    21540229.681   -87469488.244 9  85123919.561 8
  24310010.936    24310015.541    -4284746.586 8   4119634.980 7
 89 11 27 14 30 59.0800000  0  4G13G12G 3G 9
  21424223.219    21424227.888   -42462022.086 9  20003884.935 8
  21187499.748    21187504.878   -86299022.770 9 115433067.290 9
  21535041.127    21535043.715   -87496739.543 9  85102684.766 9
  24333638.453    24333643.930    -4160583.622 8   4216385.141 8
 89 11 27 14 31 29.0800000  0  4G13G12G 3G 9
  21432631.701    21432636.170   -42417835.428 9  20038316.030 8
  21199651.551    21199656.663   -86235166.469 9 115482825.386 9
  21529893.853    21529897.886   -87523786.078 9  85081609.517 9
  24357279.139    24357285.042    -4036346.733 8   4313192.899 8
 89 11 27 14 31 59.0800000  0  4G13G12G 3G 9
  21441061.276    21441064.757   -42373541.069 9  20072831.042 8
  21211902.846    21211908.026   -86170783.418 9 115532993.935 9
  21524785.364    21524790.994   -87550628.335 9  85060693.464 9
  24380934.687    24380940.272    -3912038.390 8   4410056.367 8
 89 11 27 14 32 29.0800000  0  4G13G12G 3G 9
  21449510.624    21449513.162   -42329140.401 9  20107428.893 8
  21224254.138    21224259.904   -86105876.351 9 115583570.815 9
  21519715.868    21519721.032   -87577267.035 9  85039936.023 8
  24404603.278    24404608.438    -3787662.128 8   4506972.735 8
 89 11 27 14 32 59.0800000  0  4G13G12G 3G 9
  21457980.149    21457983.618   -42284634.574 9  20142108.682 8
  21236705.132    21236710.014   -86040447.756 9 115634554.078 9
  21514685.479    21514691.438   -87603702.772 9  85019336.724 9
  24428283.472    24428289.925    -3663220.926 8   4603939.677 8
 89 11 27 14 33 29.0800000  0  4G13G12G 3G 9
  21466469.393    21466471.689   -42240024.208 9  20176869.930 8
  21249255.221    21249259.975   -85974499.551 9 115685942.228 9
  21509694.347    21509697.711   -87629936.266 9  84998895.022 8
  24451976.399    24451981.465    -3538717.964 9   4700954.759 8
 89 11 27 14 33 59.0800000  0  4G13G12G 3G 9
  21474978.583    21474981.807   -42195310.341 9  20211711.820 7
  21261903.389    21261907.049   -85908034.353 9 115737733.253 9
  21504740.591    21504743.652   -87655968.499 9  84978610.156 8
  24475679.802    24475684.696    -3414156.278 9   4798015.594 9
 89 11 27 14 34 29.0800000  0  4G13G12G 3G 9
  21483506.318    21483510.043   -42150494.122 9  20246633.479 8
  21274648.434    21274653.899   -85841054.769 9 115789925.062 8
  21499825.091    21499827.858   -87681799.943 9  84958481.725 8
  24499393.951    24499399.338    -3289539.118 9   4895119.649 9
 89 11 27 14 34 59.0800000  0  4G13G12G 3G 9
  21492053.513    21492058.541   -42105576.701 9  20281633.997 9
  21287491.368    21287497.460   -85773562.934 9 115842516.031 8
  21494946.744    21494950.821   -87707431.146 9  84938509.325 8
  24523117.042    24523123.264    -3164869.437 9   4992264.644 9
 89 11 27 14 35 29.0800000  0  4G13G12G 3G 9
  21500621.400    21500624.652   -42060558.979 9  20316712.646 8
  21300431.993    21300437.293   -85705561.427 9 115895504.161 9
  21490107.355    21490111.517   -87732863.287 9  84918692.062 9
  24546851.310    24546857.288    -3040150.468 9   5089448.014 9
 89 11 27 14 35 59.0800000  0  4G13G12G 3G 9
  21509205.342    21509210.626   -42015441.610 9  20351868.974 8
  21313469.307    21313474.512   -85637052.532 9 115948887.637 9
  21485305.375    21485309.982   -87758096.691 9  84899029.631 8
  24570592.864    24570599.186    -2915385.149 9   5186667.515 9
 89 11 27 14 36 29.0800000  0  4G13G12G 3G 9
  21517810.204    21517814.888   -41970225.786 9  20387102.003 9
  21326601.631    21326606.484   -85568039.010 9 116002664.349 8
  21480541.166    21480546.153   -87783132.114 9  84879521.484 9
  24594343.834    24594350.044    -2790576.955 8   5283920.400 9
 89 11 27 14 36 59.0800000  0  4G13G12G 3G 9
  21526432.465    21526438.551   -41924912.457 9  20422410.999 9
  21339830.583    21339835.101   -85498523.266 9 116056832.405 9
  21475815.557    21475819.833   -87807970.351 9  84860166.974 8
  24618101.546    24618108.501    -2665728.739 8   5381204.464 8
 89 11 27 14 37 29.0800000  0  4G13G12G 3G 9
  21535073.357    21535079.530   -41879502.220 9  20457795.521 8
  21353153.515    21353159.618   -85428507.759 9 116111389.880 9
  21471127.809    21471129.524   -87832612.269 9  84840965.478 9
  24641865.941    24641872.814    -2540843.758 7   5478517.178 8
 89 11 27 14 37 59.0800000  0  4G13G12G 3G 9
  21543734.282    21543738.465   -41833996.025 9  20493254.814 8
  21366571.954    21366578.250   -85357995.354 9 116166334.538 8
  21466475.146    21466477.627   -87857058.129 9  84821916.731 8
  24665637.424    24665644.607    -2415924.977 8   5575856.218 9
 89 11 27 14 38 29.0800000  0  4G13G12G 3G 9
  21552411.147    21552417.320   -41788395.211 9  20528787.835 8
  21380084.533    21380088.736   -85286988.826 9 116221664.227 8
  21461859.445    21461863.300   -87881309.138 9  84803019.805 9
  24689414.588    24689421.659    -2290975.664 8   5673219.065 8
 89 11 27 14 38 59.0800000  0  4G13G12G 3G 9
  21561106.557    21561112.558   -41742700.342 9  20564394.131 8
  21393691.177    21393695.098   -85215490.538 9 116277377.117 8
  21457282.199    21457286.018   -87905365.514 9  84784274.540 9
  24713197.579    24713204.359    -2165998.818 7   5770603.322 8
 89 11 27 14 39 29.0800000  0  4G13G12G 3G 9
  21569819.854    21569825.912   -41696912.306 9  20600073.023 8
  21407388.737    21407393.954   -85143502.735 9 116333471.434 8
  21452740.820    21452745.346   -87929227.844 9  84765680.479 8
  24736984.432    24736992.319    -2040996.939 7   5868007.104 9
 89 11 27 14 39 59.0800000  0  4G13G12G 3G 9
  21578552.153    21578556.680   -41651031.982 9  20635823.822 9
  21421180.095    21421185.261   -85071028.175 9 116389945.042 9
  21448236.544    21448242.273   -87952896.813 9  84747237.083 9
  24760776.240    24760783.135    -1915973.589 7   5965427.608 7
 89 11 27 14 40 29.0800000  0  4G13G12G 3G 9
  21587298.847    21587304.333   -41605059.811 9  20671646.221 9
  21435064.481    21435069.572   -84998069.629 9 116446795.771 9
  21443768.913    21443773.054   -87976373.767 9  84728943.338 8
  24784571.053    24784577.665    -1790931.928 6   6062862.344 8
 89 11 27 14 40 59.0800000  0  4G13G12G 3G 9
  21596064.830    21596069.873   -41558996.979 9  20707539.239 8
  21449039.715    21449044.334   -84924629.546 9 116504021.728 8
  21439338.881    21439342.264   -87999658.958 9  84710799.006 8
  24808367.852    24808376.599    -1665875.066 8   6160308.938 8
 89 11 27 14 41 29.0800000  0  4G13G12G 3G 9
  21604846.782    21604852.253   -41512844.607 9  20743502.035 9
  21463106.200    21463110.747   -84850710.617 9 116561620.812 8
  21434943.670    21434948.584   -88022752.961 9  84692803.646 9
  24832169.476    24832175.080    -1540805.968 9   6257765.053 8
 89 11 27 14 41 59.0800000  0  4G13G12G 3G 9
  21613645.390    21613651.333   -41466603.205 9  20779534.215 8
  21477263.015    21477267.979   -84776315.441 9 116619591.000 7
  21430585.047    21430590.341   -88045656.399 9  84674956.772 8
  24855971.011    24855978.052    -1415727.485 9   6355228.505 8
 89 11 27 14 42 29.0800000  0  4G13G12G 3G 9
  21622460.654    21622466.926   -41420274.388 9  20815634.500 8
  21491509.243    21491515.193   -84701447.219 9 116677929.792 9
  21426262.964    21426266.840   -88068370.457 9  84657257.456 8
  24879773.797    24879781.182    -1290643.179 9   6452696.481 8
 89 11 27 14 42 59.0800000  0  4G13G12G 3G 9
  21631294.291    21631300.577   -41373858.120 9  20851802.936 9
  21505845.152    21505852.127   -84626108.140 9 116736635.477 8
  21421977.339    21421980.272   -88090895.251 9  84639705.636 8
  24903577.394    24903584.292    -1165555.672 9   6550166.917 8
 89 11 27 14 43 29.0800000  0  4G13G12G 3G 9
  21640145.041    21640150.698   -41327355.408 9  20888038.704 9
  21520270.596    21520277.666   -84550301.260 9 116795705.688 9
  21417727.238    21417729.898   -88113231.843 9  84622300.461 8
  24927381.414    24927388.884    -1040467.868 8   6647637.612 8
 89 11 27 14 43 59.0800000  0  4G13G12G 3G 9
  21649010.559    21649015.830   -41280766.376 9  20924341.748 8
  21534785.638    21534791.548   -84474029.164 9 116855138.410 9
  21413511.364    21413515.420   -88135380.601 9  84605041.655 9
  24951184.286    24951192.465     -915383.017 9   6745105.969 7
 89 11 27 14 44 29.0800000  0  4G13G12G 3G 9
  21657893.420    21657896.472   -41234092.631 9  20960710.799 8
  21549388.860    21549393.063   -84397294.915 9 116914931.240 9
  21409333.253    21409336.120   -88157342.233 9  84587928.644 8
  24974986.318    24974993.761     -790304.222 8   6842569.614 8
 89 11 27 14 44 59.0800000  0  4G13G12G 3G 9
  21666791.105    21666795.073   -41187335.264 9  20997145.003 8
  21564077.973    21564082.902   -84320101.368 9 116975081.965 9
  21405188.358    21405193.745   -88179117.314 9  84570961.003 8
  24998786.990    24998794.004     -665234.572 9   6940026.106 8
 89 11 27 14 45 29.0800000  0  4G13G12G 3G 9
  21675703.127    21675709.456   -41140494.104 9  21033644.502 8
  21578853.956    21578859.544   -84242450.813 9 117035588.788 9
  21401081.350    21401084.416   -88200706.864 9  84554137.924 8
  25022584.726    25022592.067     -540176.921 9   7037473.266 8
 89 11 27 14 45 59.0800000  0  4G13G12G 3G 9
  21684632.979    21684637.063   -41093570.168 9  21070208.507 7
  21593717.095    21593721.612   -84164346.299 9 117096449.364 8
  21397007.286    21397011.664   -88222111.293 9  84537459.114 7
  25046380.279    25046388.112     -415134.114 9   7134908.828 8
 89 11 27 14 46 29.0800000  0  4G13G12G 3G 9
  21693579.202    21693582.812   -41046564.476 9  21106836.224 7
  21608666.645    21608671.123   -84085790.736 9 117157661.405 9
  21392970.541    21392972.686   -88243331.234 9  84520924.041 7
  25070171.899    25070179.293     -290109.351 9   7232330.330 7
 89 11 27 14 46 59.0800000  0  4G13G12G 3G 9
  21702539.675    21702544.087   -40999477.960 9  21143526.913 9
  21623700.473    21623705.196   -84006787.007 9 117219222.655 9
  21388967.525    21388970.055   -88264367.614 9  84504532.015 9
  25093959.900    25093967.316     -165105.919 8   7329735.174 9
 89 11 27 14 47 29.0800000  0  4G13G12G 3G 9
  21711515.516    21711519.457   -40952310.850 9  21180280.385 9
  21638818.569    21638823.609   -83927337.871 9 117281130.979 9
  21384998.627    21385002.610   -88285220.596 9  84488282.904 8
  25117743.041    25117750.263      -40126.291 8   7427121.457 8
 89 11 27 14 47 59.0800000  0  4G13G12G 3G 9
  21720506.068    21720510.594   -40905064.156 9  21217095.887 9
  21654021.221    21654026.659   -83847446.083 9 117343384.218 8
  21381065.102    21381069.652   -88305891.128 9  84472175.938 8
  25141520.881    25141527.316       84826.177 8   7524486.606 8
 89 11 27 14 48 29.0800000  0  4G13G12G 3G 9
  21729511.271    21729516.056   -40857738.289 9  21253973.066 9
  21669308.493    21669313.948   -83767114.705 9 117405979.995 8
  21377166.176    21377170.304   -88326379.694 9  84456210.784 8
  25165293.623    25165301.275      209748.732 8   7621828.420 9
 89 11 27 14 48 59.0800000  0  4G13G12G 3G 9
  21738530.728    21738537.415   -40810334.068 9  21290911.311 9
  21684677.729    21684682.874   -83686346.598 9 117468916.072 9
  21373301.401    21373305.369   -88346686.855 9  84440386.982 8
  25189059.045    25189067.738      334638.418 8   7719144.558 8
 89 11 27 14 49 29.0800000  0  4G13G12G 3G 9
  21747567.440    21747572.282   -40762852.186 9  21327910.075 9
  21700129.808    21700136.240   -83605144.698 9 117532190.175 8
  21369472.218    21369475.902   -88366813.619 9  84424703.742 8
  25212816.765    25212825.602      459492.032 8   7816432.629 8
 89 11 27 14 49 59.0800000  0  4G13G12G 3G 9
  21756619.235    21756623.619   -40715293.613 9  21364968.585 9
  21715664.308    21715670.451   -83523511.915 9 117595800.009 9
  21365675.703    21365679.894   -88386760.307 9  84409160.815 9
  25236569.492    25236577.612      584306.708 8   7913690.357 7
 89 11 27 14 50 29.0800000  0  4G13G12G 3G 9
  21765682.907    21765688.235   -40667658.744 9  21402086.546 9
  21731280.889    21731285.784   -83441451.357 9 117659743.195 8
  21361913.666    21361918.379   -88406527.902 9  84393757.451 9
  25260313.684    25260321.575      709079.275 7   8010915.266 7
 89 11 27 14 50 59.0800000  0  3G13G12G 3
  21774761.309    21774767.929   -40619947.823 1  21439263.765 1
  21746977.166    21746981.082   -83358966.033 9 117724017.372 9
  21358186.863    21358190.471   -88426116.789 9  84378493.305 8
 89 11 27 14 51 29.0800000  0  3G13G12G 3
  21783853.645    21783860.394   -40572161.871 9  21476499.457 9
  21762753.659    21762758.877   -83276058.528 9 117788620.509 9
  21354493.236    21354497.806   -88445527.306 9  84363368.183 8
 89 11 27 14 51 59.0800000  0  3G13G12G 3
  21792960.524    21792967.645   -40524301.520 9  21513793.122 9
  21778609.245    21778615.589   -83192732.033 9 117853550.124 8
  21350834.175    21350836.340   -88464760.203 9  84348381.444 8
 89 11 27 14 52 29.0800000  0  3G13G12G 3
  21802082.958    21802088.588   -40476367.504 9  21551144.194 9
  21794545.909    21794551.937   -83108989.324 9 117918804.083 9
  21347206.967    21347212.481   -88483816.053 9  84333532.659 8
 89 11 27 14 52 59.0800000  0  3G13G12G 3
  21811219.705    21811224.367   -40428360.591 9  21588552.057 8
  21810560.314    21810566.313   -83024833.896 9 117984379.620 8
  21343614.615    21343618.957   -88502695.543 9  84318821.301 8
 89 11 27 14 53 29.0800000  0  3G13G12G 3
  21820368.207    21820375.154   -40380280.950 9  21626016.578 9
  21826652.533    21826658.567   -82940268.856 9 118050274.346 9
  21340055.863    21340059.088   -88521399.333 9  84304246.870 8
 89 11 27 14 53 59.0800000  0  3G13G12G 3
  21829530.907    21829537.949   -40332129.655 9  21663536.937 8
  21842822.787    21842827.119   -82855297.004 9 118116486.077 8
  21336528.962    21336533.489   -88539928.213 8  84289808.711 7
 89 11 27 14 54 29.0800000  0  3G13G12G 3
  21838709.240    21838714.819   -40283906.818 9  21701113.061 9
  21859069.379    21859074.377   -82769920.790 9 118183012.891 9
  21333036.918    21333041.102   -88558282.393 9  84275506.694 8
 89 11 27 14 54 59.0800000  0  3G13G12G 3
  21847898.389    21847905.113   -40235613.293 9  21738744.253 9
  21875391.976    21875397.367   -82684143.721 9 118249852.050 8
  21329577.901    21329581.870   -88576462.489 9  84261340.317 8
 89 11 27 14 55 29.0800000  0  3G13G12G 3
  21857102.831    21857108.255   -40187249.534 9  21776430.165 9
  21891790.283    21891794.850   -82597969.009 9 118317001.053 8
  21326151.278    21326154.733   -88594468.904 9  84247309.288 9
 89 11 27 14 55 59.0800000  0  3G13G12G 3
  21866319.207    21866325.125   -40138816.065 9  21814170.399 9
  21908263.705    21908269.525   -82511399.360 9 118384457.786 8
  21322756.967    21322761.308   -88612302.595 9  84233412.832 9
 89 11 27 14 56 29.0800000  0  3G13G12G 3
  21875549.186    21875554.153   -40090313.115 9  21851964.777 9
  21924812.014    21924818.157   -82424438.125 9 118452219.673 9
  21319395.680    21319401.596   -88629964.009 9  84219650.625 8
 89 11 27 14 56 59.0800000  0  3G13G12G 3
  21884791.755    21884797.891   -40041741.636 9  21889812.543 8
  21941434.868    21941439.593   -82337088.595 9 118520284.124 9
  21316067.763    21316073.392   -88647453.877 9  84206022.085 9
 89 11 27 14 57 29.0800000  0  3G13G12G 3
  21894048.790    21894054.004   -39993102.023 9  21927713.404 9
  21958129.926    21958136.146   -82249353.461 9 118588649.032 8
  21312772.729    21312777.743   -88664772.174 9  84192527.265 9
 89 11 27 14 57 59.0800000  0  3G13G12G 3
  21903315.579    21903322.512   -39944394.584 8  21965667.137 9
  21974898.038    21974903.343   -82161236.093 9 118657311.781 9
  21309510.176    21309514.589   -88681919.910 9  84179165.333 8
 89 11 27 14 58 29.0800000  0  3G13G12G 3
  21912596.305    21912603.740   -39895620.432 9  22003672.834 9
  21991738.191    21991744.848   -82072739.494 9 118726270.048 9
  21306279.876    21306283.917   -88698897.489 9  84165935.994 9
 89 11 27 14 58 59.0800000  0  3G13G12G 3
  21921891.423    21921897.059   -39846779.327 9  22041730.702 8
  22008650.441    22008656.583   -81983866.571 9 118795521.550 8
  21303080.656    21303085.799   -88715705.620 8  84152838.682 8
 89 11 27 14 59 29.0800000  0  3G13G12G 3
  21931197.857    21931204.191   -39797872.649 8  22079839.653 9
  22025633.578    22025638.870   -81894620.782 9 118865063.572 8
  21299915.492    21299920.076   -88732344.567 9  84139873.202 9
 89 11 27 14 59 59.0800000  0  3G13G12G 3
  21940518.791    21940524.402   -39748900.305 9  22117999.773 8
  22042687.353    22042693.982   -81805005.822 9 118934893.283 9
  21296780.690    21296785.533   -88748815.484 9  84127038.631 8
 89 11 27 15  0 29.0800000  0  3G13G12G 3
  21949850.162    21949854.953   -39699862.683 9  22156210.761 9
  22059809.561    22059816.355   -81715024.160 9 119005008.732 9
  21293678.974    21293682.715   -88765118.234 9  84114335.116 9
 89 11 27 15  0 59.0800000  0  3G13G12G 3
  21959193.857    21959198.820   -39650760.209 9  22194472.278 8
  22077001.405    22077007.798   -81624679.153 9 119075407.307 8
  21290608.049    21290610.888   -88781253.822 9  84101761.858 8
 89 11 27 15  1 29.0800000  0  3G13G12G 3
  21968549.017    21968554.711   -39601593.344 8  22232783.937 8
  22094263.143    22094269.557   -81533973.445 9 119146086.942 8
  21287569.321    21287572.906   -88797222.020 9  84089319.022 7
 89 11 27 15  1 59.0800000  0  3G13G12G 3
  21977917.124    21977924.445   -39552362.823 9  22271145.227 8
  22111592.005    22111597.746   -81442910.772 9 119217044.737 9
  21284562.102    21284566.000   -88813023.795 9  84077005.886 9
 89 11 27 15  2 29.0800000  0  3G13G12G 3
  21987299.569    21987305.930   -39503068.964 9  22309555.889 9
  22128988.212    22128992.895   -81351494.420 9 119288278.132 9
  21281586.620    21281591.219   -88828659.700 9  84064821.992 9
 89 11 27 15  2 59.0800000  0  3G13G12G 3
  21996691.925    21996696.925   -39453711.854 9  22348015.832 8
  22146450.479    22146456.886   -81259727.451 9 119359784.714 8
  21278642.590    21278647.046   -88844130.099 9  84052767.061 8
 89 11 27 15  3 29.0800000  0  3G13G12G 3
  22006096.302    22006101.351   -39404292.340 9  22386524.372 8
  22163978.947    22163985.747   -81167613.125 9 119431561.971 8
  21275729.640    21275736.170   -88859435.626 9  84040840.595 9
 89 11 27 15  3 59.0800000  0  3G13G12G 3
  22015511.922    22015517.702   -39354810.703 9  22425081.321 8
  22181573.580    22181581.010   -81075154.599 9 119503607.438 8
  21272848.570    21272853.741   -88874576.800 9  84029042.210 8
 89 11 27 15  4 29.0800000  0  3G13G12G 3
  22024938.893    22024946.311   -39305267.264 9  22463686.441 8
  22199233.084    22199239.884   -80982355.322 9 119575918.414 9
  21269998.580    21270004.238   -88889554.018 9  84017371.577 9
 89 11 27 15  4 59.0800000  0  3G13G12G 3
  22034378.156    22034385.209   -39255662.568 9  22502339.306 9
  22216956.609    22216963.365   -80889218.811 9 119648492.177 8
  21267180.900    21267185.985   -88904367.834 9  84005828.271 9
 89 11 27 15  5 29.0800000  0  3G13G12G 3
  22043829.567    22043835.836   -39205996.522 9  22541039.970 7
  22234743.077    22234749.591   -80795747.825 9 119721326.572 8
  21264392.640    21264397.783   -88919018.611 9  83994412.006 9
 89 11 27 15  5 59.0800000  0  3G13G12G 3
  22053294.694    22053299.442   -39156269.467 9  22579788.169 8
  22252593.508    22252600.552   -80701945.653 9 119794419.026 8
  21261635.717    21261641.203   -88933506.674 9  83983122.520 9
 89 11 27 15  6 29.0800000  0  3G13G12G 3
  22062767.376    22062775.240   -39106482.594 9  22618582.967 8
  22270506.143    22270512.242   -80607815.810 9 119867766.810 9
  21258908.699    21258913.227   -88947832.867 8  83971959.182 9
 89 11 27 15  6 59.0800000  0  3G13G12G 3
  22072252.520    22072260.249   -39056635.426 9  22657424.773 9
  22288480.078    22288487.078   -80513360.806 9 119941367.975 9
  21256213.478    21256218.921   -88961997.221 9  83960921.939 8
 89 11 27 15  7 29.0800000  0  3G13G12G 3
  22081750.679    22081755.725   -39006728.849 9  22696312.867 8
  22306515.727    22306522.455   -80418584.791 9 120015219.271 9
  21253549.565    21253553.806   -88976000.483 9  83950010.226 8
 89 11 27 15  7 59.0800000  0  3G13G12G 3
  22091257.961    22091262.707   -38956762.927 9  22735247.183 8
  22324612.878    22324618.598   -80323490.453 9 120089318.604 8
  21250913.897    21250920.472   -88989842.899 9  83939223.835 7
 89 11 27 15  8 29.0800000  0  3G13G12G 3
  22100778.912    22100784.094   -38906737.876 9  22774227.580 7
  22342768.417    22342774.466   -80228081.107 9 120163663.384 9
  21248311.714    21248317.186   -89003524.762 9  83928562.573 8
 89 11 27 15  8 59.0800000  0  3G13G12G 3
  22110309.120    22110315.596   -38856653.780 9  22813253.987 8
  22360983.246    22360989.504   -80132360.369 9 120238250.812 9
  21245738.378    21245742.476   -89017046.819 9  83918025.809 8
 89 11 27 15  9 29.0800000  0  3G13G12G 3
  22119850.611    22119857.217   -38806511.321 9  22852325.891 8
  22379256.895    22379263.517   -80036331.701 9 120313078.176 9
  21243194.776    21243199.274   -89030409.570 9  83907613.196 7
 89 11 27 15  9 59.0800000  0  3G13G12G 3
  22129403.109    22129410.953   -38756311.315 9  22891442.627 8
  22397588.823    22397594.980   -79939998.582 9 120388142.778 8
  21240681.853    21240687.983   -89043613.380 9  83897324.425 8
 89 11 27 15 10 29.0800000  0  3G13G12G 3
  22138968.003    22138975.378   -38706053.114 9  22930604.702 8
  22415977.438    22415984.088   -79843363.436 9 120463442.739 9
  21238200.869    21238205.997   -89056658.420 9  83887159.399 8
 89 11 27 15 10 59.0800000  0  3G13G12G 3
  22148542.245    22148548.578   -38655737.100 9  22969811.857 8
  22434423.247    22434429.696   -79746429.827 9 120538975.247 9
  21235747.844    21235753.645   -89069545.166 8  83877117.692 8
 89 11 27 15 11 29.0800000  0  3G13G12G 3
  22158128.688    22158133.991   -38605364.195 9  23009063.330 8
  22452925.569    22452932.147   -79649201.693 9 120614737.258 9
  21233326.070    21233331.514   -89082274.471 9  83867198.664 9
 89 11 27 15 11 59.0800000  0  3G13G12G 3
  22167725.494    22167731.441   -38554933.830 8  23048359.543 9
  22471483.283    22471489.661   -79551681.856 9 120690726.554 9
  21230933.259    21230938.130   -89094845.655 9  83857402.856 8
 89 11 27 15 12 29.0800000  0  3G13G12G 3
  22177333.624    22177336.651   -38504446.428 9  23087700.207 8
  22490095.807    22490101.756   -79453873.365 9 120766940.791 9
  21228571.126    21228577.428   -89107259.464 9  83847729.683 9
 89 11 27 15 12 59.0800000  0  3G13G12G 3
  22186951.923    22186957.190   -38453902.723 8  23127084.734 7
  22508761.655    22508768.835   -79355780.507 9 120843376.605 9
  21226238.442    21226245.344   -89119517.105 9  83838178.185 9
 89 11 27 15 13 29.0800000  0  3G13G12G 3
  22196580.779    22196587.413   -38403303.044 9  23166512.878 7
  22527480.863    22527489.537   -79257406.309 9 120920031.634 9
  21223934.891    21223941.737   -89131618.503 8  83828748.443 8
 89 11 27 15 13 59.0800000  0  3G13G12G 3
  22206219.408    22206225.702   -38352647.106 9  23205984.873 8
  22546254.301    22546262.769   -79158753.996 9 120996903.392 8
  21221662.736    21221668.636   -89143563.930 9  83819440.244 8
 89 11 27 15 14 29.0800000  0  3G13G12G 3
  22215869.802    22215875.253   -38301934.845 9  23245500.761 9
  22565080.126    22565087.556   -79059826.191 9 121073989.809 9
  21219419.484    21219424.884   -89155353.147 8  83810253.759 8
 89 11 27 15 14 59.0800000  0  3G13G12G 3
  22225531.835    22225536.236   -38251166.966 9  23285059.976 8
  22583958.237    22583965.281   -78960626.828 9 121151287.835 9
  21217206.252    21217212.181   -89166987.187 9  83801188.189 8
 89 11 27 15 15 29.0800000  0  3G13G12G 3
  22235201.790    22235208.779   -38200343.551 9  23324662.440 8
  22602886.072    22602893.115   -78861159.522 9 121228794.645 9
  21215021.096    21215026.997   -89178466.590 9  83792243.130 9
 89 11 27 15 15 59.0800000  0  3G13G12G 3
  22244883.854    22244892.141   -38149464.940 9  23364307.915 7
  22621865.263    22621871.018   -78761427.368 9 121306507.821 9
  21212865.760    21212872.878   -89189791.373 9  83783418.524 9
 89 11 27 15 16 29.0800000  0  3G13G12G 3
  22254576.980    22254584.680   -38098530.724 9  23403996.714 8
  22640892.969    22640900.127   -78661433.224 9 121384425.148 9
  21210740.644    21210747.534   -89200961.696 9  83774714.280 8
 89 11 27 15 16 59.0800000  0  3G13G12G 3
  22264277.653    22264287.272   -38047542.005 8  23443727.998 8
  22659970.371    22659977.965   -78561181.495 9 121462543.185 8
  21208644.777    21208650.808   -89211978.592 9  83766129.594 9
 89 11 27 15 17 29.0800000  0  3G13G12G 3
  22273991.062    22274000.365   -37996498.504 8  23483501.979 7
  22679096.746    22679105.386   -78460674.748 9 121540859.953 9
  21206578.504    21206584.289   -89222841.680 9  83757664.754 8
 89 11 27 15 17 59.0800000  0  3G13G12G 3
  22283717.234    22283723.941   -37945399.450 8  23523319.232 8
  22698270.141    22698276.604   -78359916.174 9 121619372.942 8
  21204540.587    21204546.431   -89233551.027 9  83749319.711 9
 89 11 27 15 18 29.0800000  0  3G13G12G 3
  22293452.540    22293459.204   -37894245.623 9  23563179.142 8
  22717491.550    22717498.387   -78258909.763 9 121698079.033 9
  21202531.748    21202538.436   -89244107.315 9  83741093.928 8
 89 11 27 15 18 59.0800000  0  3G13G12G 3
  22303195.248    22303204.915   -37843037.101 9  23603081.709 8
  22736758.957    22736766.115   -78157658.961 9 121776975.569 9
  21200552.101    21200557.501   -89254510.898 9  83732987.143 9
 89 11 27 15 19 29.0800000  0  3G13G12G 3
  22312951.233    22312959.344   -37791774.498 9  23643026.426 8
  22756072.188    22756080.106   -78056167.379 9 121856059.729 8
  21198601.558    21198607.188   -89264762.067 9  83724999.118 9
 89 11 27 15 19 59.0800000  0  3G13G12G 3
  22322718.252    22322723.701   -37740457.361 9  23683013.604 8
  22775431.381    22775438.596   -77954437.719 9 121935329.405 9
  21196680.207    21196686.050   -89274860.741 9  83717129.924 8
 89 11 27 15 20 29.0800000  0  3G13G12G 3
  22332492.657    22332499.059   -37689086.339 9  23723042.736 8
  22794834.267    22794841.918   -77852473.903 9 122014781.523 9
  21194785.726    21194793.659   -89284807.942 8  83709378.769 9
 89 11 27 15 20 59.0800000  0  3G13G12G 3
  22342278.059    22342286.146   -37637661.601 9  23763113.768 8
  22814280.754    22814289.006   -77750279.076 9 122094413.645 9
  21192922.870    21192927.869   -89294603.602 8  83701745.716 9
 89 11 27 15 21 29.0800000  0  3G13G12G 3
  22352076.475    22352083.066   -37586182.580 9  23803227.075 8
  22833772.013    22833779.643   -77647856.115 8 122174223.535 9
  21191087.774    21191092.445   -89304247.628 9  83694230.772 8
 89 11 27 15 21 59.0800000  0  3G13G12G 3
  22361881.077    22361887.368   -37534649.260 9  23843382.696 8
  22853304.053    22853312.406   -77545208.994 9 122254208.087 8
  21189281.583    21189286.668   -89313740.366 9  83686833.765 8
 89 11 27 15 22 29.0800000  0  3G13G12G 3
  22371697.450    22371706.128   -37483062.154 9  23883580.207 8
  22872879.994    22872888.376   -77442341.362 9 122334364.466 9
  21187503.808    21187509.066   -89323082.147 9  83679554.359 8
 89 11 27 15 22 59.0800000  0  3G13G12G 3
  22381526.138    22381534.926   -37431421.059 9  23923819.809 8
  22892496.852    22892505.027   -77339256.099 9 122414690.426 9
  21185755.454    21185760.211   -89332273.046 9  83672392.525 8
 89 11 27 15 23 29.0800000  0  3G13G12G 3
  22391363.561    22391371.362   -37379726.388 9  23964101.141 8
  22912154.557    22912161.915   -77235956.606 9 122495183.299 9
  21184035.203    21184040.603   -89341313.402 9  83665347.976 9
 89 11 27 15 23 59.0800000  0  3G13G12G 3
  22401210.762    22401216.966   -37327978.291 9  24004424.118 8
  22931852.140    22931859.671   -77132446.905 9 122575839.969 9
  21182342.627    21182348.785   -89350204.120 8  83658420.058 8
 89 11 27 15 24 29.0800000  0  3G13G12G 3
  22411068.400    22411077.466   -37276176.096 9  24044789.239 8
  22951588.479    22951596.897   -77028729.768 8 122656658.290 8
  21180678.469    21180685.685   -89358944.264 9  83651609.454 9
 89 11 27 15 24 59.0800000  0  3G13G12G 3
  22420938.680    22420944.255   -37224320.488 9  24085195.991 9
  22971364.729    22971373.039   -76924808.729 9 122737635.494 9
  21179043.757    21179051.118   -89367534.622 9  83644915.563 9
 89 11 27 15 25 29.0800000  0  3G13G12G 3
  22430814.852    22430821.529   -37172410.837 9  24125644.850 8
  22991177.780    22991186.920   -76820687.444 9 122818768.717 9
  21177439.010    21177445.270   -89375975.456 9  83638338.211 8
 89 11 27 15 25 59.0800000  0  3G13G12G 3
  22440702.257    22440712.527   -37120447.279 9  24166135.701 8
  23011028.766    23011037.649   -76716369.441 9 122900055.237 8
  21175861.307    21175867.080   -89384266.980 8  83631877.204 9
 89 11 27 15 26 29.0800000  0  3G13G12G 3
  22450601.218    22450610.598   -37068430.546 9  24206668.025 8
  23030917.721    23030925.866   -76611857.709 9 122981492.713 8
  21174312.166    21174317.524   -89392409.529 9  83625532.269 9
 89 11 27 15 26 59.0800000  0  3G13G12G 3
  22460509.202    22460518.705   -37016359.942 9  24247242.328 9
  23050841.705    23050850.894   -76507155.506 9 123063078.601 9
  21172790.471    21172795.842   -89400402.650 9  83619303.764 8
 89 11 27 15 27 29.0800000  0  3G13G12G 3
  22470428.328    22470437.873   -36964235.562 9  24287858.529 8
  23070801.153    23070809.613   -76402266.443 9 123144810.097 9
  21171297.305    21171303.679   -89408246.727 9  83613191.421 8
 89 11 27 15 27 59.0800000  0  3G13G12G 3
  22480357.530    22480368.234   -36912057.670 9  24328516.419 8
  23090796.496    23090805.380   -76297194.106 9 123226684.393 8
  21169835.135    21169839.320   -89415942.119 9  83607194.914 9
 89 11 27 15 28 29.0800000  0  3G13G12G 3
  22490298.247    22490308.015   -36859826.228 9  24369216.056 9
  23110825.158    23110833.190   -76191942.279 9 123308698.550 9
  21168397.462    21168403.750   -89423489.362 9  83601313.843 9
 89 11 27 15 28 59.0800000  0  3G13G12G 3
  22500247.876    22500256.664   -36807541.264 9  24409957.427 9
  23130886.769    23130896.529   -76086513.844 9 123390850.312 8
  21166989.896    21166996.028   -89430887.928 9  83595548.630 8
 89 11 27 15 29 29.0800000  0  3G13G12G 3
  22510207.567    22510214.957   -36755202.568 9  24450740.624 8
  23150983.228    23150991.445   -75980912.633 9 123473136.715 8
  21165610.604    21165615.719   -89438138.366 9  83589898.848 8
 89 11 27 15 29 59.0800000  0  3G13G12G 3
  22520177.379    22520186.064   -36702809.846 9  24491565.914 8
  23171110.137    23171119.764   -75875141.456 9 123555555.547 8
  21164258.501    21164264.045   -89445240.319 9  83584364.765 8
 89 11 27 15 30 29.0800000  0  3G13G12G 3
  22530159.761    22530166.642   -36650363.002 9  24532433.423 9
  23191270.474    23191278.311   -75769203.667 9 123638104.209 9
  21162934.701    21162941.533   -89452193.919 9  83578946.284 8
 89 11 27 15 30 59.0800000  0  3G13G12G 3
  22540151.138    22540157.567   -36597861.960 9  24573343.130 7
  23211460.579    23211468.717   -75663103.090 9 123720779.713 8
  21161640.406    21161646.022   -89458999.776 8  83573642.913 9
 89 11 27 15 31 29.0800000  0  3G13G12G 3
  22550149.095    22550157.074   -36545306.919 8  24614294.903 8
  23231680.785    23231690.525   -75556842.848 9 123803579.643 8
  21160373.414    21160379.916   -89465657.793 9  83568454.750 9
 89 11 27 15 31 59.0800000  0  3G13G12G 3
  22560164.696    22560169.194   -36492697.548 9  24655289.003 8
  23251931.640    23251941.080   -75450426.046 9 123886501.553 8
  21159134.753    21159141.385   -89472167.892 8  83563381.842 8
 89 11 27 15 32 29.0800000  0  3G13G12G 3
  22570184.046    22570193.113   -36440033.965 9  24696325.358 8
  23272211.851    23272221.771   -75343856.696 9 123969542.327 8
  21157923.394    21157930.998   -89478530.589 9  83558423.814 9
 89 11 27 15 32 59.0800000  0  3G13G12G 3
  22580213.699    22580223.320   -36387316.670 9  24737403.606 8
  23292520.036    23292529.506   -75237138.268 9 124052699.264 8
  21156740.424    21156748.329   -89484745.859 8  83553580.655 8
 89 11 27 15 33 29.0800000  0  3G13G12G 3
  22590258.244    22590265.998   -36334544.916 9  24778524.228 8
  23312856.798    23312865.371   -75130273.729 9 124135970.050 8
  21155588.249    21155593.677   -89490813.440 9  83548852.587 9
 89 11 27 15 33 59.0800000  0  3G13G12G 3
  22600310.012    22600319.708   -36281718.348 9  24819687.588 9
  23333220.145    23333228.927   -75023266.265 9 124219352.208 9
  21154461.086    21154467.459   -89496733.499 9  83544239.468 9
 89 11 27 15 34 29.0800000  0  3G13G12G 3
  22610372.436    22610381.803   -36228837.528 9  24860893.234 9
  23353609.799    23353618.144   -74916119.906 9 124302842.595 8
  21153362.913    21153367.528   -89502506.431 9  83539740.975 9
 89 11 27 15 34 59.0800000  0  3G13G12G 3
  22620448.597    22620456.945   -36175902.001 9  24902141.493 8
  23374024.272    23374034.350   -74808837.501 9 124386438.976 9
  21152291.927    21152297.113   -89508131.791 9  83535357.467 8
 89 11 27 15 35 29.0800000  0  3G13G12G 3
  22630528.497    22630539.527   -36122911.105 9  24943432.889 8
  23394465.320    23394474.423   -74701422.443 9 124470138.725 9
  21151249.560    21151255.261   -89513609.846 9  83531088.757 8
 89 11 27 15 35 59.0800000  0  3G13G12G 3
  22640625.228    22640635.338   -36069865.052 9  24984767.276 9
  23414930.097    23414940.454   -74593878.119 9 124553939.204 9
  21150232.891    21150241.169   -89518940.113 9  83526935.181 8
 89 11 27 15 36 29.0800000  0  3G13G12G 3
  22650730.829    22650740.001   -36016763.502 9  25026144.895 7
  23435420.338    23435429.070   -74486208.175 9 124637837.547 9
  21149247.847    21149255.122   -89524123.094 8  83522896.398 8
 89 11 27 15 36 59.0800000  0  3G13G12G 3
  22660844.531    22660855.988   -35963606.763 8  25067565.542 8
  23455933.145    23455942.106   -74378415.979 9 124721831.146 9
  21148290.190    21148296.722   -89529158.888 8  83518972.298 9
 89 11 27 15 37 29.0800000  0  3G13G12G 3
  22670970.528    22670979.422   -35910394.532 9  25109029.399 9
  23476466.965    23476477.128   -74270505.102 9 124805917.231 9
  21147360.408    21147366.896   -89534047.538 9  83515162.877 9
 89 11 27 15 37 59.0800000  0  3G13G12G 3
  22681107.217    22681118.262   -35857126.615 9  25150536.652 8
  23497024.244    23497034.930   -74162478.805 9 124890093.242 9
  21146458.672    21146464.674   -89538788.736 9  83511468.321 8
 89 11 27 15 38 29.0800000  0  3G13G12G 3
  22691255.961    22691266.684   -35803802.705 9  25192087.529 9
  23517602.981    23517612.114   -74054340.144 9 124974356.818 9
  21145583.522    21145591.040   -89543382.471 9  83507888.676 9
 89 11 27 15 38 59.0800000  0  3G13G12G 3
  22701414.769    22701423.474   -35750422.846 9  25233682.036 9
  23538200.140    23538211.141   -73946092.958 9 125058704.966 9
  21144737.762    21144744.265   -89547829.143 9  83504423.630 8
 89 11 27 15 39 29.0800000  0  3G13G12G 3
  22711583.575    22711590.618   -35696987.075 9  25275320.064 7
  23558820.459    23558830.294   -73837740.134 9 125143135.393 9
  21143919.507    21143926.696   -89552128.346 9  83501073.493 9
 89 11 27 15 39 59.0800000  0  3G13G12G 3
  22721762.838    22721771.736   -35643494.881 9  25317002.071 8
  23579458.751    23579468.985   -73729284.858 9 125227645.666 9
  21143130.211    21143136.142   -89556279.780 9  83497838.519 8
 89 11 27 15 40 29.0800000  0  3G13G12G 3
  22731951.498    22731960.019   -35589945.729 9  25358728.466 8
  23600116.109    23600126.400   -73620730.806 9 125312232.902 9
  21142368.877    21142374.421   -89560283.757 9  83494718.436 8
 89 11 27 15 40 59.0800000  0  3G13G12G 3
  22742154.031    22742161.227   -35536339.552 9  25400499.253 7
  23620791.454    23620802.661   -73512081.358 9 125396894.470 9
  21141634.644    21141640.703   -89564140.037 9  83491713.461 9
 89 11 27 15 41 29.0800000  0  3G13G12G 3
  22752363.023    22752376.187   -35482676.514 9  25442314.349 8
  23641483.848    23641495.971   -73403339.601 9 125481627.952 9
  21140928.801    21140935.560   -89567848.893 9  83488823.350 8
 89 11 27 15 41 59.0800000  0  3G13G12G 3
  22762584.743    22762598.996   -35428955.789 8  25484174.468 8
  23662194.101    23662205.193   -73294509.515 8 125566430.254 7
  21140250.631    21140257.133   -89571410.208 9  83486048.200 8
 89 11 27 15 42 29.0800000  0  3G13G12G 3
  22772823.195    22772829.942   -35375177.346 9  25526079.517 7
  23682920.179    23682930.913   -73185593.973 9 125651299.147 7
  21139602.769    21139607.468   -89574823.755 9  83483388.197 8
 89 11 27 15 42 59.0800000  0  3G13G12G 3
  22783063.281    22783077.235   -35321341.129 8  25568029.580 8
  23703662.940    23703673.547   -73076596.106 9 125736232.173 9
  21138979.776    21138986.049   -89578089.317 9  83480843.510 8
 89 11 27 15 43 29.0800000  0  3G13G12G 3
  22793324.069    22793335.037   -35267446.776 4  25610024.984 9
  23724419.547    23724430.017   -72967519.497 9 125821226.577 6
  21138385.972    21138394.106   -89581206.743 9  83478414.250 8
 89 11 27 15 43 59.0800000  0  3G13G12G 3
  22803589.263    22803598.867   -35213494.474 9  25652065.484 8
  23745191.051    23745201.284   -72858367.835 9 125906279.429 8
  21137821.647    21137829.551   -89584176.301 9  83476100.204 9
 89 11 27 15 44 29.0800000  0  3G13G12G 3
  22813866.579    22813876.756   -35159483.754 9  25694151.528 8
  23765976.318    23765985.100   -72749144.089 9 125991388.472 8
  21137285.167    21137291.469   -89586997.829 9  83473901.527 8
 89 11 27 15 44 59.0800000  0  3G13G12G 3
  22824158.592    22824167.641   -35105414.873 9  25736282.879 9
  23786773.799    23786784.512   -72639852.548 9 126076550.341 8
  21136777.163    21136783.321   -89589671.388 9  83471818.130 8
 89 11 27 15 45 29.0800000  0  3G13G12G 3
  22834453.214    22834466.561   -35051286.929 8  25778460.304 7
  23807584.243    23807595.415   -72530495.458 9 126161763.298 9
  21136297.261    21136303.091   -89592196.493 9  83469850.429 9
 89 11 27 15 45 59.0800000  0  3G13G12G 3
  22844769.245    22844778.802   -34997098.909 9  25820684.453 8
  23828405.715    23828417.121   -72421075.844 9 126247024.931 9
  21135845.234    21135850.549   -89594572.600 9  83467998.816 8
 89 11 27 15 46 29.0800000  0  3G13G12G 3
  22855090.573    22855103.879   -34942851.209 9  25862955.139 8
  23849238.960    23849250.397   -72311597.381 9 126332332.438 8
  21135420.738    21135426.167   -89596800.135 9  83466262.981 8
 89 11 27 15 46 59.0800000  0  3G13G12G 3
  22865428.703    22865435.981   -34888543.658 9  25905272.518 7
  23870083.719    23870094.677   -72202063.323 9 126417683.242 8
  21135025.719    21135031.319   -89598878.988 9  83464642.984 8
 89 11 27 15 47 29.0800000  0  3G13G12G 3
  22875772.081    22875784.611   -34834175.865 9  25947636.718 8
  23890936.627    23890948.600   -72092477.338 9 126503074.532 9
  21134656.513    21134664.117   -89600808.869 9  83463139.082 8
 89 11 27 15 47 59.0800000  0  3G13G12G 3
  22886131.357    22886142.570   -34779747.649 9  25990048.090 8
  23911800.016    23911811.094   -71982842.552 9 126588503.849 8
  21134318.931    21134325.705   -89602589.330 9  83461751.630 9
 89 11 27 15 48 29.0800000  0  3G13G12G 3
  22896501.304    22896511.211   -34725258.519 9  26032506.909 9
  23932671.217    23932683.777   -71873162.396 9 126673968.507 9
  21134008.107    21134014.151   -89604220.501 9  83460480.500 8
 89 11 27 15 48 59.0800000  0  3G13G12G 3
  22906879.654    22906891.936   -34670708.054 9  26075013.498 8
  23953551.512    23953564.194   -71763439.937 9 126759466.117 9
  21133725.558    21133733.162   -89605702.240 9  83459325.804 8
 89 11 27 15 49 29.0800000  0  3G13G12G 3
  22917274.598    22917285.057   -34616096.496 9  26117567.725 9
  23974437.925    23974450.384   -71653678.317 9 126844994.229 9
  21133473.316    21133480.204   -89607034.207 9  83458287.812 8
 89 11 27 15 49 59.0800000  0  3G13G12G 3
  22927676.788    22927686.245   -34561423.530 9  26160169.763 8
  23995333.031    23995344.702   -71543881.193 9 126930550.019 8
  21133248.147    21133255.264   -89608216.199 9  83457366.709 9
 89 11 27 15 50 29.0800000  0  3G13G12G 3
  22938093.178    22938103.001   -34506688.380 9  26202820.253 8
  24016232.929    24016245.417   -71434051.473 9 127016131.186 8
  21133051.510    21133059.014   -89609248.198 9  83456562.457 8
 89 11 27 15 50 59.0800000  0  3G13G12G 3
  22948518.917    22948530.868   -34451891.280 9  26245519.015 7
  24037139.912    24037150.346   -71324192.838 9 127101734.886 9
  21132883.490    21132891.841   -89610129.975 9  83455875.276 8
 89 11 27 15 51 29.0800000  0  3G13G12G 3
  22958960.782    22958968.649   -34397031.416 9  26288266.724 8
  24058049.419    24058062.686   -71214308.066 9 127187358.938 9
  21132744.492    21132752.727   -89610861.289 9  83455305.335 8
 89 11 27 15 51 59.0800000  0  3G13G12G 3
  22969412.566    22969423.858   -34342108.548 8  26331063.481 8
  24078964.850    24078977.267   -71104400.435 9 127273000.820 8
  21132633.597    21132641.888   -89611441.651 9  83454853.000 8
 89 11 27 15 52 29.0800000  0  3G13G12G 3
  22979874.979    22979887.123   -34287122.955 9  26373909.144 9
  24099882.563    24099896.140   -70994473.664 9 127358657.577 9
  21132554.009    21132559.181   -89611871.208 9  83454518.196 8
 89 11 27 15 52 59.0800000  0  3G13G12G 3
  22990349.909    22990364.212   -34232073.004 9  26416804.945 8
  24120803.905    24120817.737   -70884530.291 8 127444327.278 9
  21132500.321    21132508.040   -89612149.424 9  83454301.321 9
 89 11 27 15 53 29.0800000  0  3G13G12G 3
  23000838.811    23000851.131   -34176959.299 9  26459750.418 8
  24141728.065    24141742.264   -70774574.223 9 127530006.868 9
  21132478.085    21132484.300   -89612276.189 9  83454202.441 9
 89 11 27 15 53 59.0800000  0  3G13G12G 3
  23011338.507    23011350.754   -34121781.190 8  26502746.090 8
  24162654.150    24162668.842   -70664608.669 9 127615693.865 9
  21132482.207    21132489.195   -89612251.266 9  83454221.765 9
 89 11 27 15 54 29.0800000  0  3G13G12G 3
  23021850.705    23021864.087   -34066538.346 9  26545792.202 8
  24183582.101    24183595.871   -70554636.547 9 127701385.976 9
  21132515.833    21132522.250   -89612074.318 9  83454359.562 9
 89 11 27 15 54 59.0800000  0  3G13G12G 3
  23032377.055    23032388.396   -34011229.923 9  26588889.386 8
  24204511.128    24204523.493   -70444661.282 9 127787080.539 8
  21132577.992    21132584.623   -89611744.675 9  83454616.335 8
 89 11 27 15 55 29.0800000  0  3G13G12G 3
  23042914.452    23042925.622   -33955856.182 9  26632037.505 8
  24225438.278    24225451.431   -70334686.264 9 127872774.887 7
  21132670.630    21132676.531   -89611262.455 9  83454991.999 8
 89 11 27 15 55 59.0800000  0  3G13G12G 3
  23053464.085    23053475.721   -33900416.919 9  26675236.665 8
  24246365.571    24246379.885   -70224714.532 9 127958466.689 8
  21132791.143    21132796.673   -89610627.562 9  83455486.619 9
 89 11 27 15 56 29.0800000  0  3G13G12G 3
  23064026.807    23064036.728   -33844911.394 9  26718487.469 8
  24267291.970    24267305.604   -70114749.467 9 128044153.287 8
  21132940.245    21132946.290   -89609839.321 9  83456100.719 8
 89 11 27 15 56 59.0800000  0  3G13G12G 3
  23074601.086    23074614.459   -33789339.755 8  26761789.776 8
  24288216.217    24288228.812   -70004794.133 9 128129832.289 8
  21133118.996    21133126.457   -89608897.842 9  83456834.231 9
 89 11 27 15 57 29.0800000  0  3G13G12G 3
  23085189.777    23085200.607   -33733701.301 9  26805144.160 8
  24309137.665    24309151.505   -69894852.107 9 128215500.907 8
  21133327.911    21133335.858   -89607802.589 9  83457687.596 8
 89 11 27 15 57 59.0800000  0  3G13G12G 3
  23095790.730    23095802.038   -33677994.962 9  26848551.407 7
  24330056.288    24330070.192   -69784925.994 9 128301157.123 9
  21133565.387    21133572.060   -89606552.983 9  83458661.206 8
 89 11 27 15 58 29.0800000  0  3G13G12G 3
  23106404.302    23106416.868   -33622221.209 9  26892011.192 8
  24350971.067    24350986.575   -69675019.148 9 128386798.299 8
  21133832.653    21133839.570   -89605149.068 9  83459755.064 8
 89 11 27 15 58 59.0800000  0  3G13G12G 3
  23117032.044    23117042.867   -33566379.787 9  26935523.711 8
  24371881.891    24371896.211   -69565135.067 9 128472421.724 9
  21134128.997    21134137.316   -89603590.450 9  83460969.460 8
 89 11 27 15 59 29.0800000  0  3G13G12G 3
  23127668.560    23127681.837   -33510469.684 9  26979089.769 8
  24392788.021    24392803.272   -69455276.217 9 128558025.483 8
  21134456.392    21134464.039   -89601876.305 9  83462305.043 8
 89 11 27 15 59 59.0800000  0  3G13G12G 3
  23138323.935    23138334.716   -33454490.916 9  27022709.305 7
  24413687.949    24413702.670   -69345446.108 9 128643606.827 9
  21134812.634    21134819.551   -89600006.761 8  83463761.731 8
 89 11 27 16  0 29.0800000  0  3G13G12G 3
  23148988.970    23149000.647   -33398442.660 9  27066382.990 8
  24434581.938    24434596.458   -69235648.080 9 128729163.156 8
  21135200.413    21135203.295   -89597981.478 9  83465339.774 8
